[[{"header":{"parameterUnit":"m.s-1","parameterCategory":1,"la1":31.0,"la2":29.5877,"lo1":-88.7671,"lo2":-86.6584,"dy":0.0162,"dx":0.0185,"nx":115,"ny":88,"refTime":"2023-07-21T18:00:00:Z","depth":0,"parameterNumber":2,"parameterNumberName":"U-component_of_WINDS"},"data":[0.0,0.0,0.0,0.0,0.0,0.0,0.0,0.0,0.0,0.0,0.0,0.0,0.0,0.0,0.0,0.0,0.0,0.0,0.0,0.0,0.0,0.0,0.0,0.0,0.0,0.0,0.0,0.0,0.0,0.0,0.0,0.0,0.0,0.0,0.0,0.0,0.0,0.0,0.0,0.0,0.0,0.0,0.0,0.0,0.0,0.0,0.0,0.0,0.0,0.0,0.0,0.0,0.0,0.0,0.0,0.0,0.0,0.0,0.0,0.0,0.0,0.0,0.0,0.0,0.0,0.0,0.0,0.0,0.0,0.0,0.0,0.0,0.0,0.0,0.0,0.0,0.0,0.0,0.0,0.0,0.0,0.0,0.0,0.0,0.0,0.0,0.0,0.0,0.0,0.0,0.0,0.0,0.0,0.0,0.0,0.0,0.0,0.0,0.0,0.0,0.0,0.0,0.0,0.0,0.0,0.0,0.0,0.0,0.0,0.0,0.0,0.0,0.0,0.0,0.0,0.0,0.0,0.0,0.0,0.0,0.0,0.0,0.0,0.0,0.0,0.0,0.0,0.0,0.0,0.0,0.0,0.0,0.0,0.0,0.0,0.0,0.0,0.0,0.0,0.0,0.0,0.0,0.0,0.0,0.0,0.0,0.0,0.0,0.0,0.0,0.0,0.0,0.0,0.0,0.0,0.0,0.0,0.0,0.0,0.0,0.0,0.0,0.0,0.0,0.0,0.0,0.0,0.0,0.0,0.0,0.0,0.0,0.0,0.0,0.0,0.0,0.0,0.0,0.0,0.0,0.0,0.0,0.0,0.0,0.0,0.0,0.0,0.0,0.0,0.0,0.0,0.0,0.0,0.0,0.0,0.0,0.0,0.0,0.0,0.0,0.0,0.0,0.0,0.0,0.0,0.0,0.0,0.0,0.0,0.0,0.0,0.0,0.0,0.0,0.0,0.0,0.0,0.0,0.0,0.0,0.0,0.0,0.0,0.0,0.0,0.0,0.0,0.0,0.0,0.0,0.0,0.0,0.0,0.0,0.0,0.0,0.0,0.0,0.0,0.0,0.0,0.0,0.0,0.0,0.0,0.0,0.0,0.0,0.0,0.0,0.0,0.0,0.0,0.0,0.0,0.0,0.0,0.0,0.0,0.0,0.0,0.0,0.0,0.0,0.0,0.0,0.0,0.0,0.0,0.0,0.0,0.0,0.0,0.0,0.0,0.0,0.0,0.0,0.0,0.0,0.0,0.0,0.0,0.0,0.0,0.0,0.0,0.0,0.0,0.0,0.0,0.0,0.0,0.0,0.0,0.0,0.0,0.0,0.0,0.0,0.0,0.0,0.0,0.0,0.0,0.0,0.0,0.0,0.0,0.0,0.0,0.0,0.0,0.0,0.0,0.0,0.0,0.0,0.0,0.0,0.0,0.0,0.0,0.0,0.0,0.0,0.0,0.0,0.0,0.0,0.0,0.0,0.0,0.0,0.0,0.0,0.0,0.0,0.0,0.0,0.0,0.0,0.0,0.0,0.0,0.0,0.0,0.0,0.0,0.0,0.0,0.0,0.0,0.0,0.0,0.0,0.0,0.0,0.0,0.0,0.0,0.0,0.0,0.0,0.0,0.0,0.0,0.0,0.0,0.0,0.0,0.0,0.0,0.0,0.0,0.0,0.0,0.0,0.0,0.0,0.0,0.0,0.0,0.0,0.0,0.0,0.0,0.0,0.0,0.0,0.0,0.0,0.0,0.0,0.0,0.0,0.0,0.0,0.0,0.0,0.0,0.0,0.0,0.0,0.0,0.0,0.0,0.0,0.0,0.0,0.0,0.0,0.0,0.0,0.0,0.0,0.0,0.0,0.0,0.0,0.0,0.0,0.0,0.0,0.0,0.0,0.0,0.0,0.0,0.0,0.0,0.0,0.0,0.0,0.0,0.0,0.0,0.0,0.0,0.0,0.0,0.0,0.0,0.0,0.0,0.0,0.0,0.0,0.0,0.0,0.0,0.0,0.0,0.0,0.0,0.0,0.0,0.0,0.0,0.0,0.0,0.0,0.0,0.0,0.0,0.0,0.0,0.0,0.0,0.0,0.0,0.0,0.0,0.0,0.0,0.0,0.0,0.0,0.0,0.0,0.0,0.0,0.0,0.0,0.0,0.0,0.0,0.0,0.0,0.0,0.0,0.0,0.0,0.0,0.0,0.0,0.0,0.0,0.0,0.0,0.0,0.0,0.0,0.0,0.0,0.0,0.0,0.0,0.0,0.0,0.0,0.0,0.0,0.0,0.0,0.0,0.0,0.0,0.0,0.0,0.0,0.0,0.0,0.0,0.0,0.0,0.0,0.0,0.0,0.0,0.0,0.0,0.0,0.0,0.0,0.0,0.0,0.0,0.0,0.0,0.0,0.0,0.0,0.0,0.0,0.0,0.0,0.0,0.0,0.0,0.0,0.0,0.0,0.0,0.0,0.0,0.0,0.0,0.0,0.0,0.0,0.0,0.0,0.0,0.0,0.0,0.0,0.0,0.0,0.0,0.0,0.0,0.0,0.0,0.0,0.0,0.0,0.0,0.0,0.0,0.0,0.0,0.0,0.0,0.0,0.0,0.0,0.0,0.0,0.0,0.0,0.0,0.0,0.0,0.0,0.0,0.0,0.0,0.0,0.0,0.0,0.0,0.0,0.0,0.0,0.0,0.0,0.0,0.0,0.0,0.0,0.0,0.0,0.0,0.0,0.0,0.0,0.0,0.0,0.0,0.0,0.0,0.0,0.0,0.0,0.0,0.0,0.0,0.0,0.0,0.0,0.0,0.0,0.0,0.0,0.0,0.0,0.0,0.0,0.0,0.0,0.0,0.0,0.0,0.0,0.0,0.0,0.0,0.0,0.0,0.0,0.0,0.0,0.0,0.0,0.0,0.0,0.0,0.0,0.0,0.0,0.0,0.0,0.0,0.0,0.0,0.0,0.0,0.0,0.0,0.0,0.0,0.0,0.0,0.0,0.0,0.0,0.0,0.0,0.0,0.0,0.0,0.0,0.0,0.0,0.0,0.0,0.0,0.0,0.0,0.0,0.0,0.0,0.0,0.0,0.0,0.0,0.0,0.0,0.0,0.0,0.0,0.0,0.0,0.0,0.0,0.0,0.0,0.0,0.0,0.0,0.0,0.0,0.0,0.0,0.0,0.0,0.0,0.0,0.0,0.0,0.0,0.0,0.0,0.0,0.0,0.0,0.0,0.0,0.0,0.0,0.0,0.0,0.0,0.0,0.0,0.0,0.0,0.0,0.0,0.0,0.0,0.0,0.0,0.0,0.0,0.0,0.0,0.0,0.0,0.0,0.0,0.0,0.0,0.0,0.0,0.0,0.0,0.0,0.0,0.0,0.0,0.0,0.0,0.0,0.0,0.0,0.0,0.0,0.0,0.0,0.0,0.0,0.0,0.0,0.0,0.0,0.0,0.0,0.0,0.0,0.0,0.0,0.0,0.0,0.0,0.0,0.0,0.0,0.0,0.0,0.0,0.0,0.0,0.0,0.0,0.0,0.0,0.0,0.0,0.0,0.0,0.0,0.0,0.0,0.0,0.0,0.0,0.0,0.0,0.0,0.0,0.0,0.0,0.0,0.0,0.0,0.0,0.0,0.0,0.0,0.0,0.0,0.0,0.0,0.0,0.0,0.0,0.0,0.0,0.0,0.0,0.0,0.0,0.0,0.0,0.0,0.0,0.0,0.0,0.0,0.0,0.0,0.0,0.0,0.0,0.0,0.0,0.0,0.0,0.0,0.0,0.0,0.0,0.0,0.0,0.0,0.0,0.0,0.0,0.0,0.0,0.0,0.0,0.0,0.0,0.0,0.0,0.0,0.0,0.0,0.0,0.0,0.0,0.0,0.0,0.0,0.0,0.0,0.0,0.0,0.0,0.0,0.0,0.0,0.0,0.0,0.0,0.0,0.0,0.0,0.0,0.0,0.0,0.0,0.0,0.0,0.0,0.0,0.0,0.0,0.0,0.0,0.0,0.0,0.0,0.0,0.0,0.0,0.0,0.0,0.0,0.0,0.0,0.0,0.0,0.0,0.0,0.0,0.0,0.0,0.0,0.0,0.0,0.0,0.0,0.0,0.0,0.0,0.0,0.0,0.0,0.0,0.0,0.0,0.0,0.0,0.0,0.0,0.0,0.0,0.0,0.0,0.0,0.0,0.0,0.0,0.0,0.0,0.0,0.0,0.0,0.0,0.0,0.0,0.0,0.0,0.0,0.0,0.0,0.0,0.0,0.0,0.0,0.0,0.0,2.0516,0.0,0.0,0.0,0.0,0.0,0.0,0.0,0.0,0.0,0.0,0.0,0.0,0.0,0.0,0.0,0.0,0.0,0.0,0.0,0.0,0.0,0.0,0.0,0.0,0.0,0.0,0.0,0.0,0.0,0.0,0.0,0.0,0.0,0.0,0.0,0.0,0.0,0.0,0.0,0.0,0.0,0.0,0.0,0.0,0.0,0.0,0.0,0.0,0.0,0.0,0.0,0.0,0.0,0.0,0.0,0.0,0.0,0.0,0.0,0.0,0.0,0.0,0.0,0.0,0.0,0.0,0.0,0.0,0.0,0.0,0.0,0.0,0.0,0.0,0.0,0.0,0.0,0.0,0.0,0.0,0.0,0.0,0.0,0.0,0.0,0.0,0.0,0.0,0.0,0.0,0.0,0.0,0.0,0.0,0.0,0.0,0.0,0.0,0.0,0.0,0.0,0.0,0.0,0.0,0.0,0.0,0.0,0.0,0.0,0.0,2.045,2.0447,2.0447,2.0448,2.0455,0.0,0.0,0.0,0.0,0.0,0.0,0.0,0.0,0.0,0.0,0.0,0.0,0.0,0.0,0.0,0.0,0.0,0.0,0.0,0.0,0.0,0.0,0.0,0.0,0.0,0.0,0.0,0.0,0.0,0.0,0.0,0.0,0.0,0.0,0.0,0.0,0.0,0.0,0.0,0.0,0.0,0.0,0.0,0.0,0.0,0.0,0.0,0.0,0.0,0.0,0.0,0.0,0.0,0.0,0.0,0.0,0.0,0.0,0.0,0.0,0.0,0.0,0.0,0.0,0.0,0.0,0.0,0.0,0.0,0.0,0.0,0.0,0.0,0.0,0.0,0.0,0.0,0.0,0.0,0.0,0.0,0.0,0.0,0.0,0.0,0.0,0.0,0.0,0.0,0.0,0.0,0.0,0.0,0.0,0.0,0.0,0.0,0.0,0.0,0.0,0.0,0.0,0.0,0.0,0.0,0.0,0.0,0.0,0.0,0.0,0.0,0.0,2.036,2.027,2.0214,0.0,0.0,0.0,0.0,0.0,0.0,0.0,0.0,0.0,0.0,0.0,0.0,0.0,0.0,0.0,0.0,0.0,0.0,0.0,0.0,0.0,0.0,0.0,0.0,0.0,0.0,0.0,0.0,0.0,0.0,0.0,0.0,0.0,0.0,0.0,0.0,0.0,0.0,0.0,0.0,0.0,0.0,0.0,0.0,0.0,0.0,0.0,0.0,0.0,0.0,0.0,0.0,0.0,0.0,0.0,0.0,0.0,0.0,0.0,0.0,0.0,0.0,0.0,0.0,0.0,0.0,0.0,0.0,0.0,0.0,0.0,0.0,0.0,0.0,0.0,0.0,0.0,0.0,0.0,0.0,0.0,0.0,0.0,0.0,0.0,0.0,0.0,0.0,0.0,0.0,0.0,0.0,0.0,0.0,0.0,0.0,0.0,0.0,0.0,0.0,0.0,0.0,0.0,0.0,0.0,0.0,0.0,0.0,0.0,0.0,2.025,2.0138,2.0057,0.0,1.9701,0.0,0.0,0.0,0.0,0.0,0.0,0.0,0.0,0.0,0.0,0.0,0.0,0.0,0.0,0.0,0.0,0.0,0.0,0.0,0.0,0.0,0.0,0.0,0.0,0.0,0.0,0.0,0.0,0.0,0.0,0.0,0.0,0.0,0.0,0.0,0.0,0.0,0.0,0.0,0.0,0.0,0.0,0.0,0.0,0.0,0.0,0.0,0.0,0.0,0.0,0.0,0.0,0.0,0.0,0.0,0.0,0.0,0.0,0.0,0.0,0.0,0.0,0.0,0.0,0.0,0.0,0.0,0.0,0.0,0.0,0.0,0.0,0.0,0.0,0.0,0.0,0.0,0.0,0.0,0.0,0.0,0.0,0.0,0.0,0.0,0.0,0.0,0.0,0.0,0.0,0.0,0.0,0.0,0.0,0.0,0.0,0.0,0.0,0.0,0.0,0.0,0.0,0.0,0.0,0.0,0.0,0.0,0.0,0.0,0.0,1.9774,1.9573,1.9238,1.8961,0.0,0.0,0.0,0.0,0.0,0.0,0.0,0.0,0.0,0.0,0.0,0.0,0.0,0.0,0.0,0.0,0.0,0.0,0.0,0.0,0.0,0.0,0.0,0.0,0.0,0.0,0.0,0.0,0.0,0.0,0.0,0.0,0.0,0.0,0.0,0.0,0.0,0.0,0.0,0.0,0.0,0.0,0.0,0.0,0.0,0.0,0.0,0.0,0.0,0.0,0.0,0.0,0.0,0.0,0.0,0.0,0.0,0.0,0.0,0.0,0.0,0.0,0.0,0.0,0.0,0.0,0.0,0.0,0.0,0.0,0.0,0.0,0.0,0.0,0.0,0.0,0.0,0.0,0.0,0.0,0.0,0.0,0.0,0.0,0.0,0.0,0.0,0.0,0.0,0.0,0.0,0.0,0.0,0.0,0.0,0.0,0.0,0.0,0.0,0.0,0.0,0.0,0.0,0.0,0.0,0.0,0.0,0.0,0.0,0.0,1.9332,1.8916,1.8415,1.7929,1.7596,1.7487,0.0,0.0,0.0,0.0,0.0,0.0,0.0,0.0,0.0,0.0,0.0,0.0,0.0,0.0,0.0,0.0,0.0,0.0,0.0,0.0,0.0,0.0,0.0,0.0,0.0,0.0,0.0,0.0,0.0,0.0,0.0,0.0,0.0,0.0,0.0,0.0,0.0,0.0,0.0,0.0,0.0,0.0,0.0,0.0,0.0,0.0,0.0,0.0,0.0,0.0,0.0,0.0,0.0,0.0,0.0,0.0,0.0,0.0,0.0,0.0,0.0,0.0,0.0,0.0,0.0,0.0,0.0,0.0,0.0,0.0,0.0,0.0,0.0,0.0,0.0,0.0,0.0,0.0,0.0,0.0,0.0,0.0,0.0,0.0,0.0,0.0,0.0,0.0,0.0,0.0,0.0,0.0,0.0,0.0,0.0,0.0,0.0,0.0,0.0,0.0,0.0,0.0,0.0,0.0,0.0,0.0,0.0,0.0,1.8832,1.8321,1.7521,1.645,1.6032,1.5769,0.0,0.0,0.0,0.0,0.0,0.0,0.0,0.0,0.0,0.0,0.0,0.0,0.0,0.0,0.0,0.0,0.0,0.0,0.0,0.0,0.0,0.0,0.0,0.0,0.0,0.0,0.0,0.0,0.0,0.0,0.0,0.0,0.0,0.0,0.0,0.0,0.0,0.0,0.0,0.0,0.0,0.0,0.0,0.0,0.0,0.0,0.0,0.0,0.0,0.0,0.0,0.0,0.0,0.0,0.0,0.0,0.0,0.0,0.0,0.0,0.0,0.0,0.0,0.0,0.0,0.0,0.0,0.0,0.0,0.0,0.0,0.0,0.0,0.0,0.0,0.0,0.0,0.0,0.0,0.0,0.0,0.0,0.0,0.0,0.0,0.0,0.0,0.0,0.0,0.0,0.0,0.0,0.0,0.0,0.0,0.0,0.0,0.0,0.0,0.0,0.0,0.0,0.0,0.0,0.0,0.0,0.0,0.0,0.0,1.7314,1.5863,1.465,1.3772,1.34,1.3172,0.0,0.0,0.0,0.0,0.0,0.0,0.0,0.0,0.0,0.0,0.0,0.0,0.0,0.0,0.0,0.0,0.0,0.0,0.0,0.0,0.0,0.0,0.0,0.0,0.0,0.0,0.0,0.0,0.0,0.0,0.0,0.0,0.0,0.0,0.0,0.0,0.0,0.0,0.0,0.0,0.0,0.0,0.0,0.0,0.0,0.0,0.0,0.0,0.0,0.0,0.0,0.0,0.0,0.0,0.0,0.0,0.0,0.0,0.0,0.0,0.0,0.0,0.0,0.0,0.0,0.0,0.0,0.0,0.0,0.0,0.0,0.0,0.0,0.0,0.0,0.0,0.0,0.0,0.0,0.0,0.0,0.0,0.0,0.0,0.0,0.0,0.0,0.0,0.0,0.0,0.0,0.0,0.0,0.0,0.0,0.0,0.0,0.0,0.0,0.0,0.0,0.0,0.0,0.0,0.0,0.0,0.0,0.0,0.0,1.4485,0.0,1.1399,1.0651,1.0324,1.0159,0.0,0.0,0.0,0.0,0.0,0.0,0.0,0.0,0.0,0.0,0.0,0.0,0.0,0.0,0.0,0.0,0.0,0.0,0.0,0.0,0.0,0.0,0.0,0.0,0.0,0.0,0.0,0.0,0.0,0.0,0.0,0.0,0.0,0.0,0.0,0.0,0.0,0.0,0.0,0.0,0.0,0.0,0.0,0.0,0.0,0.0,0.0,0.0,0.0,0.0,0.0,0.0,0.0,0.0,0.0,0.0,0.0,0.0,0.0,0.0,0.0,0.0,0.0,0.0,0.0,0.0,0.0,0.0,0.0,0.0,0.0,0.0,0.0,0.0,0.0,0.0,0.0,0.0,0.0,0.0,0.0,0.0,0.0,0.0,0.0,0.0,0.0,0.0,0.0,0.0,0.0,0.0,0.0,0.0,0.0,0.0,0.0,0.0,0.0,0.0,0.0,0.0,0.0,0.0,0.0,0.0,0.0,0.0,1.3453,1.0295,0.8967,0.7903,0.7076,0.676,0.6774,0.0,0.0,0.0,0.0,0.0,0.0,0.0,0.0,0.0,0.0,0.0,0.0,0.0,0.0,0.0,0.0,0.0,0.0,0.0,0.0,0.0,0.0,0.0,0.0,0.0,0.0,0.0,0.0,0.0,0.0,0.0,0.0,0.0,0.0,0.0,0.0,0.0,0.0,0.0,0.0,0.0,0.0,0.0,0.0,0.0,0.0,0.0,0.0,0.0,0.0,0.0,0.0,0.0,0.0,0.0,0.0,0.0,0.0,0.0,0.0,0.0,0.0,0.0,0.0,0.0,0.0,0.0,0.0,0.0,0.0,0.0,0.0,0.0,0.0,0.0,0.0,0.0,0.0,0.0,0.0,0.0,0.0,0.0,0.0,0.0,0.0,0.0,0.0,0.0,0.0,0.0,0.0,0.0,0.0,0.0,0.0,0.0,0.0,0.0,0.0,0.0,0.0,0.0,0.0,0.0,0.0,0.0,0.0,0.0,0.6109,0.4904,0.3873,0.3073,0.2962,0.3065,0.0,0.0,0.0,0.0,0.0,0.0,0.0,0.0,0.0,0.0,0.0,0.0,0.0,0.0,0.0,0.0,0.0,0.0,0.0,0.0,0.0,0.0,0.0,0.0,0.0,0.0,0.0,0.0,0.0,0.0,0.0,0.0,0.0,0.0,0.0,0.0,0.0,0.0,0.0,0.0,0.0,0.0,0.0,0.0,0.0,0.0,0.0,0.0,0.0,0.0,0.0,0.0,0.0,0.0,0.0,0.0,0.0,0.0,0.0,0.0,0.0,0.0,0.0,0.0,0.0,0.0,0.0,0.0,0.0,0.0,0.0,0.0,0.0,0.0,0.0,0.0,0.0,0.0,0.0,0.0,0.0,0.0,0.0,0.0,0.0,0.0,0.0,0.0,0.0,0.0,0.0,0.0,0.0,0.0,0.0,0.0,0.0,0.0,0.0,0.0,0.0,0.0,0.0,0.0,0.0,0.0,0.0,0.0,0.0,-0.0202,0.0041,-0.0169,-0.081,-0.077,-0.0515,0.0043,0.0,0.0,0.0,0.0,0.0,0.0,0.0,0.0,0.0,0.0,0.0,0.0,0.0,0.0,0.0,0.0,0.0,0.0,0.0,0.0,0.0,0.0,0.0,0.0,0.0,0.0,0.0,0.0,0.0,0.0,0.0,0.0,0.0,0.0,0.0,0.0,0.0,0.0,0.0,0.0,0.0,0.0,0.0,0.0,0.0,0.0,0.0,0.0,0.0,0.0,0.0,0.0,0.0,0.0,0.0,0.0,0.0,0.0,0.0,0.0,0.0,0.0,0.0,0.0,0.0,0.0,0.0,0.0,0.0,0.0,0.0,0.0,0.0,0.0,0.0,0.0,0.0,0.0,0.0,0.0,0.0,0.0,0.0,0.0,0.0,0.0,0.0,0.0,0.0,0.0,0.0,0.0,0.0,0.0,0.0,0.0,0.0,0.0,0.0,0.0,0.0,0.0,0.0,0.0,0.0,0.0,0.0,0.0,-0.7952,-0.5438,-0.4244,-0.4502,-0.4341,-0.384,0.0,0.0,0.0,0.0,0.0,0.0,0.0,0.0,0.0,0.0,0.0,0.0,0.0,0.0,0.0,0.0,0.0,0.0,0.0,0.0,0.0,0.0,0.0,0.0,0.0,0.0,0.0,0.0,0.0,0.0,0.0,0.0,0.0,0.0,0.0,0.0,0.0,0.0,0.0,0.0,0.0,0.0,0.0,0.0,0.0,0.0,0.0,0.0,0.0,0.0,0.0,0.0,0.0,0.0,0.0,0.0,0.0,0.0,0.0,0.0,0.0,0.0,0.0,0.0,0.0,0.0,0.0,0.0,0.0,0.0,0.0,0.0,0.0,0.0,0.0,0.0,0.0,0.0,0.0,0.0,0.0,0.0,0.0,0.0,0.0,0.0,0.0,0.0,0.0,0.0,0.0,0.0,0.0,0.0,0.0,0.0,0.0,0.0,0.0,0.0,0.0,0.0,0.0,0.0,0.0,0.0,0.0,0.0,0.0,-1.1175,-1.0684,-0.9562,-0.7824,-0.7323,-0.6676,0.0,0.0,0.0,0.0,0.0,0.0,0.0,0.0,0.0,0.0,0.0,0.0,0.0,0.0,0.0,0.0,0.0,0.0,0.0,0.0,0.0,0.0,0.0,0.0,0.0,0.0,0.0,0.0,0.0,0.0,0.0,0.0,0.0,0.0,0.0,0.0,0.0,0.0,0.0,0.0,0.0,0.0,0.0,0.0,0.0,0.0,0.0,0.0,0.0,0.0,0.0,0.0,0.0,0.0,0.0,0.0,0.0,0.0,0.0,0.0,0.0,0.0,0.0,0.0,0.0,0.0,0.0,0.0,0.0,0.0,0.0,0.0,0.0,0.0,0.0,0.0,0.0,0.0,0.0,0.0,0.0,0.0,0.0,0.0,0.0,0.0,0.0,0.0,0.0,0.0,0.0,0.0,0.0,0.0,0.0,0.0,0.0,0.0,0.0,0.0,0.0,0.0,0.0,0.0,0.0,0.0,0.0,0.0,-1.3311,-1.3839,-1.3902,-1.3101,-1.1342,-1.0133,-0.9015,0.0,0.0,0.0,0.0,0.0,0.0,0.0,0.0,0.0,0.0,0.0,0.0,0.0,0.0,0.0,0.0,0.0,0.0,0.0,0.0,0.0,0.0,0.0,0.0,0.0,0.0,0.0,0.0,0.0,0.0,0.0,0.0,0.0,0.0,0.0,0.0,0.0,0.0,0.0,0.0,0.0,0.0,0.0,0.0,0.0,0.0,0.0,0.0,0.0,0.0,0.0,0.0,0.0,0.0,0.0,0.0,0.0,0.0,0.0,0.0,0.0,0.0,0.0,0.0,0.0,0.0,0.0,0.0,0.0,0.0,0.0,0.0,0.0,0.0,0.0,0.0,0.0,0.0,0.0,0.0,0.0,0.0,0.0,0.0,0.0,0.0,0.0,0.0,0.0,0.0,0.0,0.0,0.0,0.0,0.0,0.0,0.0,0.0,0.0,0.0,0.0,0.0,0.0,0.0,0.0,0.0,0.0,0.0,-1.5884,-1.5899,-1.5758,-1.5316,-1.464,-1.2606,-1.0946,0.0,0.0,0.0,0.0,0.0,0.0,0.0,0.0,0.0,0.0,0.0,0.0,0.0,0.0,0.0,0.0,0.0,0.0,0.0,0.0,0.0,0.0,0.0,0.0,0.0,0.0,0.0,0.0,0.0,0.0,0.0,0.0,0.0,0.0,0.0,0.0,0.0,0.0,0.0,0.0,0.0,0.0,0.0,0.0,0.0,0.0,0.0,0.0,0.0,0.0,0.0,0.0,0.0,0.0,0.0,0.0,0.0,0.0,0.0,0.0,0.0,0.0,0.0,0.0,0.0,0.0,0.0,0.0,0.0,0.0,0.0,0.0,0.0,0.0,0.0,0.0,0.0,0.0,0.0,0.0,0.0,0.0,0.0,0.0,0.0,0.0,0.0,0.0,0.0,0.0,0.0,0.0,0.0,0.0,0.0,0.0,0.0,0.0,0.0,0.0,0.0,0.0,0.0,0.0,0.0,0.0,0.0,0.0,-1.7591,-1.7292,-1.6905,-1.6349,-1.5677,-1.3845,-1.2318,0.0,0.0,0.0,0.0,0.0,0.0,0.0,0.0,0.0,0.0,0.0,0.0,0.0,0.0,0.0,0.0,0.0,0.0,0.0,0.0,0.0,0.0,0.0,0.0,0.0,0.0,0.0,0.0,0.0,0.0,0.0,0.0,0.0,0.0,0.0,0.0,0.0,0.0,0.0,0.0,0.0,0.0,0.0,0.0,0.0,0.0,0.0,0.0,-0.5562,0.0,0.0,0.0,0.0,0.0,0.0,0.0,0.0,0.0,0.0,0.0,0.0,0.0,0.0,0.0,0.0,0.0,0.0,0.0,0.0,0.0,0.0,0.0,0.0,0.0,0.0,0.0,0.0,0.0,0.0,0.0,0.0,0.0,0.0,0.0,0.0,0.0,0.0,0.0,0.0,0.0,0.0,0.0,0.0,0.0,0.0,0.0,0.0,0.0,0.0,0.0,0.0,0.0,0.0,0.0,0.0,0.0,0.0,0.0,-1.861,-1.8173,-1.7681,-1.7052,-1.6273,-1.4976,-1.3598,0.0,0.0,0.0,0.0,0.0,0.0,0.0,0.0,0.0,0.0,0.0,0.0,0.0,0.0,0.0,0.0,0.0,0.0,0.0,0.0,0.0,0.0,0.0,0.0,0.0,0.0,0.0,0.0,0.0,0.0,0.0,0.0,0.0,0.0,0.0,0.0,0.0,0.0,0.0,0.0,0.0,0.0,0.0,0.0,0.0,0.0,0.0,0.0,0.0,0.0,0.0,0.0,0.0,0.0,0.0,0.0,0.0,0.0,0.0,0.0,0.0,0.0,0.0,0.0,0.0,0.0,0.0,0.0,0.0,0.0,0.0,0.0,0.0,0.0,0.0,0.0,0.0,0.0,0.0,0.0,0.0,0.0,0.0,0.0,0.0,0.0,0.0,0.0,0.0,0.0,0.0,0.0,0.0,0.0,0.0,0.0,0.0,0.0,0.0,0.0,0.0,0.0,0.0,0.0,0.0,0.0,0.0,-1.9662,-1.9236,-1.8771,-1.8223,-1.7541,-1.6709,-1.5874,-1.4687,-1.3082,0.0,0.0,0.0,0.0,0.0,0.0,0.0,0.0,0.0,0.0,0.0,0.0,0.0,0.0,0.0,0.0,0.0,0.0,0.0,0.0,0.0,0.0,0.0,0.0,0.0,0.0,0.0,0.0,0.0,0.0,0.0,0.0,0.0,0.0,0.0,0.0,0.0,0.0,-0.8043,-0.8258,0.0,0.0,0.0,0.0,0.0,0.0,0.0,0.0,-0.9666,0.0,0.0,0.0,0.0,0.0,0.0,0.0,0.0,0.0,0.0,0.0,0.0,0.0,0.0,0.0,0.0,0.0,0.0,0.0,0.0,0.0,0.0,0.0,0.0,0.0,0.0,0.0,0.0,0.0,0.0,0.0,0.0,0.0,0.0,0.0,0.0,0.0,0.0,0.0,0.0,0.0,0.0,0.0,0.0,0.0,0.0,0.0,0.0,0.0,0.0,0.0,0.0,0.0,0.0,0.0,0.0,-2.018,-1.9879,-1.9505,-1.9043,-1.8441,-1.7825,-1.7101,-1.6123,-1.5065,-1.3985,0.0,0.0,0.0,0.0,0.0,0.0,0.0,0.0,0.0,0.0,0.0,0.0,0.0,0.0,0.0,0.0,0.0,0.0,0.0,0.0,0.0,0.0,0.0,0.0,0.0,0.0,0.0,0.0,0.0,0.0,0.0,0.0,0.0,0.0,0.0,0.0,0.0,0.0,0.0,-1.0529,-1.0781,0.0,0.0,0.0,0.0,0.0,0.0,0.0,0.0,-1.1507,0.0,0.0,0.0,0.0,0.0,0.0,0.0,0.0,0.0,0.0,0.0,0.0,0.0,0.0,0.0,0.0,0.0,0.0,0.0,0.0,0.0,0.0,0.0,0.0,0.0,0.0,0.0,0.0,0.0,0.0,0.0,0.0,0.0,0.0,0.0,0.0,0.0,0.0,0.0,0.0,0.0,0.0,0.0,0.0,0.0,0.0,0.0,0.0,0.0,0.0,0.0,0.0,0.0,0.0,0.0,-2.0245,-2.0,-1.9626,-1.9151,-1.8609,-1.7954,-1.7223,-1.6311,-1.536,0.0,0.0,0.0,0.0,0.0,0.0,0.0,0.0,0.0,0.0,0.0,0.0,0.0,0.0,0.0,0.0,0.0,0.0,0.0,0.0,0.0,0.0,0.0,0.0,0.0,0.0,0.0,0.0,0.0,0.0,0.0,0.0,0.0,0.0,0.0,0.0,0.0,0.0,0.0,0.0,-1.2676,-1.2934,-1.305,0.0,0.0,0.0,0.0,0.0,0.0,-1.31,-1.3062,0.0,0.0,0.0,0.0,0.0,0.0,0.0,0.0,0.0,0.0,0.0,0.0,0.0,0.0,0.0,0.0,0.0,0.0,0.0,0.0,0.0,0.0,0.0,0.0,0.0,0.0,0.0,0.0,0.0,0.0,0.0,0.0,0.0,0.0,0.0,0.0,0.0,0.0,0.0,0.0,0.0,0.0,0.0,0.0,0.0,0.0,0.0,0.0,0.0,0.0,0.0,0.0,0.0,0.0,0.0,-2.0298,-2.0046,-1.9675,-1.9216,-1.8681,-1.8017,-1.7254,-1.6433,-1.552,0.0,0.0,0.0,0.0,0.0,0.0,0.0,0.0,0.0,0.0,0.0,0.0,0.0,0.0,0.0,0.0,0.0,0.0,0.0,0.0,0.0,0.0,0.0,0.0,0.0,0.0,0.0,0.0,0.0,0.0,0.0,0.0,0.0,0.0,0.0,0.0,0.0,0.0,0.0,0.0,0.0,-1.4914,-1.4869,-1.4959,0.0,0.0,0.0,0.0,-1.4516,-1.447,0.0,0.0,0.0,0.0,0.0,0.0,0.0,0.0,0.0,0.0,0.0,0.0,0.0,0.0,0.0,0.0,0.0,0.0,0.0,0.0,0.0,0.0,0.0,0.0,0.0,0.0,0.0,0.0,0.0,0.0,0.0,0.0,0.0,0.0,0.0,0.0,0.0,0.0,0.0,0.0,0.0,0.0,0.0,0.0,0.0,0.0,0.0,0.0,0.0,0.0,0.0,0.0,0.0,0.0,0.0,0.0,-2.0302,-2.0028,-1.9656,-1.9198,-1.8681,-1.8094,-1.7382,-1.6486,-1.5534,0.0,0.0,0.0,0.0,0.0,0.0,0.0,0.0,0.0,0.0,0.0,0.0,0.0,0.0,0.0,0.0,0.0,0.0,0.0,0.0,0.0,0.0,0.0,0.0,0.0,0.0,0.0,0.0,0.0,0.0,0.0,0.0,0.0,0.0,0.0,0.0,0.0,0.0,0.0,0.0,0.0,-1.6608,-1.6549,-1.6617,-1.66,0.0,0.0,-1.6145,-1.5884,-1.582,0.0,0.0,0.0,0.0,0.0,0.0,0.0,0.0,0.0,0.0,0.0,0.0,0.0,0.0,0.0,0.0,0.0,0.0,0.0,0.0,0.0,0.0,0.0,0.0,0.0,0.0,0.0,0.0,0.0,0.0,0.0,0.0,0.0,0.0,0.0,0.0,0.0,0.0,0.0,0.0,0.0,0.0,0.0,0.0,0.0,0.0,0.0,0.0,0.0,0.0,0.0,0.0,0.0,0.0,0.0,-2.0366,-2.0294,-2.0012,-1.9638,-1.9198,-1.8681,-1.8094,-1.7422,-1.6528,-1.565,0.0,0.0,0.0,0.0,0.0,0.0,0.0,0.0,0.0,0.0,0.0,0.0,0.0,0.0,0.0,0.0,0.0,0.0,0.0,0.0,0.0,0.0,0.0,0.0,0.0,0.0,0.0,0.0,0.0,0.0,0.0,0.0,0.0,0.0,0.0,0.0,0.0,0.0,0.0,0.0,0.0,0.0,-1.7827,-1.7787,0.0,0.0,0.0,-1.7229,-1.6951,0.0,0.0,0.0,0.0,0.0,0.0,0.0,0.0,0.0,0.0,0.0,0.0,0.0,0.0,0.0,0.0,0.0,0.0,0.0,0.0,0.0,0.0,0.0,0.0,0.0,0.0,0.0,0.0,0.0,0.0,0.0,0.0,0.0,0.0,0.0,0.0,0.0,0.0,0.0,0.0,0.0,0.0,0.0,0.0,0.0,0.0,0.0,0.0,0.0,0.0,0.0,0.0,0.0,0.0,0.0,0.0,0.0,-2.0257,-1.9955,-1.9601,-1.9201,-1.8663,-1.8056,-1.7406,-1.6554,0.0,0.0,0.0,0.0,0.0,0.0,0.0,0.0,0.0,0.0,0.0,0.0,0.0,0.0,0.0,0.0,0.0,0.0,0.0,0.0,0.0,0.0,0.0,0.0,0.0,0.0,0.0,-1.3788,0.0,0.0,0.0,0.0,0.0,0.0,0.0,0.0,0.0,0.0,0.0,0.0,0.0,0.0,-1.9043,-1.8945,-1.8817,-1.8664,0.0,0.0,-1.8242,-1.8113,-1.8018,-1.7989,0.0,0.0,0.0,0.0,0.0,0.0,0.0,0.0,0.0,0.0,0.0,0.0,0.0,0.0,0.0,0.0,0.0,0.0,0.0,0.0,0.0,0.0,0.0,0.0,0.0,0.0,0.0,0.0,0.0,0.0,0.0,0.0,0.0,0.0,0.0,0.0,0.0,0.0,0.0,0.0,0.0,0.0,0.0,0.0,0.0,0.0,0.0,0.0,0.0,0.0,0.0,0.0,0.0,0.0,0.0,-2.0215,-1.9934,-1.96,-1.9191,-1.8626,-1.8017,-1.7406,-1.6554,-1.5722,0.0,0.0,0.0,0.0,0.0,0.0,0.0,0.0,0.0,0.0,0.0,0.0,0.0,0.0,0.0,0.0,0.0,0.0,0.0,0.0,0.0,0.0,0.0,0.0,0.0,0.0,0.0,0.0,0.0,0.0,0.0,0.0,0.0,0.0,0.0,0.0,0.0,0.0,0.0,0.0,0.0,-1.998,-1.9829,-1.9681,-1.9479,0.0,0.0,-1.919,-1.9569,-1.944,-1.9474,-2.0077,0.0,0.0,0.0,0.0,0.0,0.0,0.0,0.0,0.0,0.0,0.0,0.0,0.0,0.0,0.0,0.0,0.0,0.0,0.0,0.0,0.0,0.0,0.0,0.0,0.0,0.0,0.0,0.0,0.0,0.0,0.0,0.0,0.0,0.0,0.0,0.0,0.0,0.0,0.0,0.0,0.0,0.0,0.0,0.0,0.0,0.0,0.0,0.0,0.0,0.0,0.0,0.0,0.0,-2.0346,-2.0204,-1.9912,-1.9548,-1.9141,-1.859,-1.7979,-1.7351,-1.6586,-1.5779,0.0,0.0,0.0,0.0,0.0,0.0,0.0,0.0,0.0,0.0,0.0,0.0,0.0,0.0,0.0,0.0,0.0,0.0,0.0,0.0,0.0,0.0,0.0,0.0,0.0,0.0,0.0,0.0,-1.8699,-1.9686,-2.0653,0.0,0.0,0.0,0.0,0.0,0.0,0.0,0.0,0.0,0.0,-2.0614,-2.0447,-2.0308,0.0,0.0,-2.0325,-2.0429,-2.0833,-2.0761,-2.0671,-2.0848,-2.0736,0.0,0.0,0.0,0.0,0.0,0.0,0.0,0.0,0.0,0.0,0.0,0.0,0.0,0.0,0.0,0.0,0.0,0.0,0.0,0.0,0.0,0.0,0.0,0.0,0.0,0.0,0.0,0.0,0.0,0.0,0.0,0.0,0.0,0.0,0.0,0.0,0.0,0.0,0.0,0.0,0.0,0.0,0.0,0.0,0.0,0.0,0.0,0.0,0.0,0.0,0.0,0.0,-2.0313,-2.0137,-1.9839,-1.9476,-1.9077,-1.8552,-1.7967,-1.7304,-1.6586,-1.5838,0.0,0.0,0.0,0.0,0.0,0.0,0.0,0.0,0.0,0.0,0.0,0.0,0.0,0.0,0.0,0.0,0.0,0.0,0.0,0.0,0.0,0.0,0.0,0.0,0.0,0.0,0.0,0.0,-1.9973,-2.0858,-2.1635,0.0,0.0,0.0,0.0,0.0,0.0,0.0,0.0,0.0,0.0,-2.115,-2.1006,-2.0968,-2.1045,-2.125,-2.1387,-2.1622,-2.2033,-2.1964,-2.1902,-2.1969,0.0,0.0,0.0,0.0,0.0,0.0,0.0,0.0,0.0,0.0,0.0,0.0,0.0,0.0,0.0,0.0,0.0,0.0,0.0,0.0,0.0,0.0,0.0,0.0,0.0,0.0,0.0,0.0,0.0,0.0,-2.4692,0.0,0.0,0.0,0.0,0.0,0.0,0.0,0.0,0.0,0.0,0.0,0.0,0.0,0.0,0.0,0.0,0.0,0.0,0.0,0.0,0.0,0.0,-2.0276,-1.9993,-1.9734,-1.9421,-1.8996,-1.8473,-1.7915,-1.732,-1.6575,-1.5853,-1.509,0.0,0.0,0.0,0.0,0.0,0.0,0.0,0.0,0.0,0.0,0.0,0.0,0.0,0.0,0.0,0.0,0.0,0.0,0.0,0.0,0.0,0.0,0.0,0.0,0.0,0.0,-2.0455,-2.1428,-2.2102,0.0,0.0,0.0,0.0,0.0,0.0,0.0,0.0,0.0,0.0,-2.1831,-2.1603,-2.1405,-2.1778,-2.1977,-2.1768,-2.2175,-2.2714,-2.313,-2.3061,-2.3137,0.0,0.0,0.0,0.0,0.0,0.0,0.0,0.0,0.0,0.0,0.0,0.0,0.0,0.0,0.0,0.0,0.0,0.0,0.0,0.0,0.0,0.0,0.0,0.0,0.0,0.0,0.0,-2.519,-2.5103,0.0,0.0,0.0,0.0,0.0,0.0,0.0,0.0,0.0,0.0,0.0,-2.0467,-2.053,0.0,0.0,0.0,0.0,0.0,0.0,0.0,0.0,0.0,0.0,0.0,0.0,-2.0211,-1.9993,-1.9705,-1.935,-1.8927,-1.8417,-1.7854,-1.7248,-1.6591,-1.5767,-1.4658,0.0,0.0,0.0,0.0,0.0,0.0,0.0,0.0,0.0,0.0,0.0,0.0,0.0,0.0,0.0,0.0,0.0,0.0,0.0,0.0,0.0,0.0,0.0,0.0,0.0,-2.1072,0.0,0.0,0.0,0.0,0.0,0.0,0.0,0.0,0.0,0.0,0.0,-2.2415,-2.2265,-2.2089,-2.1899,-2.1694,-2.2052,-2.2456,0.0,0.0,0.0,0.0,0.0,0.0,0.0,0.0,0.0,0.0,0.0,0.0,0.0,0.0,-2.3638,-2.3363,-2.3334,-2.3421,-2.3538,0.0,0.0,0.0,0.0,0.0,0.0,0.0,0.0,0.0,0.0,0.0,0.0,0.0,0.0,-2.5313,0.0,-2.5209,0.0,0.0,0.0,0.0,0.0,0.0,0.0,0.0,-2.2872,-2.2182,-2.1367,-2.1185,-2.0816,0.0,-2.0133,-2.0079,0.0,0.0,0.0,0.0,0.0,0.0,0.0,0.0,-2.0203,-1.9993,-1.9669,-1.9291,-1.8876,-1.8358,-1.7771,-1.7175,-1.6378,-1.5463,-1.4452,-1.3881,-1.3459,0.0,0.0,0.0,0.0,0.0,0.0,0.0,0.0,0.0,0.0,0.0,0.0,0.0,0.0,0.0,0.0,0.0,0.0,0.0,0.0,0.0,0.0,0.0,-2.1977,0.0,0.0,0.0,0.0,0.0,0.0,0.0,0.0,0.0,-2.2842,-2.2738,-2.2649,-2.2497,-2.2343,-2.2231,-2.2255,0.0,0.0,0.0,0.0,0.0,0.0,0.0,-2.4645,-2.4564,-2.4441,-2.44,-2.4385,-2.4385,-2.44,-2.44,0.0,0.0,-2.3909,-2.3867,-2.3909,-2.4009,-2.4135,-2.4208,-2.4242,-2.4421,-2.4539,0.0,0.0,0.0,0.0,0.0,0.0,0.0,0.0,-2.5395,-2.536,0.0,-2.5233,0.0,0.0,0.0,0.0,0.0,-2.4837,0.0,0.0,-2.3625,-2.3172,-2.2322,-2.1633,-2.1259,-2.1195,-2.0488,-2.0229,-2.0361,-2.0314,0.0,0.0,0.0,0.0,0.0,0.0,-2.0192,-2.0001,-1.9651,-1.9265,-1.8807,-1.8258,-1.7721,-1.706,-1.5935,-1.5029,-1.4438,-1.4026,-1.362,-1.3232,-1.3163,0.0,0.0,0.0,0.0,0.0,0.0,0.0,0.0,0.0,0.0,0.0,0.0,0.0,0.0,0.0,0.0,0.0,0.0,0.0,0.0,-2.2263,0.0,0.0,0.0,0.0,0.0,0.0,0.0,0.0,0.0,0.0,-2.3098,-2.2911,-2.279,-2.2763,0.0,0.0,0.0,0.0,-2.4132,-2.4441,-2.513,-2.5448,-2.5084,-2.5005,-2.4926,-2.467,0.0,0.0,-2.4589,-2.463,-2.4645,-2.4589,-2.463,-2.4564,-2.4359,-2.44,-2.4498,-2.4498,-2.4523,-2.4589,-2.4595,-2.462,-2.463,-2.5351,0.0,0.0,0.0,0.0,-2.5511,-2.5456,-2.5401,-2.5395,-2.5388,-2.538,-2.5243,0.0,0.0,0.0,0.0,0.0,0.0,-2.4738,-2.4497,-2.4469,-2.4002,-2.321,-2.3075,-2.2691,-2.2106,-2.1365,-2.1072,-2.1124,-2.0611,-2.041,-2.05,0.0,0.0,0.0,0.0,-2.0169,-1.992,-1.96,-1.9201,-1.8753,-1.82,-1.7442,-1.6485,-1.5739,-1.5149,-1.4624,-1.4176,-1.3848,-1.3654,-1.3459,0.0,0.0,0.0,0.0,0.0,0.0,0.0,0.0,0.0,0.0,0.0,0.0,0.0,0.0,0.0,0.0,0.0,0.0,0.0,-2.2444,-2.288,-2.3168,0.0,0.0,0.0,0.0,0.0,0.0,0.0,0.0,0.0,-2.3982,-2.3403,-2.3102,0.0,0.0,-2.343,-2.395,-2.4479,-2.4811,-2.4732,-2.5204,0.0,0.0,-2.5123,-2.5029,-2.4926,-2.4886,-2.4886,-2.4886,-2.4886,-2.4886,-2.4886,-2.4886,-2.4886,-2.4806,-2.4686,-2.4605,-2.4549,-2.4645,-2.4757,-2.4764,-2.4798,-2.4886,-2.5332,-2.5397,-2.544,-2.5484,-2.5492,-2.5484,-2.5429,-2.5401,-2.5395,-2.5388,-2.537,-2.5253,-2.5212,-2.5201,-2.5118,0.0,0.0,0.0,-2.4931,-2.4917,-2.4884,-2.4592,-2.4101,-2.3852,-2.3487,-2.2985,-2.2255,-2.178,-2.1556,-2.112,-2.0763,-2.0516,0.0,0.0,-2.0386,-2.0313,-2.0129,-1.9918,-1.9553,-1.9123,-1.8681,-1.7933,-1.7101,-1.6215,-1.5667,-1.5179,-1.47,-1.4337,-1.4026,-1.3854,-1.3741,-1.3799,0.0,0.0,0.0,0.0,0.0,0.0,0.0,0.0,0.0,0.0,0.0,-1.8921,-1.9186,0.0,0.0,0.0,-2.25,-2.266,-2.3003,-2.3175,0.0,0.0,0.0,0.0,0.0,0.0,0.0,-2.3517,-2.3691,-2.3974,-2.441,-2.4163,-2.4034,-2.4378,-2.4207,-2.422,-2.4799,0.0,-2.5245,-2.5212,-2.5493,-2.5637,-2.5333,-2.524,-2.5123,-2.5005,-2.5005,-2.5005,-2.5005,-2.5005,-2.5005,-2.5005,-2.5005,-2.5005,-2.5005,-2.4886,-2.4751,-2.4751,-2.4806,-2.4862,-2.4869,-2.4918,-2.5005,-2.5322,-2.5398,-2.5395,-2.5429,-2.5484,-2.5429,-2.5401,-2.5393,-2.5397,-2.5398,-2.5389,-2.5253,-2.5212,-2.5201,-2.5132,0.0,-2.5082,-2.5037,-2.4964,-2.4898,-2.4964,-2.4964,-2.4861,-2.4227,-2.3916,-2.3883,-2.3167,-2.2459,-2.183,-2.1725,-2.1329,-2.0625,-2.0527,-2.0476,-2.0402,-2.0257,-2.0105,-1.9888,-1.9504,-1.9063,-1.8533,-1.7551,-1.6747,-1.6231,-1.5696,-1.5179,-1.4732,-1.4447,-1.4203,-1.3941,-1.396,-1.4224,-1.4809,0.0,0.0,0.0,0.0,0.0,0.0,0.0,0.0,0.0,0.0,0.0,0.0,0.0,0.0,0.0,-2.2894,0.0,-2.3119,-2.3289,0.0,0.0,0.0,-2.362,-2.3674,-2.3692,-2.3687,-2.3672,0.0,0.0,-2.4676,-2.5094,-2.537,-2.5355,-2.5016,-2.5016,-2.5609,-2.5514,-2.5512,-2.5786,-2.5881,-2.5749,-2.5371,-2.5294,-2.5178,-2.5005,-2.5005,-2.5005,-2.5005,-2.4966,-2.4966,-2.4966,-2.4966,-2.4966,-2.4966,-2.4942,-2.4966,-2.4926,-2.4966,-2.5005,-2.4966,-2.4982,-2.4966,-2.5253,-2.5322,-2.5379,-2.5406,-2.5423,-2.5415,-2.5387,-2.5388,-2.5398,-2.5351,-2.5331,-2.5252,-2.5209,-2.5203,-2.512,-2.5082,-2.5082,-2.5037,-2.4996,-2.4977,-2.4996,-2.4996,-2.4977,-2.4809,-2.4765,-2.4739,-2.4047,-2.3621,-2.3454,-2.2274,-2.164,-2.1462,-2.084,-2.0486,-2.0398,-2.0263,-2.0068,-1.9832,-1.949,-1.8893,-1.8086,-1.7392,-1.6747,-1.6203,-1.5725,-1.5239,-1.4794,-1.4525,-1.4287,-1.4151,-1.4466,-1.4807,-1.5113,-1.57,0.0,0.0,0.0,0.0,0.0,0.0,0.0,0.0,0.0,-2.0878,-2.1144,0.0,-2.2214,0.0,-2.3023,-2.3193,-2.333,-2.3407,0.0,0.0,-2.3585,-2.3835,-2.4449,-2.4503,-2.4665,-2.5113,-2.5311,-2.557,-2.6036,-2.6072,-2.6214,-2.6636,-2.609,-2.5802,-2.6286,-2.6184,-2.6025,-2.5921,-2.5807,-2.5642,-2.5355,-2.5178,-2.5045,-2.5005,-2.5005,-2.5005,-2.5005,-2.4902,-2.4862,-2.4862,-2.4766,-2.4726,-2.471,-2.467,-2.471,-2.471,-2.4846,-2.5005,-2.5005,-2.4942,-2.4838,-2.5231,-2.5264,-2.5322,-2.537,-2.5361,-2.5388,-2.5388,-2.5398,-2.5361,-2.5332,-2.5311,-2.5231,-2.5206,-2.521,-2.5126,-2.5082,-2.5101,-2.5037,-2.4991,-2.4991,-2.4991,-2.4991,-2.4985,-2.5025,-2.5095,-2.5137,-2.476,-2.4409,-2.4033,-2.2868,-2.2115,-2.1796,-2.0918,-2.0458,-2.0395,-2.0236,-2.0031,-1.9755,-1.9216,-1.857,-1.7822,-1.7288,-1.6738,-1.6191,-1.5725,-1.5269,-1.4856,-1.4606,-1.4525,-1.468,-1.4938,-1.5391,-1.6,-1.6587,-1.7278,0.0,0.0,0.0,0.0,0.0,0.0,0.0,0.0,0.0,0.0,0.0,-2.2377,-2.2893,-2.314,-2.3289,-2.3401,-2.3471,-2.3517,-2.3603,-2.3907,-2.4324,-2.4753,-2.507,-2.5354,-2.5656,-2.5906,-2.6186,-2.656,-2.6655,-2.6822,-2.7098,-2.6631,-2.6334,-2.6505,-2.6382,-2.6187,-2.5917,-2.577,-2.5546,-2.5278,-2.506,-2.4886,-2.4902,-2.4846,-2.4846,-2.4806,-2.4766,-2.4726,-2.4742,-2.463,-2.4589,-2.4589,-2.4589,-2.4589,-2.463,-2.471,-2.4815,-2.4831,-2.4775,-2.4717,-2.5195,-2.5201,-2.5271,-2.5301,-2.5292,-2.5361,-2.5389,-2.5389,-2.5341,-2.5302,-2.5301,-2.5228,-2.5214,-2.518,-2.5126,-2.5082,-2.5089,-2.5037,-2.4991,-2.4991,-2.4991,-2.5004,-2.4993,-2.507,-2.5139,-2.5203,-2.5262,-2.4956,-2.4273,-2.3409,-2.2652,-2.1954,-2.0995,-2.045,-2.0376,-2.0181,-1.9935,-1.9626,-1.8875,-1.8217,-1.771,-1.7224,-1.6712,-1.6123,-1.5711,-1.5299,-1.4902,-1.4641,-1.4759,-1.5278,-1.5387,-1.597,-1.7105,-1.752,-1.8063,0.0,-1.9213,0.0,0.0,0.0,0.0,0.0,0.0,0.0,0.0,-2.2243,-2.2623,-2.297,-2.3193,-2.3336,-2.3401,-2.3453,-2.3517,-2.3603,-2.4211,-2.4658,-2.4784,-2.5308,-2.5697,-2.5808,-2.6257,-2.6602,-2.6702,-2.6987,-2.7181,-2.7021,-2.6808,-2.659,-2.6537,-2.6345,-2.6096,-2.5914,-2.5675,-2.541,-2.5146,-2.4926,-2.4782,-2.4782,-2.4686,-2.4589,-2.4589,-2.4605,-2.4549,-2.4549,-2.4508,-2.4508,-2.4508,-2.4508,-2.4508,-2.4508,-2.4508,-2.4542,-2.461,-2.4576,-2.4539,-2.5203,-2.5214,-2.522,-2.5222,-2.5222,-2.5233,-2.5264,-2.5313,-2.5312,-2.5271,-2.5228,-2.5214,-2.518,-2.5113,-2.5114,-2.507,-2.5025,-2.5004,-2.4991,-2.4991,-2.4991,-2.5004,-2.5012,-2.507,-2.5151,-2.5206,-2.5273,-2.5302,-2.5213,-2.3725,-2.2964,-2.2812,-2.1288,-2.0441,-2.0322,0.0,0.0,0.0,-1.8699,-1.8194,-1.771,-1.7199,-1.667,-1.6123,-1.5711,0.0,-1.4932,-1.4732,-1.4915,-1.546,-1.5937,0.0,0.0,0.0,0.0,0.0,0.0,0.0,0.0,0.0,0.0,0.0,-2.1556,-2.1857,-2.2061,-2.2549,-2.2929,-2.2995,-2.3193,-2.3336,-2.3383,-2.3453,-2.3517,-2.3603,-2.3687,-2.3981,-2.4647,-2.4788,-2.5222,-2.631,-2.6507,-2.6726,-2.6957,-2.7175,-2.7068,-2.6791,-2.659,-2.6435,-2.631,-2.6134,-2.5934,-2.5675,-2.5371,-2.5123,-2.5045,-2.4791,-2.4645,-2.463,-2.463,-2.4549,-2.4523,-2.4385,-2.4302,-2.4245,-2.4135,-2.4109,-2.4109,-2.4094,-2.4094,-2.4094,-2.4094,-2.4204,-2.4471,-2.442,-2.4333,-2.5088,0.0,-2.5184,-2.5179,0.0,-2.5182,-2.5203,-2.5253,-2.5252,-2.5231,-2.5206,-2.516,-2.5125,-2.5082,-2.5063,-2.5025,-2.4993,-2.5004,-2.4991,-2.4991,-2.4991,-2.5023,-2.5057,-2.5089,-2.5144,-2.5209,-2.5273,-2.5369,-2.543,-2.4241,-2.3458,-2.3072,-2.1794,-2.086,-2.0307,-1.9945,-1.9524,-1.9044,-1.8625,-1.8166,-1.7602,-1.7134,-1.6617,-1.6052,0.0,0.0,0.0,0.0,0.0,0.0,0.0,0.0,0.0,0.0,0.0,-1.9302,-1.9581,-1.9904,-2.027,-2.0595,-2.0958,-2.1277,-2.1738,-2.2061,-2.2293,-2.2684,-2.292,-2.2995,-2.3168,-2.3265,-2.3354,-2.3407,-2.343,-2.3448,-2.3809,-2.4195,-2.4562,-2.486,-2.5244,-2.5823,-2.5904,-2.5872,-2.607,-2.6299,-2.6328,-2.6151,-2.6234,-2.6189,-2.599,-2.5881,-2.5675,-2.5371,-2.5178,-2.4942,-2.4766,-2.4605,-2.4426,-2.4369,-2.4343,-2.4317,-2.4234,-2.4177,-2.4135,-2.4051,-2.3967,-2.3882,-2.3882,-2.3839,-2.3839,-2.3797,-2.3797,-2.3809,-2.3975,-2.4063,-2.4109,-2.4966,-2.5089,-2.5151,-2.5149,-2.5091,-2.5149,-2.5171,-2.5201,0.0,0.0,0.0,-2.5118,-2.5082,-2.5088,-2.5019,-2.4993,-2.4999,-2.5004,-2.4991,-2.4991,-2.4991,-2.5018,-2.5082,-2.5082,-2.5137,-2.5212,-2.5264,-2.5369,-2.5464,-2.4699,-2.3897,-2.3099,-2.2219,-2.1247,-2.026,-1.9752,-1.9328,-1.8981,-1.8566,-1.8065,-1.7509,-1.7085,-1.6591,-1.5996,-1.5653,-1.5315,-1.5013,-1.5403,-1.5901,-1.6515,-1.7143,-1.7847,-1.8514,-1.8827,-1.9107,-1.9302,-1.9617,-1.994,-2.027,-2.0595,-2.0958,-2.134,-2.1857,-2.2248,-2.2487,-2.2659,-2.2842,-2.2952,-2.3119,-2.3217,-2.3289,-2.3336,-2.336,-2.3313,-2.3927,-2.4293,-2.4279,-2.4646,-2.4936,-2.5075,-2.4934,-2.4816,-2.4964,-2.519,-2.5341,-2.5312,-2.556,-2.5855,-2.5647,-2.5508,-2.5371,-2.5084,-2.4926,-2.4766,-2.4523,-2.4302,-2.4177,-2.4063,-2.4009,-2.3925,-2.3897,-2.3897,-2.3897,-2.3839,-2.3754,-2.3711,-2.3711,-2.361,-2.3551,-2.3523,-2.3508,-2.3508,-2.3435,-2.3638,-2.3769,-2.4964,-2.5004,-2.5044,-2.5051,-2.5076,-2.5113,-2.5149,-2.5203,-2.5206,-2.5184,-2.5125,-2.5113,-2.5076,-2.5025,-2.4993,-2.4999,-2.4991,-2.4991,-2.4991,0.0,-2.4991,-2.5018,-2.5082,-2.5082,-2.5144,-2.5192,-2.5264,-2.5369,-2.5386,-2.4705,-2.3897,-2.3079,-2.2176,-2.1127,-2.002,-1.9638,-1.9283,-1.8842,-1.8413,-1.798,-1.7526,-1.7002,-1.6485,-1.6024,-1.5624,-1.5299,-1.5013,-1.5449,-1.5969,-1.6649,-1.7267,-1.7932,-1.8703,-1.8889,-1.9107,-1.9376,-1.9654,-1.9955,-2.027,-2.061,-2.1039,-2.1603,-2.1899,-2.2158,-2.2487,-2.2632,-2.2764,-2.2902,-2.3045,-2.3168,-2.3223,-2.3271,-2.3295,-2.3301,-2.336,-2.3375,-2.3337,-2.3385,-2.3572,-2.3984,-2.4016,-2.4133,-2.4377,-2.4526,-2.4473,-2.4347,-2.4574,-2.4928,-2.5006,-2.5084,-2.506,-2.4982,-2.4645,-2.4385,-2.4261,-2.4051,-2.3867,-2.3839,-2.3754,-2.361,-2.3581,-2.3553,-2.3538,-2.3407,-2.3407,-2.3363,-2.3363,-2.3363,-2.326,-2.3172,-2.3172,-2.3127,-2.3009,-2.3068,-2.3142,-2.4832,-2.4894,-2.4931,-2.4985,-2.5031,-2.5063,-2.5088,-2.5151,-2.5144,-2.5144,-2.5082,-2.5057,-2.5038,-2.4993,-2.4999,-2.4991,-2.4991,-2.4991,-2.4991,-2.4991,-2.4991,-2.5018,-2.5082,-2.5082,-2.5144,-2.5192,-2.5264,-2.5357,-2.5446,-2.5153,-2.4361,-2.3085,-2.1639,-2.0542,-1.9918,-1.9572,-1.9172,-1.8753,-1.8356,-1.7898,-1.7455,-1.6926,-1.6448,-1.5996,-1.5595,-1.5269,-1.5013,-1.5788,-1.6382,-1.6698,-1.759,-1.8285,-1.8755,-1.895,-1.9168,-1.9376,-1.9705,-2.0025,-2.027,-2.0744,-2.1214,-2.1648,-2.1811,-2.2015,-2.2394,-2.2542,-2.2703,-2.279,-2.2902,-2.3003,-2.3052,-2.3102,-2.3126,-2.3084,-2.3095,-2.3045,-2.2952,-2.2893,-2.2902,-2.3052,-2.3038,-2.3034,-2.3119,-2.3402,-2.3483,-2.326,-2.3513,-2.3754,-2.3812,-2.3669,-2.3819,-2.4433,-2.4359,-2.4094,-2.3937,-2.3754,-2.3625,-2.3538,-2.3451,-2.3304,-2.3275,-2.3231,-2.3127,-2.3068,-2.3038,-2.2994,-2.2994,-2.2963,-2.2873,-2.2873,-2.2828,-2.2783,-2.2678,-2.2586,-2.2646,-2.4692,-2.4757,-2.4813,-2.4922,-2.4996,-2.4974,-2.5,-2.507,-2.5089,-2.5082,-2.5076,-2.5038,-2.4993,-2.4999,-2.4991,-2.4996,-2.4996,-2.4996,-2.4996,-2.4996,-2.4996,-2.5018,-2.5089,-2.5082,-2.5144,-2.5201,-2.5274,-2.5374,-2.5506,-2.5561,-2.4733,-2.3079,-2.1324,-2.0287,-1.9836,-1.9476,-1.9079,-1.8645,-1.8238,-1.7788,-1.7361,-1.6841,-1.6367,-1.5983,-1.5595,-1.5342,-1.527,-1.6174,-1.6747,-1.693,-1.7927,-1.8567,-1.8784,-1.8988,-1.9153,-1.9413,-1.9756,-2.0096,-2.0407,-2.0876,-2.1341,-2.1587,-2.1738,-2.1915,-2.2152,-2.2405,-2.2552,-2.2659,-2.2764,-2.2842,-2.2876,-2.2919,-2.2919,-2.2868,-2.2893,-2.2868,-2.2764,-2.2685,-2.2596,-2.246,-2.2304,-2.218,-2.2086,-2.2308,-2.2504,-2.2458,-2.2487,-2.2602,-2.2629,-2.2399,-2.2701,-2.3254,-2.3527,-2.3311,-2.3118,-2.2975,-2.2832,-2.279,-2.2761,-2.2702,-2.2716,-2.2714,-2.2799,-2.2754,-2.2663,-2.2618,-2.2572,-2.254,-2.2509,-2.2463,-2.2463,-2.2402,-2.2235,-2.2156,-2.217,-2.4564,-2.4631,-2.4692,-2.4783,-2.4898,-2.4902,-2.4947,-2.4993,-2.5012,-2.4993,-2.5012,-2.4993,-2.4999,-2.4991,-2.4977,-2.4964,-2.4917,-2.4977,-2.4964,-2.4917,-2.4977,-2.5004,-2.5025,-2.507,-2.5144,-2.5198,-2.5274,-2.5382,-2.5506,-2.5539,-2.4706,-2.3089,-2.1907,-2.0843,-1.9863,-1.9423,-1.8998,-1.8531,-1.7984,-1.7572,-1.7199,-1.6763,-1.6344,-1.5913,-1.5507,-1.5513,-1.5841,-1.64,-1.6944,-1.7506,-1.8138,-1.8581,-1.8798,-1.8927,-1.913,-1.9391,-1.9654,-2.0061,-2.061,-2.0974,-2.123,-2.1356,-2.1601,-2.1797,-2.1857,-2.2106,-2.2332,-2.2525,-2.2605,-2.2668,-2.2782,-2.2756,-2.2738,-2.279,-2.272,-2.2649,-2.2596,-2.2515,-2.2377,-2.2338,-2.2118,-2.1969,-2.1827,-2.1702,-2.1633,-2.1784,-2.1717,-2.1786,-2.1985,-2.1866,-2.1642,-2.1729,-2.1804,-2.1834,-2.1691,-2.1483,-2.1464,-2.1281,-2.1514,-2.1713,-2.1841,-2.2138,-2.2449,-2.2388,-2.237,-2.2263,-2.2217,-2.2217,-2.2184,-2.2091,-2.203,-2.1969,-2.1758,-2.169,-2.1779,-2.4393,-2.4428,-2.4547,-2.4657,-2.4783,-2.4813,-2.4856,-2.4865,-2.4884,-2.4884,-2.4884,-2.4884,-2.4917,-2.4931,-2.4903,-2.4856,-2.4842,-2.4889,-2.4903,-2.4898,-2.4931,-2.4991,-2.5057,-2.5089,-2.5156,-2.5261,-2.5332,-2.5387,-2.5407,-2.5059,-2.444,-2.3659,-2.2623,-2.1733,-2.1073,-2.0649,-1.9991,-1.9059,-1.8455,-1.7773,-1.6975,-1.6512,-1.6191,-1.59,-1.5477,-1.548,-1.597,-1.636,-1.6872,-1.7576,-1.8089,-1.8489,-1.8736,-1.8917,-1.9093,-1.9339,-1.9711,-2.015,-2.0527,-2.0843,-2.1071,-2.1294,-2.1433,-2.1556,-2.1738,-2.1886,-2.2032,-2.2158,-2.236,-2.2525,-2.2605,-2.2605,-2.2569,-2.2559,-2.2532,-2.246,-2.236,-2.2248,-2.2118,-2.2003,-2.1873,-2.1691,-2.1526,-2.123,-2.1069,-2.1038,-2.0879,-2.0819,-2.0801,-2.0557,-2.0309,-2.007,-2.0002,-2.0313,-2.0756,-2.0893,-2.0726,-2.0642,-2.067,-2.0809,-2.126,-2.1366,-2.1583,-2.1946,-2.1969,-2.1902,-2.1855,-2.1855,-2.1807,-2.1712,-2.1554,-2.1492,-2.1355,-2.1224,-2.1202,-2.4192,-2.4247,-2.4392,-2.4547,-2.4679,-2.4742,-2.4787,-2.4783,-2.4779,-2.4813,-2.4813,-2.4813,-2.4846,-2.4875,-2.4827,-2.4813,-2.4798,-2.4813,-2.4823,-2.487,-2.4884,-2.4959,-2.5057,-2.5082,-2.5149,-2.5262,-2.5369,-2.5439,-2.5468,-2.498,-2.4498,-2.4077,-2.3256,-2.2508,-2.1934,-2.1425,-2.0667,-1.9623,-1.8976,-1.8182,-1.7266,-1.6787,-1.6303,-1.583,-1.5563,-1.5676,-1.6161,-1.6564,-1.7074,-1.7754,-1.8096,-1.8397,-1.8634,-1.8827,-1.9031,-1.9339,-1.9747,-2.0135,-2.0426,-2.0595,-2.086,-2.1119,-2.1214,-2.134,-2.1526,-2.1648,-2.1721,-2.1827,-2.2061,-2.2248,-2.2405,-2.2388,-2.2343,-2.2304,-2.2276,-2.222,-2.2106,-2.1957,-2.184,-2.1738,-2.1573,-2.1356,-2.1119,-2.086,-2.0644,-2.0438,-2.0131,-1.9889,-1.966,-1.9479,-1.9197,-1.8917,-1.875,-1.9038,-1.9833,-1.9891,-1.9894,-1.9824,-1.9683,-2.0043,-2.0595,-2.0671,-2.0978,-2.1499,-2.1534,-2.1554,-2.1458,-2.1423,-2.1313,-2.1215,-2.1118,-2.1006,-2.0979,-2.0795,-2.066,-2.3958,-2.4037,-2.4284,-2.4465,-2.4603,-2.4679,-2.4707,-2.4723,-2.4783,-2.4813,-2.4813,-2.4821,-2.4806,-2.4821,-2.4798,-2.4817,-2.4806,-2.4798,-2.4813,-2.4808,-2.487,-2.4926,-2.4993,-2.5076,-2.5141,-2.5243,-2.5357,-2.5496,-2.5657,-2.5558,-2.5035,-2.4123,-2.373,-2.2956,-2.1946,-2.1341,-2.0653,-2.0,-1.9378,-1.8802,-1.8282,-1.7693,-1.6764,-1.5772,-1.5862,-1.6208,-1.6564,-1.7074,-1.7598,-1.812,-1.8226,-1.8358,-1.8517,-1.8634,-1.8903,-1.9339,-1.966,-1.9945,-2.027,-2.0426,-2.0595,-2.0811,-2.099,-2.1135,-2.123,-2.134,-2.1464,-2.162,-2.1694,-2.1857,-2.2089,-2.2073,-2.2027,-2.1998,-2.1969,-2.1899,-2.1811,-2.1678,-2.162,-2.1542,-2.1294,-2.0958,-2.0613,-2.0494,-2.0289,-2.0045,-1.9711,-1.9493,-1.931,-1.9011,-1.876,-1.8542,-1.8386,-1.8296,-1.843,-1.8615,-1.8465,-1.8426,-1.8753,-1.9092,-1.9578,-2.0075,-2.0563,-2.1014,-2.1051,-2.1082,-2.1033,-2.0934,-2.0822,-2.0723,-2.0623,-2.056,-2.0534,-2.0459,-2.0321,-2.3728,-2.3937,-2.4133,-2.434,-2.452,-2.4566,-2.4631,-2.4714,-2.4772,-2.4821,-2.4802,-2.4817,-2.4817,-2.4817,-2.4813,-2.4817,-2.4806,-2.4817,-2.4827,-2.487,-2.495,-2.4999,-2.5057,-2.5149,-2.522,-2.5322,-2.5426,-2.5513,-2.5605,-2.5548,-2.5286,-2.4784,-2.4359,-2.3766,-2.3009,-2.2367,-2.1556,-2.0552,-1.9819,-1.8998,-1.8144,-1.7522,-1.6924,-1.6317,-1.6355,-1.6642,-1.7079,-1.718,-1.749,-1.8161,-1.8175,-1.8161,-1.8307,-1.8503,-1.8798,-1.9176,-1.9457,-1.9732,-1.996,-2.0135,-2.0342,-2.0579,-2.0662,-2.0794,-2.0941,-2.1023,-2.1151,-2.1246,-2.1325,-2.1464,-2.1617,-2.1751,-2.184,-2.1768,-2.1708,-2.1648,-2.1495,-2.134,-2.1294,-2.1214,-2.0958,-2.0595,-2.0304,-2.0166,-2.0025,-1.9669,-1.9398,-1.9199,-1.8974,-1.8669,-1.8372,-1.8175,-1.7922,-1.7733,-1.772,-1.7788,-1.7747,-1.7665,-1.7862,-1.8362,-1.8861,-1.9284,-1.9753,-2.0598,-2.0709,-2.0673,-2.0623,-2.0422,-2.0321,-2.022,-2.0169,-2.0042,-2.0029,-1.9952,-1.9823,-2.3504,-2.3828,-2.3974,-2.4208,-2.4468,-2.4517,-2.4596,-2.4714,-2.4806,-2.4817,-2.4832,-2.4823,-2.4851,-2.4851,-2.4865,-2.4865,-2.4889,-2.4856,-2.4865,-2.494,-2.4985,-2.5063,-2.5153,-2.522,-2.5303,-2.5434,-2.5496,-2.5542,-2.5558,-2.5469,-2.5266,-2.4989,-2.4569,-2.4063,-2.3476,-2.2813,-2.1898,-2.0907,-2.0099,-1.9201,-1.8339,-1.7766,-1.7355,-1.7079,-1.6932,-1.6978,-1.7253,-1.7254,-1.7487,-1.7881,-1.7935,-1.7975,-1.8135,-1.8358,-1.8616,-1.8936,-1.9213,-1.942,-1.9624,-1.9818,-2.0045,-2.0289,-2.0357,-2.0441,-2.0628,-2.0712,-2.0778,-2.086,-2.0925,-2.1006,-2.1055,-2.1261,-2.1402,-2.1419,-2.1419,-2.1325,-2.1167,-2.099,-2.0876,-2.0711,-2.0494,-2.0185,-1.9884,-1.9812,-1.9632,-1.925,-1.9011,-1.8822,-1.8606,-1.8254,-1.7935,-1.7828,-1.7529,-1.7323,-1.7253,-1.7199,-1.7227,-1.7183,-1.7457,-1.7878,-1.8306,-1.8668,-1.9197,-2.001,-2.0308,-2.0258,-2.0118,-1.9926,-1.9823,-1.9772,-1.9668,-1.954,-1.9488,-1.95,-1.9356,-2.33,-2.3674,-2.3847,-2.4092,-2.4395,-2.4534,-2.4647,-2.4723,-2.4861,-2.4912,-2.4907,-2.4921,-2.4955,-2.4987,-2.5025,-2.5038,-2.505,-2.4987,-2.4974,-2.5006,-2.5019,-2.5103,-2.5273,-2.5303,-2.5376,-2.551,-2.557,-2.5559,-2.5457,-2.529,-2.505,-2.4723,-2.4223,-2.365,-2.3093,-2.2272,-2.1576,-2.0847,-2.0085,-1.9447,-1.9058,-1.8398,-1.7942,-1.7639,-1.7464,-1.721,-1.6925,-1.7384,-1.7571,-1.7516,-1.7625,-1.7788,-1.7962,-1.8201,-1.8397,-1.8592,-1.8865,-1.9093,-1.9354,-1.9501,-1.9705,-1.9919,-1.999,-2.0061,-2.0235,-2.0308,-2.0376,-2.041,-2.046,-2.0494,-2.0527,-2.0545,-2.0679,-2.1023,-2.0974,-2.0861,-2.0794,-2.0628,-2.0392,-2.0131,-1.999,-1.9812,-1.9523,-1.9376,-1.9228,-1.8874,-1.8592,-1.8397,-1.8175,-1.7814,-1.7557,-1.7434,-1.7157,-1.6876,-1.6735,-1.665,-1.6693,-1.6799,-1.7168,-1.76,-1.8059,-1.8453,-1.892,-1.961,-1.9798,-1.9747,-1.9656,-1.9512,-1.9356,-1.9251,-1.9146,-1.9028,-1.8934,-1.8934,-1.8881,-2.2816,-2.3353,-2.3616,-2.3935,-2.4321,-2.4513,-2.4689,-2.4823,-2.498,-2.5019,-2.5049,-2.5096,-2.513,-2.5201,-2.5194,-2.5225,-2.5245,-2.5245,-2.5205,-2.5171,-2.5184,-2.5265,-2.5365,-2.5413,-2.5469,-2.5554,-2.5541,-2.5453,-2.527,-2.5032,-2.4699,-2.4221,-2.3658,-2.3035,-2.239,-2.1573,-2.0863,-2.0283,-1.9579,-1.8983,-1.8553,-1.8028,-1.7639,-1.7352,-1.7102,-1.686,-1.6773,-1.7149,-1.7323,-1.7282,-1.7323,-1.7447,-1.7625,-1.7882,-1.8109,-1.8307,-1.8542,-1.8736,-1.895,-1.9064,-1.9213,-1.942,-1.9545,-1.9617,-1.9747,-1.9854,-1.9909,-1.998,-2.0015,-2.0065,-2.0115,-2.0065,-2.0189,-2.0563,-2.0579,-2.0462,-2.0308,-2.012,-1.9889,-1.9669,-1.9596,-1.9398,-1.9101,-1.895,-1.8721,-1.8411,-1.8121,-1.7882,-1.7679,-1.7352,-1.7115,-1.7031,-1.6705,-1.6405,-1.6306,-1.62,-1.6181,-1.6448,-1.6871,-1.7223,-1.771,-1.8252,-1.8753,-1.8983,-1.9165,-1.9186,-1.9146,-1.904,-1.8881,-1.8786,-1.8679,-1.8572,-1.8398,-1.8344,-1.829,-2.2243,-2.3015,-2.3353,-2.384,-2.4394,-2.4607,-2.4823,-2.5024,-2.5152,-2.5206,-2.5216,-2.5262,-2.5316,-2.536,-2.5383,-2.5367,-2.5395,-2.5434,-2.5383,-2.5316,-2.5348,-2.5401,-2.5457,-2.5486,-2.5487,-2.5459,-2.5376,-2.5186,-2.4919,-2.4601,-2.4184,-2.3565,-2.2965,-2.2295,-2.1569,-2.0783,-2.0081,-1.9498,-1.8826,-1.8238,-1.7814,-1.738,-1.7005,-1.6765,-1.6497,-1.6367,-1.6392,-1.6565,-1.6723,-1.6905,-1.7031,-1.7157,-1.7282,-1.7488,-1.7747,-1.7949,-1.8109,-1.8293,-1.8567,-1.863,-1.8784,-1.8959,-1.9049,-1.9139,-1.9236,-1.9332,-1.9369,-1.9427,-1.9427,-1.9427,-1.9493,-1.9493,-1.9551,-1.9767,-1.9945,-1.996,-1.9767,-1.9624,-1.9457,-1.925,-1.9087,-1.8912,-1.8644,-1.8397,-1.8201,-1.7975,-1.7639,-1.7393,-1.7227,-1.6905,-1.6735,-1.6534,-1.6219,-1.6013,-1.5925,-1.5784,-1.5676,-1.6059,-1.6551,-1.6916,-1.7315,-1.7993,-1.8572,-1.8525,-1.8655,-1.8667,-1.8625,-1.8506,-1.8398,-1.8302,-1.8193,-1.8073,-1.7909,-1.7799,-1.7744,-2.1491,-2.2624,-2.3111,-2.3787,-2.4568,-2.4823,-2.5031,-2.5216,-2.5333,-2.5363,-2.5369,-2.5379,-2.5425,-2.5483,-2.5477,-2.5473,-2.547,-2.5469,-2.5443,-2.544,-2.5442,-2.5437,-2.5503,-2.5453,-2.5338,-2.5212,-2.5005,-2.4759,-2.4373,-2.3952,-2.3482,-2.2768,-2.2075,-2.1414,-2.0606,-1.9893,-1.9156,-1.8584,-1.7961,-1.7366,-1.6951,-1.6625,-1.6293,-1.5944,-1.58,-1.5712,-1.5724,-1.5668,-1.5901,-1.6392,-1.6705,-1.6778,-1.6876,-1.7044,-1.7227,-1.7434,-1.7598,-1.7801,-1.8095,-1.8161,-1.8319,-1.8475,-1.8539,-1.8592,-1.8693,-1.8784,-1.8822,-1.8822,-1.8822,-1.8784,-1.8822,-1.8784,-1.8769,-1.8808,-1.9184,-1.9332,-1.9207,-1.9087,-1.895,-1.8745,-1.8592,-1.8358,-1.8149,-1.7882,-1.7679,-1.7434,-1.7131,-1.6934,-1.6778,-1.6479,-1.6244,-1.6013,-1.578,-1.5558,-1.5424,-1.5522,-1.5406,-1.5659,-1.6244,-1.6723,-1.7062,-1.7705,-1.8078,-1.8093,-1.8073,-1.803,-1.803,-1.7963,-1.7897,-1.7788,-1.7678,-1.7512,-1.7357,-1.7245,-1.7145,-2.0235,-2.1599,-2.2674,-2.369,-2.4524,-2.496,-2.5209,-2.5351,-2.5375,-2.5369,-2.54,-2.5444,-2.5448,-2.5508,-2.5448,-2.5424,-2.5396,-2.5359,-2.5329,-2.526,-2.5221,-2.5226,-2.5274,-2.5175,-2.5005,-2.4751,-2.4421,-2.4094,-2.3608,-2.3084,-2.2478,-2.1787,-2.1047,-2.0377,-1.9652,-1.8777,-1.8076,-1.7545,-1.6967,-1.6429,-1.6027,-1.5744,-1.5478,-1.522,-1.5073,-1.4983,-1.4983,-1.4937,-1.5266,-1.5913,-1.6132,-1.6262,-1.6405,-1.6577,-1.6778,-1.6989,-1.7131,-1.7284,-1.7516,-1.7598,-1.7666,-1.7787,-1.7948,-1.8042,-1.8068,-1.8254,-1.8333,-1.8347,-1.8361,-1.8347,-1.8333,-1.824,-1.8147,-1.8068,-1.8408,-1.8679,-1.8655,-1.8528,-1.8347,-1.8121,-1.8042,-1.7801,-1.7557,-1.7297,-1.7089,-1.685,-1.6595,-1.6349,-1.6219,-1.5944,-1.5647,-1.5558,-1.5367,-1.5096,-1.5017,-1.5135,-1.5263,-1.5355,-1.5914,-1.6672,-1.6965,-1.7436,-1.7577,-1.7545,-1.7468,-1.7412,-1.7468,-1.7412,-1.7346,-1.729,-1.7123,-1.6965,-1.6797,-1.6694,-1.6581,-1.854,-2.0453,-2.2118,-2.3508,-2.4568,-2.4994,-2.5208,-2.5254,-2.524,-2.5213,-2.5208,-2.523,-2.5236,-2.5254,-2.5207,-2.5182,-2.5142,-2.5054,-2.4937,-2.4779,-2.4569,-2.4605,-2.4755,-2.4688,-2.4402,-2.4036,-2.3634,-2.3151,-2.2586,-2.1997,-2.1332,-2.0607,-1.9821,-1.9141,-1.8422,-1.7666,-1.6957,-1.6434,-1.5952,-1.5466,-1.5005,-1.4835,-1.4617,-1.4398,-1.4247,-1.4201,-1.4201,-1.4305,-1.4674,-1.5277,-1.5546,-1.5691,-1.5836,-1.6001,-1.6207,-1.6423,-1.6539,-1.6667,-1.6879,-1.6976,-1.706,-1.7186,-1.7352,-1.7393,-1.7434,-1.7584,-1.7666,-1.7611,-1.7652,-1.7652,-1.7666,-1.757,-1.7475,-1.7338,-1.7489,-1.7774,-1.8042,-1.7882,-1.7733,-1.7557,-1.7352,-1.7186,-1.6892,-1.671,-1.6471,-1.6244,-1.6051,-1.5856,-1.5647,-1.5379,-1.5176,-1.5074,-1.4982,-1.4738,-1.4748,-1.486,-1.5207,-1.5327,-1.5668,-1.6418,-1.6754,-1.7038,-1.7025,-1.6976,-1.6909,-1.6786,-1.6842,-1.6853,-1.6797,-1.674,-1.6581,-1.6457,-1.6285,-1.6114,-1.6066,-1.638,-1.8935,-2.1324,-2.3243,-2.4503,-2.4863,-2.4888,-2.4923,-2.4827,-2.4793,-2.4744,-2.4752,-2.473,-2.4785,-2.4683,-2.4712,-2.4632,-2.4468,-2.4272,-2.3996,-2.3695,-2.362,-2.3855,-2.3842,-2.3499,-2.3053,-2.2611,-2.1997,-2.1345,-2.0687,-1.998,-1.9256,-1.8484,-1.7812,-1.7137,-1.6451,-1.5828,-1.5276,-1.488,-1.4411,-1.3993,-1.3815,-1.3627,-1.3409,-1.3362,-1.3304,-1.3409,-1.3573,-1.3941,-1.4617,-1.4858,-1.5062,-1.521,-1.5379,-1.5546,-1.5712,-1.5844,-1.5976,-1.6182,-1.6337,-1.6423,-1.6539,-1.665,-1.6748,-1.6748,-1.6791,-1.682,-1.6808,-1.6778,-1.6778,-1.6778,-1.6748,-1.6693,-1.6582,-1.6454,-1.6667,-1.706,-1.7157,-1.7086,-1.7031,-1.6637,-1.6466,-1.6306,-1.612,-1.5832,-1.5632,-1.5433,-1.5277,-1.5062,-1.4834,-1.4704,-1.4675,-1.4588,-1.4414,-1.4486,-1.4641,-1.5038,-1.5365,-1.5684,-1.6156,-1.6346,-1.6528,-1.6539,-1.6457,-1.6343,-1.6218,-1.6218,-1.6228,-1.6228,-1.6171,-1.6056,-1.5941,-1.5826,-1.5594,-1.5478,-1.305,-1.584,-1.9773,-2.2472,-2.3988,-2.4098,-2.403,-2.3959,-2.3974,-2.3915,-2.394,-2.394,-2.3979,-2.4001,-2.3894,-2.3878,-2.3787,-2.3595,-2.3386,-2.2934,-2.2544,-2.2211,-2.228,-2.2442,-2.24,-2.187,-2.1282,-2.0639,-1.9962,-1.9263,-1.8569,-1.785,-1.7139,-1.6524,-1.5947,-1.5241,-1.4619,-1.4133,-1.3768,-1.3294,-1.289,-1.2754,-1.2618,-1.2384,-1.2393,-1.2452,-1.2501,-1.2657,-1.289,-1.3246,-1.3862,-1.4305,-1.4547,-1.4697,-1.4869,-1.504,-1.5187,-1.5367,-1.549,-1.5623,-1.5736,-1.5768,-1.58,-1.5844,-1.5901,-1.5988,-1.602,-1.6008,-1.602,-1.5976,-1.5901,-1.5856,-1.5812,-1.5768,-1.5623,-1.5611,-1.58,-1.6163,-1.6306,-1.6151,-1.602,-1.5844,-1.5603,-1.5412,-1.522,-1.4983,-1.4834,-1.4662,-1.4507,-1.4359,-1.4355,-1.4433,-1.4387,-1.4274,-1.446,-1.4596,-1.4865,-1.511,-1.5397,-1.5584,-1.5778,-1.5846,-1.5826,-1.5768,-1.572,-1.5652,-1.5584,-1.5584,-1.5584,-1.5536,-1.5478,-1.5362,-1.5245,-1.5069,-1.4893,-0.6272,-1.0391,-1.4378,-1.8208,-2.141,-2.21,-2.2357,-2.2447,-2.2592,-2.2652,-2.2723,-2.2782,-2.284,-2.2893,-2.2841,-2.2746,-2.2593,-2.2358,-2.2031,-2.1611,-2.1201,-2.0751,-2.0348,-2.048,-2.0448,-2.0349,-1.9897,-1.9205,-1.8442,-1.7757,-1.7044,-1.6358,-1.5692,-1.5128,-1.4619,-1.3982,-1.3406,-1.2986,-1.2618,-1.2236,-1.1891,-1.1683,-1.1525,-1.1342,-1.1401,-1.146,-1.1551,-1.1769,-1.1859,-1.2089,-1.2618,-1.3256,-1.3695,-1.3952,-1.4129,-1.4258,-1.4408,-1.4547,-1.4674,-1.4801,-1.4858,-1.4915,-1.4949,-1.4983,-1.4983,-1.5073,-1.5073,-1.5119,-1.5073,-1.5073,-1.4994,-1.4994,-1.4949,-1.4915,-1.4812,-1.4766,-1.4801,-1.522,-1.5546,-1.54,-1.5311,-1.5153,-1.4926,-1.4821,-1.4777,-1.4649,-1.4537,-1.4397,-1.4501,-1.4358,-1.4226,-1.4215,-1.4245,-1.428,-1.4385,-1.4559,-1.4678,-1.482,-1.4847,-1.5001,-1.5059,-1.5069,-1.5069,-1.5069,-1.5128,-1.501,-1.5001,-1.5001,-1.5001,-1.4942,-1.4893,-1.4775,-1.4647,-1.4519,-1.4359,0.1049,-0.4289,-0.8223,-1.3127,-1.792,-1.9406,-2.0111,-2.0481,-2.0798,-2.1013,-2.1233,-2.1371,-2.1454,-2.1566,-2.1524,-2.144,-2.1185,-2.0893,-2.0606,-2.0229,-1.9821,-1.9343,-1.8869,-1.8503,-1.8347,-1.8817,-1.8365,-1.7705,-1.6933,-1.62,-1.558,-1.4914,-1.4228,-1.3726,-1.3273,-1.2696,-1.215,-1.1814,-1.1525,-1.1191,-1.0846,-1.0643,-1.0431,-1.0218,-1.0336,-1.0438,-1.0541,-1.0753,-1.0905,-1.0947,-1.12,-1.1792,-1.2374,-1.3016,-1.3228,-1.3372,-1.3515,-1.3647,-1.3779,-1.392,-1.3978,-1.3978,-1.4014,-1.4061,-1.405,-1.405,-1.4061,-1.405,-1.405,-1.405,-1.4061,-1.4061,-1.4014,-1.3967,-1.3978,-1.3905,-1.3968,-1.4356,-1.4518,-1.4697,-1.4644,-1.4566,-1.4445,-1.4329,-1.4307,-1.4305,-1.4185,-1.4143,-1.4243,-1.4241,-1.4072,-1.4063,-1.4048,-1.4086,-1.4261,-1.4096,-1.43,-1.4296,-1.435,-1.435,-1.4291,-1.4172,-1.424,-1.4538,-1.4597,-1.4419,-1.435,-1.435,-1.435,-1.435,-1.4291,-1.4222,-1.4103,-1.3974,-1.3838,0.4757,0.0338,-0.5627,-1.0664,-1.455,-1.6251,-1.7376,-1.8118,-1.8673,-1.915,-1.9506,-1.976,-2.0014,-2.0146,-2.0061,-1.9856,-1.9647,-1.943,-1.9192,-1.8809,-1.8422,-1.797,-1.7464,-1.6905,-1.6541,-1.623,-1.6261,-1.6102,-1.5504,-1.4812,-1.4171,-1.3548,-1.2976,-1.2502,-1.2052,-1.1566,-1.1057,-1.0712,-1.0415,-1.0072,-0.9762,-0.9562,-0.9354,-0.9131,-0.9302,-0.9406,-0.951,-0.9718,-0.9873,-0.9865,-1.0115,-1.032,-1.0712,-1.1575,-1.2138,-1.2393,-1.253,-1.2667,-1.2803,-1.2957,-1.3006,-1.3054,-1.3054,-1.3054,-1.3054,-1.3044,-1.3054,-1.3054,-1.3054,-1.3054,-1.3044,-1.3152,-1.3074,-1.3025,-1.3066,-1.3067,-1.3322,-1.338,-1.3531,-1.3772,-1.3906,-1.407,-1.3982,-1.3983,-1.4019,-1.3988,-1.3845,-1.3834,-1.3847,-1.3849,-1.3691,-1.3775,-1.381,-1.3896,-1.4037,-1.374,-1.3674,-1.3666,-1.3692,-1.3692,-1.3571,-1.3338,-1.3407,-1.37,-1.3821,-1.3761,-1.3692,-1.3692,-1.3692,-1.3692,-1.3623,-1.3623,-1.3485,-1.3364,-1.3317,1.0344,0.5316,-0.0125,-0.5582,-1.0445,-1.2905,-1.4534,-1.5703,-1.6545,-1.7223,-1.7702,-1.811,-1.8446,-1.8622,-1.8636,-1.846,-1.8282,-1.7984,-1.7746,-1.7383,-1.7014,-1.6566,-1.6083,-1.5596,-1.505,-1.4596,-1.4448,-1.4402,-1.41,-1.349,-1.2841,-1.2335,-1.1742,-1.1275,-1.0922,-1.0466,-1.0005,-0.9695,-0.9347,-0.904,-0.8718,-0.8455,-0.8243,-0.8137,-0.819,-0.8296,-0.8349,-0.856,-0.8712,-0.8771,-0.8988,-0.9145,-0.9392,-0.985,-1.0669,-1.1183,-1.1484,-1.1625,-1.1774,-1.1873,-1.1981,-1.1981,-1.1981,-1.199,-1.199,-1.199,-1.2039,-1.2098,-1.2147,-1.2147,-1.2246,-1.2382,-1.2503,-1.2508,-1.2558,-1.2709,-1.283,-1.2734,-1.2837,-1.3053,-1.3399,-1.3638,-1.3628,-1.3666,-1.3704,-1.3626,-1.3552,-1.3494,-1.3498,-1.342,-1.3371,-1.342,-1.3503,-1.3431,-1.3468,-1.3243,-1.3086,-1.3025,-1.3025,-1.3025,-1.2911,-1.2736,-1.2674,-1.2797,-1.285,-1.2911,-1.2972,-1.2972,-1.2972,-1.2964,-1.2964,-1.2956,-1.287,-1.2842,-1.2765,1.4597,0.9108,0.4587,-0.1006,-0.6684,-0.983,-1.1946,-1.345,-1.4586,-1.5457,-1.6071,-1.6536,-1.6915,-1.7164,-1.7205,-1.7136,-1.697,-1.6604,-1.6336,-1.6022,-1.5672,-1.5196,-1.471,-1.4261,-1.3831,-1.3301,-1.2735,-1.2521,-1.2754,-1.2316,-1.1692,-1.1191,-1.0592,-1.0131,-0.9814,-0.934,-0.8981,-0.8613,-0.8302,-0.7984,-0.7652,-0.7385,-0.7122,-0.7015,-0.7122,-0.7171,-0.7171,-0.7385,-0.7545,-0.7658,-0.7818,-0.7984,-0.8096,-0.8302,-0.8862,-0.974,-1.0218,-1.0533,-1.0677,-1.083,-1.088,-1.088,-1.0889,-1.0897,-1.0939,-1.0981,-1.104,-1.1158,-1.1277,-1.1362,-1.1482,-1.173,-1.191,-1.1933,-1.2121,-1.2334,-1.2338,-1.2285,-1.2255,-1.2543,-1.2979,-1.3119,-1.3037,-1.3289,-1.3323,-1.3327,-1.3182,-1.3167,-1.3093,-1.3109,-1.3083,-1.3134,-1.3141,-1.2951,-1.2895,-1.2712,-1.2544,-1.2421,-1.2359,-1.2359,-1.2297,-1.2182,-1.2127,-1.2073,-1.2058,-1.2112,-1.2243,-1.2313,-1.2359,-1.2359,-1.2297,-1.2351,-1.2397,-1.2438,-1.2409,1.4197,0.975,0.487,0.021,-0.4204,-0.7565,-0.9906,-1.1644,-1.2926,-1.3856,-1.4631,-1.5118,-1.562,-1.5928,-1.6015,-1.5852,-1.5599,-1.5353,-1.5084,-1.4755,-1.4389,-1.3982,-1.3521,-1.3044,-1.2638,-1.2159,-1.1525,-1.1543,-1.1584,-1.1183,-1.0685,-1.0174,-0.9666,-0.9197,-0.8823,-0.829,-0.7865,-0.7557,-0.723,-0.6804,-0.6372,-0.6095,-0.5937,-0.5882,-0.5932,-0.6041,-0.6041,-0.6253,-0.6421,-0.6421,-0.6524,-0.6686,-0.6799,-0.702,-0.7182,-0.7818,-0.8567,-0.9413,-0.9555,-0.971,-0.9762,-0.9762,-0.9814,-0.9865,-0.9976,-1.011,-1.0177,-1.019,-1.0453,-1.0639,-1.0755,-1.0909,-1.1056,-1.1133,-1.1339,-1.1526,-1.1577,-1.1713,-1.174,-1.1773,-1.2174,-1.2279,-1.2347,-1.2703,-1.2978,-1.2899,-1.2862,-1.2749,-1.2696,-1.2658,-1.2666,-1.2605,-1.2597,-1.2482,-1.2351,-1.2112,-1.1988,-1.1872,-1.1809,-1.1747,-1.1622,-1.1567,-1.1534,-1.1471,-1.1409,-1.1481,-1.1631,-1.1743,-1.1681,-1.1788,-1.1858,-1.1951,-1.2042,-1.2041,-1.2043,1.0416,0.8276,0.3932,0.0054,-0.3444,-0.6338,-0.86,-1.0265,-1.163,-1.2628,-1.3348,-1.3993,-1.4479,-1.4846,-1.4846,-1.4698,-1.4525,-1.4236,-1.3852,-1.3558,-1.3178,-1.2803,-1.2374,-1.1972,-1.1566,-1.1015,-1.0525,-1.0064,-1.0115,-0.9969,-0.9673,-0.919,-0.8672,-0.8196,-0.7818,-0.7331,-0.6907,-0.6534,-0.6041,-0.5609,-0.5277,-0.5003,-0.4842,-0.4787,-0.4838,-0.4889,-0.4948,-0.5117,-0.5226,-0.5281,-0.5441,-0.555,-0.5714,-0.5878,-0.6095,-0.6322,-0.6853,-0.754,-0.8178,-0.8508,-0.8613,-0.8672,-0.8718,-0.8823,-0.9022,-0.9259,-0.9402,-0.9402,-0.9743,-0.996,-1.0087,-1.0444,-1.0624,-1.071,-1.0723,-1.0919,-1.1063,-1.1067,-1.1145,-1.1238,-1.1288,-1.1399,-1.154,-1.1821,-1.212,-1.2197,-1.2151,-1.2097,-1.2042,-1.1988,-1.1996,-1.1988,-1.1926,-1.1864,-1.174,-1.1615,-1.1428,-1.131,-1.1178,-1.1122,-1.1059,-1.094,-1.0903,-1.0941,-1.0958,-1.1019,-1.1159,-1.1255,-1.1381,-1.1465,-1.1511,-1.1625,-1.1696,-1.1636,-1.1675,0.6458,0.522,0.2155,-0.0765,-0.352,-0.5936,-0.7941,-0.9533,-1.0762,-1.1715,-1.2453,-1.316,-1.361,-1.3752,-1.3732,-1.3674,-1.3494,-1.3074,-1.2774,-1.2423,-1.208,-1.1674,-1.1275,-1.0922,-1.0458,-1.0005,-0.9392,-0.8974,-0.8613,-0.8455,-0.8349,-0.8249,-0.7658,-0.7235,-0.6853,-0.6357,-0.5873,-0.5332,-0.4783,-0.4398,-0.4174,-0.3956,-0.379,-0.3793,-0.3793,-0.379,-0.379,-0.3956,-0.4015,-0.4125,-0.4291,-0.4398,-0.4567,-0.4728,-0.4948,-0.5117,-0.5437,-0.5873,-0.6573,-0.7111,-0.7385,-0.7628,-0.78,-0.8069,-0.8196,-0.8497,-0.872,-0.8708,-0.9073,-0.9265,-0.9466,-0.9853,-1.0045,-1.0206,-1.0354,-1.053,-1.0598,-1.0494,-1.0412,-1.0382,-1.0408,-1.0351,-1.0607,-1.0885,-1.117,-1.1428,-1.1435,-1.138,-1.138,-1.1373,-1.1373,-1.1373,-1.1303,-1.1303,-1.1178,-1.1052,-1.087,-1.0771,-1.0645,-1.0578,-1.0566,-1.0497,-1.051,-1.0482,-1.0543,-1.0689,-1.0878,-1.104,-1.1136,-1.1189,-1.1209,-1.1276,-1.1276,-1.1246,-1.1407,0.3379,0.0219,-0.0439,-0.209,-0.4306,-0.6382,-0.8013,-0.9354,-1.0446,-1.1309,-1.2058,-1.2638,-1.2939,-1.2852,-1.2822,-1.2667,-1.2344,-1.2116,-1.181,-1.146,-1.1006,-1.0635,-1.0226,-0.9806,-0.934,-0.8869,-0.8343,-0.7812,-0.7391,-0.695,-0.7063,-0.723,-0.6686,-0.6253,-0.5819,-0.5324,-0.478,-0.4236,-0.3683,-0.3294,-0.307,-0.285,-0.2629,-0.2631,-0.2631,-0.2633,-0.2631,-0.2852,-0.2961,-0.3072,-0.3125,-0.3294,-0.3463,-0.3683,-0.3846,-0.4012,-0.4233,-0.457,-0.5033,-0.5837,-0.6327,-0.6658,-0.6996,-0.7351,-0.7475,-0.7734,-0.7913,-0.8139,-0.8408,-0.865,-0.8809,-0.9062,-0.9346,-0.9439,-0.9591,-0.9679,-0.9709,-0.9709,-0.9633,-0.9576,-0.9646,-0.9716,-0.9716,-1.0098,-1.0415,-1.0674,-1.087,-1.0807,-1.0751,-1.0751,-1.0744,-1.0744,-1.0681,-1.0681,-1.0618,-1.0498,-1.0391,-1.0264,-1.0168,-1.0158,-1.0151,-1.014,-1.0129,-1.0164,-1.0309,-1.0466,-1.0586,-1.0713,-1.0766,-1.0817,-1.0861,-1.0924,-1.1096,-1.1158,-1.1263,-0.0055,-0.2314,-0.3301,-0.4293,-0.5303,-0.6773,-0.8131,-0.9256,-1.019,-1.1116,-1.1877,-1.2215,-1.2264,-1.2215,-1.2008,-1.185,-1.156,-1.1167,-1.0854,-1.049,-1.0079,-0.9666,-0.919,-0.8771,-0.8302,-0.7818,-0.7278,-0.6794,-0.6367,-0.5819,-0.5496,-0.5496,-0.5492,-0.5218,-0.4783,-0.4229,-0.368,-0.3408,-0.2965,-0.2573,-0.235,-0.1845,-0.151,-0.151,-0.179,-0.1846,-0.1903,-0.2073,-0.2128,-0.2184,-0.2238,-0.235,-0.2465,-0.2687,-0.2858,-0.3084,-0.3251,-0.3455,-0.3829,-0.4692,-0.5436,-0.5871,-0.6249,-0.6488,-0.6665,-0.7024,-0.7176,-0.7454,-0.7772,-0.8006,-0.8106,-0.8361,-0.8603,-0.8683,-0.8753,-0.8818,-0.8947,-0.8947,-0.9011,-0.9075,-0.9139,-0.921,-0.921,-0.9274,-0.9658,-0.9983,-1.011,-1.0238,-1.018,-1.018,-1.0174,-1.0174,-1.011,-1.0155,-1.0162,-0.9976,-0.9854,-0.9823,-0.9784,-0.9746,-0.9769,-0.9822,-0.9835,-0.9938,-0.9944,-1.013,-1.021,-1.0391,-1.0495,-1.0701,-1.0665,-1.0682,-1.0795,-1.0935,-1.1057,-0.287,-0.4368,-0.5692,-0.618,-0.6176,-0.7374,-0.8396,-0.9295,-1.0138,-1.0913,-1.1728,-1.1769,-1.1728,-1.1578,-1.1377,-1.1057,-1.0753,-1.0285,-0.9925,-0.9562,-0.919,-0.8725,-0.8249,-0.7771,-0.7283,-0.6799,-0.6308,-0.5823,-0.5391,-0.4846,-0.4512,-0.4291,-0.4128,-0.3959,-0.379,-0.3125,-0.2685,-0.2462,-0.2071,-0.168,-0.1456,-0.0951,-0.0559,-0.0559,-0.0783,-0.0896,-0.0952,-0.1064,-0.1177,-0.1289,-0.14,-0.1456,-0.1629,-0.1805,-0.2043,-0.2221,-0.2409,-0.2619,-0.3051,-0.3807,-0.4579,-0.5045,-0.5566,-0.5762,-0.5936,-0.6237,-0.6392,-0.6672,-0.7053,-0.733,-0.7367,-0.7642,-0.7847,-0.7912,-0.8182,-0.8312,-0.8376,-0.8436,-0.8501,-0.8565,-0.8635,-0.87,-0.8705,-0.8711,-0.9121,-0.9432,-0.9536,-0.9664,-0.9664,-0.96,-0.9664,-0.96,-0.96,-0.9661,-0.9651,-0.9581,-0.9466,-0.958,-0.9474,-0.9455,-0.9502,-0.9487,-0.9543,-0.9588,-0.9707,-0.9766,-0.9787,-0.9867,-1.0209,-1.0622,-1.0548,-1.0439,-1.0599,-1.0697,-1.064,-0.4751,-0.6091,-0.7484,-0.7461,-0.6806,-0.8119,-0.8974,-0.9436,-1.0293,-1.0922,-1.1318,-1.1427,-1.1276,-1.0972,-1.0769,-1.0395,-0.9932,-0.9465,-0.9099,-0.8725,-0.8296,-0.7818,-0.7391,-0.6907,-0.6372,-0.5832,-0.5336,-0.4897,-0.4519,-0.4018,-0.3574,-0.3128,-0.2905,-0.2794,-0.3016,-0.2462,-0.1737,-0.1066,-0.0617,-0.0393,-0.0056,0.0168,0.028,0.0392,0.028,0.0168,0.0113,0.0057,-0.0057,-0.0229,-0.0457,-0.0628,-0.0799,-0.1107,-0.1352,-0.1354,-0.1747,-0.1956,-0.2214,-0.319,-0.3811,-0.425,-0.4862,-0.5191,-0.5155,-0.5366,-0.5639,-0.5944,-0.633,-0.6548,-0.6675,-0.6872,-0.7068,-0.7265,-0.7531,-0.7731,-0.7727,-0.7922,-0.8052,-0.8199,-0.8103,-0.8062,-0.8138,-0.8278,-0.8571,-0.882,-0.8975,-0.9034,-0.9133,-0.9167,-0.9261,-0.9288,-0.9305,-0.9285,-0.9298,-0.9176,-0.9129,-0.9247,-0.9254,-0.928,-0.9238,-0.9316,-0.9316,-0.9336,-0.9352,-0.9406,-0.9357,-0.9306,-0.9771,-1.0148,-1.0304,-1.0293,-1.0449,-1.0449,-1.0299,-0.6347,-0.7337,-0.8008,-0.8315,-0.8277,-0.8823,-0.9309,-0.9784,-1.036,-1.0769,-1.0871,-1.0972,-1.0718,-1.036,-1.0043,-0.9725,-0.9263,-0.8738,-0.8368,-0.7925,-0.745,-0.6972,-0.648,-0.5987,-0.55,-0.5011,-0.4519,-0.4132,-0.3747,-0.3309,-0.2856,-0.2406,-0.1866,-0.1569,-0.1568,-0.1176,-0.0617,-0.028,0.0112,0.0561,0.1123,0.1237,0.1294,0.1463,0.124,0.1081,0.11,0.1044,0.0934,0.0769,0.0474,0.0238,0.0059,-0.0242,-0.0608,-0.079,-0.1111,-0.1371,-0.165,-0.2245,-0.2904,-0.3544,-0.4084,-0.4415,-0.4566,-0.465,-0.4878,-0.5219,-0.562,-0.5818,-0.6013,-0.6276,-0.6544,-0.6679,-0.6876,-0.7073,-0.7204,-0.7531,-0.7746,-0.7969,-0.8009,-0.8165,-0.8268,-0.8078,-0.8342,-0.843,-0.8599,-0.8782,-0.887,-0.8914,-0.9019,-0.9105,-0.9108,-0.9044,-0.8997,-0.8938,-0.8974,-0.9021,-0.913,-0.9129,-0.9153,-0.9001,-0.906,-0.9074,-0.9089,-0.9103,-0.9022,-0.9018,-0.9322,-0.9625,-0.9706,-0.9781,-0.9846,-0.9846,-0.9846,-0.7557,-0.8249,-0.8521,-0.8837,-0.9204,-0.9368,-0.9688,-1.011,-1.047,-1.0565,-1.0462,-1.0462,-1.0205,-0.9784,-0.9413,-0.904,-0.8573,-0.8049,-0.7568,-0.7122,-0.6647,-0.6159,-0.5668,-0.5167,-0.4732,-0.4298,-0.3852,-0.3408,-0.3026,-0.2665,-0.2128,-0.1511,-0.0927,-0.0584,-0.0407,-0.0116,0.0286,0.0631,0.1097,0.1402,0.1751,0.1923,0.2038,0.2096,0.1984,0.182,0.1787,0.1742,0.1632,0.1537,0.1299,0.1052,0.0805,0.0499,0.0063,-0.0188,-0.0572,-0.0899,-0.1244,-0.1455,-0.218,-0.2885,-0.3263,-0.3618,-0.3889,-0.402,-0.422,-0.4558,-0.4957,-0.5223,-0.5422,-0.5752,-0.5954,-0.6156,-0.6432,-0.6564,-0.6918,-0.7189,-0.753,-0.7737,-0.7919,-0.8084,-0.8287,-0.8112,-0.8065,-0.8141,-0.8216,-0.8417,-0.8617,-0.8711,-0.8758,-0.8819,-0.8907,-0.8897,-0.8846,-0.8827,-0.8809,-0.8842,-0.8896,-0.8921,-0.875,-0.858,-0.8694,-0.8718,-0.8641,-0.8641,-0.8637,-0.8789,-0.8865,-0.8941,-0.8941,-0.9089,-0.9241,-0.9392,-0.9473,-0.8474,-0.883,-0.9099,-0.9263,-0.9413,-0.9636,-0.9999,-1.0411,-1.047,-1.0257,-0.9999,-0.9991,-0.9681,-0.9211,-0.889,-0.8461,-0.7877,-0.7348,-0.681,-0.6322,-0.5887,-0.5454,-0.4956,-0.4457,-0.407,-0.363,-0.32,-0.2776,-0.2257,-0.1974,-0.1435,-0.073,-0.0182,0.0243,0.0543,0.0841,0.1126,0.1484,0.1854,0.2054,0.2295,0.2374,0.2486,0.2545,0.249,0.2382,0.234,0.2163,0.1984,0.187,0.1746,0.1431,0.1191,0.1083,0.0772,0.039,-0.0066,-0.06,-0.087,-0.1008,-0.141,-0.2067,-0.2477,-0.2822,-0.3226,-0.3491,-0.3758,-0.4025,-0.4425,-0.4628,-0.4831,-0.5163,-0.5432,-0.5778,-0.6062,-0.64,-0.6656,-0.6996,-0.7281,-0.7456,-0.7624,-0.7771,-0.787,-0.7857,-0.7961,-0.7952,-0.805,-0.8188,-0.8379,-0.8443,-0.8492,-0.8489,-0.862,-0.8697,-0.8665,-0.8602,-0.8596,-0.859,-0.8477,-0.8505,-0.8327,-0.8259,-0.8336,-0.8331,-0.8178,-0.8178,-0.8331,-0.8331,-0.8255,-0.8331,-0.8484,-0.8632,-0.8937,-0.917,-0.9327,-0.8956,-0.9256,-0.9309,-0.9413,-0.9562,-0.9621,-0.9836,-1.0102,-1.0058,-0.9844,-0.9577,-0.9472,-0.9106,-0.8633,-0.8302,-0.7824,-0.7289,-0.6745,-0.6154,-0.5668,-0.5175,-0.4739,-0.4298,-0.3855,-0.3463,-0.3044,-0.2681,-0.2315,-0.1928,-0.1498,-0.0793,-0.0123,0.0374,0.087,0.1309,0.1624,0.1855,0.2089,0.2352,0.2606,0.2791,0.2917,0.304,0.3107,0.2983,0.2878,0.2789,0.2545,0.2434,0.2411,0.2162,0.1904,0.1909,0.1523,0.113,0.0864,0.0335,-0.0202,-0.0337,-0.0809,-0.1145,-0.1345,-0.168,-0.2084,-0.2555,-0.2958,-0.3293,-0.3625,-0.3894,-0.4161,-0.4442,-0.4782,-0.5151,-0.5528,-0.5837,-0.6142,-0.6456,-0.6816,-0.7111,-0.7458,-0.7625,-0.7681,-0.7773,-0.7799,-0.79,-0.7922,-0.7917,-0.804,-0.8148,-0.8212,-0.8262,-0.8323,-0.836,-0.8448,-0.837,-0.8294,-0.8254,-0.8232,-0.8174,-0.8178,-0.8102,-0.8102,-0.8102,-0.8025,-0.7949,-0.8025,-0.8102,-0.8025,-0.7949,-0.8106,-0.8259,-0.8408,-0.856,-0.8904,-0.9081,-0.9263,-0.9413,-0.9472,-0.948,-0.942,-0.9368,-0.9472,-0.9532,-0.9532,-0.9368,-0.9106,-0.889,-0.8527,-0.8043,-0.767,-0.7241,-0.6696,-0.61,-0.5555,-0.5011,-0.457,-0.4073,-0.3633,-0.3254,-0.2884,-0.2518,-0.2211,-0.1951,-0.1566,-0.0742,0.0063,0.0705,0.0959,0.1342,0.1802,0.2078,0.2271,0.2508,0.2752,0.2999,0.3246,0.3434,0.357,0.3561,0.3371,0.3347,0.3195,0.2946,0.2847,0.2815,0.2487,0.2354,0.2151,0.1747,0.1344,0.1074,0.0739,0.0269,-0.0067,-0.0337,-0.0741,-0.101,-0.1144,-0.1479,-0.1951,-0.2421,-0.2824,-0.3157,-0.3493,-0.3763,-0.4115,-0.4408,-0.4878,-0.5359,-0.565,-0.5948,-0.6309,-0.6676,-0.7086,-0.7447,-0.7605,-0.774,-0.7851,-0.7872,-0.7863,-0.7744,-0.7723,-0.7719,-0.7849,-0.8036,-0.8098,-0.8209,-0.8174,-0.8125,-0.8102,-0.8025,-0.8021,-0.8021,-0.8025,-0.7953,-0.7949,-0.7868,-0.7791,-0.7791,-0.7795,-0.7876,-0.7889,-0.7872,-0.7791,-0.7897,-0.8043,-0.8173,-0.8425,-0.8663,-0.8833,-0.9413,-0.9413,-0.9539,-0.933,-0.9075,-0.9008,-0.8903,-0.8752,-0.8949,-0.8844,-0.8521,-0.8268,-0.7889,-0.7461,-0.7031,-0.6593,-0.61,-0.5496,-0.4956,-0.4408,-0.3959,-0.3516,-0.3077,-0.2643,-0.2348,-0.2102,-0.1793,-0.1533,-0.1001,-0.0256,0.059,0.1546,0.147,0.1662,0.206,0.2332,0.2593,0.3049,0.3177,0.3377,0.3657,0.3811,0.3828,0.3877,0.3806,0.3749,0.3553,0.3357,0.3159,0.3023,0.2822,0.2555,0.222,0.1884,0.1547,0.1277,0.1076,0.074,0.0337,-0.0,-0.0405,-0.0741,-0.1078,-0.1211,-0.1547,-0.2085,-0.2555,-0.2834,-0.3107,-0.347,-0.3759,-0.4171,-0.4588,-0.508,-0.544,-0.5828,-0.6296,-0.6645,-0.7072,-0.7403,-0.7512,-0.7638,-0.7638,-0.7714,-0.7714,-0.7561,-0.7561,-0.7561,-0.7629,-0.7842,-0.7927,-0.8016,-0.7944,-0.7868,-0.7949,-0.7872,-0.7872,-0.7872,-0.7799,-0.7723,-0.7714,-0.7638,-0.7557,-0.7561,-0.7638,-0.7671,-0.7606,-0.77,-0.7749,-0.7807,-0.7953,-0.8028,-0.8209,-0.8458,-0.8733,-0.9361,-0.9211,-0.9166,-0.9015,-0.8857,-0.8639,-0.848,-0.8328,-0.8002,-0.7984,-0.7984,-0.7664,-0.7295,-0.6869,-0.6436,-0.5941,-0.5496,-0.4952,-0.446,-0.3907,-0.3405,-0.303,-0.2593,-0.2236,-0.1926,-0.1729,-0.1413,-0.1022,-0.0326,0.0265,0.0734,0.1411,0.1479,0.1748,0.222,0.2488,0.2824,0.3362,0.356,0.3692,0.3894,0.4097,0.4167,0.4097,0.403,0.3961,0.3763,0.3565,0.3429,0.3295,0.3092,0.2757,0.2356,0.2153,0.1951,0.1681,0.1344,0.1008,0.074,0.0337,-0.0067,-0.0405,-0.0674,-0.101,-0.1345,-0.1884,-0.2294,-0.251,-0.2799,-0.3166,-0.3557,-0.3985,-0.4419,-0.4846,-0.5285,-0.5767,-0.6256,-0.6652,-0.713,-0.7226,-0.7403,-0.7407,-0.748,-0.748,-0.748,-0.748,-0.748,-0.7557,-0.7557,-0.7625,-0.7625,-0.771,-0.7633,-0.7638,-0.7714,-0.7714,-0.7714,-0.7638,-0.7638,-0.7561,-0.748,-0.748,-0.748,-0.748,-0.7565,-0.7553,-0.7626,-0.777,-0.7819,-0.7789,-0.7878,-0.8122,-0.8193,-0.8379,-0.8669,-0.9159,-0.9008,-0.8745,-0.8533,-0.8321,-0.8109,-0.7895,-0.7741,-0.7354,-0.7187,-0.7182,-0.6966,-0.6701,-0.6268,-0.5832,-0.5395,-0.4897,-0.4405,-0.3907,-0.3405,-0.2974,-0.2548,-0.218,-0.1814,-0.1627,-0.1418,-0.0898,-0.0332,0.0337,0.0674,0.1076,0.148,0.1614,0.1883,0.2353,0.2621,0.3021,0.3627,0.3758,0.3894,0.4097,0.4233,0.4303,0.4233,0.4167,0.4097,0.3964,0.3763,0.3629,0.3429,0.3159,0.2956,0.2622,0.2421,0.222,0.1951,0.1614,0.1277,0.1008,0.0741,0.0338,-0.0068,-0.0473,-0.081,-0.1168,-0.1652,-0.2066,-0.2282,-0.2697,-0.3066,-0.3501,-0.3939,-0.4357,-0.4858,-0.5315,-0.5794,-0.622,-0.6615,-0.6927,-0.7084,-0.7173,-0.7173,-0.7169,-0.7173,-0.7173,-0.7334,-0.733,-0.7484,-0.7484,-0.748,-0.748,-0.748,-0.748,-0.748,-0.7561,-0.7561,-0.7561,-0.7557,-0.748,-0.748,-0.748,-0.748,-0.748,-0.7512,-0.7565,-0.765,-0.7728,-0.7825,-0.7878,-0.7923,-0.8028,-0.8138,-0.8283,-0.8344,-0.8645,-0.885,-0.8646,-0.8275,-0.7949,-0.7616,-0.7521,-0.7359,-0.7203,-0.6815,-0.649,-0.6327,-0.6273,-0.5996,-0.5668,-0.5175,-0.4794,-0.4353,-0.3852,-0.335,-0.297,-0.2595,-0.2232,-0.1868,-0.1551,-0.1426,-0.1027,-0.053,0.0201,0.0944,0.1079,0.1212,0.1615,0.1816,0.1949,0.2485,0.2753,0.3021,0.3558,0.3828,0.3961,0.4167,0.4303,0.4303,0.4303,0.4303,0.4167,0.403,0.3894,0.3761,0.3493,0.3226,0.3025,0.2889,0.2622,0.2423,0.2153,0.1816,0.1479,0.1212,0.1085,0.0611,0.0204,-0.0271,-0.0687,-0.1051,-0.1409,-0.1761,-0.2127,-0.2553,-0.3004,-0.3372,-0.388,-0.4302,-0.479,-0.5254,-0.578,-0.6173,-0.6563,-0.6714,-0.6868,-0.6865,-0.6861,-0.6938,-0.6942,-0.6945,-0.7103,-0.7261,-0.7334,-0.7411,-0.7484,-0.748,-0.748,-0.748,-0.748,-0.748,-0.748,-0.7484,-0.748,-0.748,-0.748,-0.7496,-0.7545,-0.7577,-0.7586,-0.765,-0.7789,-0.7894,-0.7996,-0.8036,-0.8093,-0.8211,-0.8325,-0.8349,-0.8496,-0.8661,-0.854,-0.8062,-0.7889,-0.7568,-0.7246,-0.7187,-0.7031,-0.6761,-0.6445,-0.6114,-0.5782,-0.5454,-0.5285,-0.523,-0.4632,-0.419,-0.3907,-0.3408,-0.3023,-0.2693,-0.2236,-0.1864,-0.1613,-0.1303,-0.1229,-0.0861,-0.0336,0.0404,0.1012,0.1146,0.128,0.1614,0.1614,0.1949,0.2552,0.282,0.3021,0.3558,0.3828,0.3961,0.4167,0.4303,0.4303,0.4303,0.4303,0.43,0.4167,0.4097,0.3894,0.3694,0.336,0.3159,0.2958,0.2757,0.2555,0.2362,0.2022,0.1692,0.1495,0.1241,0.0763,0.0349,-0.014,-0.0713,-0.101,-0.1302,-0.1677,-0.2005,-0.238,-0.2825,-0.3253,-0.3759,-0.4264,-0.4647,-0.5157,-0.555,-0.5941,-0.6331,-0.6563,-0.6714,-0.6791,-0.6788,-0.6788,-0.6865,-0.6868,-0.6949,-0.7103,-0.718,-0.7334,-0.7407,-0.7492,-0.7508,-0.7516,-0.748,-0.748,-0.7484,-0.7484,-0.7484,-0.7512,-0.7569,-0.7696,-0.7737,-0.7762,-0.772,-0.7845,-0.8,-0.8097,-0.8158,-0.8276,-0.8349,-0.8438,-0.8519,-0.8519,-0.8515,-0.864]},{"header":{"parameterUnit":"m.s-1","parameterCategory":1,"la1":31.0,"la2":29.5877,"lo1":-88.7671,"lo2":-86.6584,"dy":0.0162,"dx":0.0185,"nx":115,"ny":88,"refTime":"2023-07-21T18:00:00:Z","depth":0,"parameterNumber":3,"parameterNumberName":"V-component_of_WINDS"},"data":[0.0,0.0,0.0,0.0,0.0,0.0,0.0,0.0,0.0,0.0,0.0,0.0,0.0,0.0,0.0,0.0,0.0,0.0,0.0,0.0,0.0,0.0,0.0,0.0,0.0,0.0,0.0,0.0,0.0,0.0,0.0,0.0,0.0,0.0,0.0,0.0,0.0,0.0,0.0,0.0,0.0,0.0,0.0,0.0,0.0,0.0,0.0,0.0,0.0,0.0,0.0,0.0,0.0,0.0,0.0,0.0,0.0,0.0,0.0,0.0,0.0,0.0,0.0,0.0,0.0,0.0,0.0,0.0,0.0,0.0,0.0,0.0,0.0,0.0,0.0,0.0,0.0,0.0,0.0,0.0,0.0,0.0,0.0,0.0,0.0,0.0,0.0,0.0,0.0,0.0,0.0,0.0,0.0,0.0,0.0,0.0,0.0,0.0,0.0,0.0,0.0,0.0,0.0,0.0,0.0,0.0,0.0,0.0,0.0,0.0,0.0,0.0,0.0,0.0,0.0,0.0,0.0,0.0,0.0,0.0,0.0,0.0,0.0,0.0,0.0,0.0,0.0,0.0,0.0,0.0,0.0,0.0,0.0,0.0,0.0,0.0,0.0,0.0,0.0,0.0,0.0,0.0,0.0,0.0,0.0,0.0,0.0,0.0,0.0,0.0,0.0,0.0,0.0,0.0,0.0,0.0,0.0,0.0,0.0,0.0,0.0,0.0,0.0,0.0,0.0,0.0,0.0,0.0,0.0,0.0,0.0,0.0,0.0,0.0,0.0,0.0,0.0,0.0,0.0,0.0,0.0,0.0,0.0,0.0,0.0,0.0,0.0,0.0,0.0,0.0,0.0,0.0,0.0,0.0,0.0,0.0,0.0,0.0,0.0,0.0,0.0,0.0,0.0,0.0,0.0,0.0,0.0,0.0,0.0,0.0,0.0,0.0,0.0,0.0,0.0,0.0,0.0,0.0,0.0,0.0,0.0,0.0,0.0,0.0,0.0,0.0,0.0,0.0,0.0,0.0,0.0,0.0,0.0,0.0,0.0,0.0,0.0,0.0,0.0,0.0,0.0,0.0,0.0,0.0,0.0,0.0,0.0,0.0,0.0,0.0,0.0,0.0,0.0,0.0,0.0,0.0,0.0,0.0,0.0,0.0,0.0,0.0,0.0,0.0,0.0,0.0,0.0,0.0,0.0,0.0,0.0,0.0,0.0,0.0,0.0,0.0,0.0,0.0,0.0,0.0,0.0,0.0,0.0,0.0,0.0,0.0,0.0,0.0,0.0,0.0,0.0,0.0,0.0,0.0,0.0,0.0,0.0,0.0,0.0,0.0,0.0,0.0,0.0,0.0,0.0,0.0,0.0,0.0,0.0,0.0,0.0,0.0,0.0,0.0,0.0,0.0,0.0,0.0,0.0,0.0,0.0,0.0,0.0,0.0,0.0,0.0,0.0,0.0,0.0,0.0,0.0,0.0,0.0,0.0,0.0,0.0,0.0,0.0,0.0,0.0,0.0,0.0,0.0,0.0,0.0,0.0,0.0,0.0,0.0,0.0,0.0,0.0,0.0,0.0,0.0,0.0,0.0,0.0,0.0,0.0,0.0,0.0,0.0,0.0,0.0,0.0,0.0,0.0,0.0,0.0,0.0,0.0,0.0,0.0,0.0,0.0,0.0,0.0,0.0,0.0,0.0,0.0,0.0,0.0,0.0,0.0,0.0,0.0,0.0,0.0,0.0,0.0,0.0,0.0,0.0,0.0,0.0,0.0,0.0,0.0,0.0,0.0,0.0,0.0,0.0,0.0,0.0,0.0,0.0,0.0,0.0,0.0,0.0,0.0,0.0,0.0,0.0,0.0,0.0,0.0,0.0,0.0,0.0,0.0,0.0,0.0,0.0,0.0,0.0,0.0,0.0,0.0,0.0,0.0,0.0,0.0,0.0,0.0,0.0,0.0,0.0,0.0,0.0,0.0,0.0,0.0,0.0,0.0,0.0,0.0,0.0,0.0,0.0,0.0,0.0,0.0,0.0,0.0,0.0,0.0,0.0,0.0,0.0,0.0,0.0,0.0,0.0,0.0,0.0,0.0,0.0,0.0,0.0,0.0,0.0,0.0,0.0,0.0,0.0,0.0,0.0,0.0,0.0,0.0,0.0,0.0,0.0,0.0,0.0,0.0,0.0,0.0,0.0,0.0,0.0,0.0,0.0,0.0,0.0,0.0,0.0,0.0,0.0,0.0,0.0,0.0,0.0,0.0,0.0,0.0,0.0,0.0,0.0,0.0,0.0,0.0,0.0,0.0,0.0,0.0,0.0,0.0,0.0,0.0,0.0,0.0,0.0,0.0,0.0,0.0,0.0,0.0,0.0,0.0,0.0,0.0,0.0,0.0,0.0,0.0,0.0,0.0,0.0,0.0,0.0,0.0,0.0,0.0,0.0,0.0,0.0,0.0,0.0,0.0,0.0,0.0,0.0,0.0,0.0,0.0,0.0,0.0,0.0,0.0,0.0,0.0,0.0,0.0,0.0,0.0,0.0,0.0,0.0,0.0,0.0,0.0,0.0,0.0,0.0,0.0,0.0,0.0,0.0,0.0,0.0,0.0,0.0,0.0,0.0,0.0,0.0,0.0,0.0,0.0,0.0,0.0,0.0,0.0,0.0,0.0,0.0,0.0,0.0,0.0,0.0,0.0,0.0,0.0,0.0,0.0,0.0,0.0,0.0,0.0,0.0,0.0,0.0,0.0,0.0,0.0,0.0,0.0,0.0,0.0,0.0,0.0,0.0,0.0,0.0,0.0,0.0,0.0,0.0,0.0,0.0,0.0,0.0,0.0,0.0,0.0,0.0,0.0,0.0,0.0,0.0,0.0,0.0,0.0,0.0,0.0,0.0,0.0,0.0,0.0,0.0,0.0,0.0,0.0,0.0,0.0,0.0,0.0,0.0,0.0,0.0,0.0,0.0,0.0,0.0,0.0,0.0,0.0,0.0,0.0,0.0,0.0,0.0,0.0,0.0,0.0,0.0,0.0,0.0,0.0,0.0,0.0,0.0,0.0,0.0,0.0,0.0,0.0,0.0,0.0,0.0,0.0,0.0,0.0,0.0,0.0,0.0,0.0,0.0,0.0,0.0,0.0,0.0,0.0,0.0,0.0,0.0,0.0,0.0,0.0,0.0,0.0,0.0,0.0,0.0,0.0,0.0,0.0,0.0,0.0,0.0,0.0,0.0,0.0,0.0,0.0,0.0,0.0,0.0,0.0,0.0,0.0,0.0,0.0,0.0,0.0,0.0,0.0,0.0,0.0,0.0,0.0,0.0,0.0,0.0,0.0,0.0,0.0,0.0,0.0,0.0,0.0,0.0,0.0,0.0,0.0,0.0,0.0,0.0,0.0,0.0,0.0,0.0,0.0,0.0,0.0,0.0,0.0,0.0,0.0,0.0,0.0,0.0,0.0,0.0,0.0,0.0,0.0,0.0,0.0,0.0,0.0,0.0,0.0,0.0,0.0,0.0,0.0,0.0,0.0,0.0,0.0,0.0,0.0,0.0,0.0,0.0,0.0,0.0,0.0,0.0,0.0,0.0,0.0,0.0,0.0,0.0,0.0,0.0,0.0,0.0,0.0,0.0,0.0,0.0,0.0,0.0,0.0,0.0,0.0,0.0,0.0,0.0,0.0,0.0,0.0,0.0,0.0,0.0,0.0,0.0,0.0,0.0,0.0,0.0,0.0,0.0,0.0,0.0,0.0,0.0,0.0,0.0,0.0,0.0,0.0,0.0,0.0,0.0,0.0,0.0,0.0,0.0,0.0,0.0,0.0,0.0,0.0,0.0,0.0,0.0,0.0,0.0,0.0,0.0,0.0,0.0,0.0,0.0,0.0,0.0,0.0,0.0,0.0,0.0,0.0,0.0,0.0,0.0,0.0,0.0,0.0,0.0,0.0,0.0,0.0,0.0,0.0,0.0,0.0,0.0,0.0,0.0,0.0,0.0,0.0,0.0,0.0,0.0,0.0,0.0,0.0,0.0,0.0,0.0,0.0,0.0,0.0,0.0,0.0,0.0,0.0,0.0,0.0,0.0,0.0,0.0,0.0,0.0,0.0,0.0,0.0,0.0,0.0,0.0,0.0,0.0,0.0,0.0,0.0,0.0,0.0,0.0,0.0,0.0,0.0,0.0,0.0,0.0,0.0,0.0,0.0,0.0,0.0,0.0,0.0,0.0,0.0,0.0,0.0,0.0,0.0,0.0,0.0,0.0,0.0,0.0,0.0,0.0,0.0,0.0,0.0,0.0672,0.0,0.0,0.0,0.0,0.0,0.0,0.0,0.0,0.0,0.0,0.0,0.0,0.0,0.0,0.0,0.0,0.0,0.0,0.0,0.0,0.0,0.0,0.0,0.0,0.0,0.0,0.0,0.0,0.0,0.0,0.0,0.0,0.0,0.0,0.0,0.0,0.0,0.0,0.0,0.0,0.0,0.0,0.0,0.0,0.0,0.0,0.0,0.0,0.0,0.0,0.0,0.0,0.0,0.0,0.0,0.0,0.0,0.0,0.0,0.0,0.0,0.0,0.0,0.0,0.0,0.0,0.0,0.0,0.0,0.0,0.0,0.0,0.0,0.0,0.0,0.0,0.0,0.0,0.0,0.0,0.0,0.0,0.0,0.0,0.0,0.0,0.0,0.0,0.0,0.0,0.0,0.0,0.0,0.0,0.0,0.0,0.0,0.0,0.0,0.0,0.0,0.0,0.0,0.0,0.0,0.0,0.0,0.0,0.0,0.0,0.1251,0.0937,0.0312,-0.0223,-0.0759,0.0,0.0,0.0,0.0,0.0,0.0,0.0,0.0,0.0,0.0,0.0,0.0,0.0,0.0,0.0,0.0,0.0,0.0,0.0,0.0,0.0,0.0,0.0,0.0,0.0,0.0,0.0,0.0,0.0,0.0,0.0,0.0,0.0,0.0,0.0,0.0,0.0,0.0,0.0,0.0,0.0,0.0,0.0,0.0,0.0,0.0,0.0,0.0,0.0,0.0,0.0,0.0,0.0,0.0,0.0,0.0,0.0,0.0,0.0,0.0,0.0,0.0,0.0,0.0,0.0,0.0,0.0,0.0,0.0,0.0,0.0,0.0,0.0,0.0,0.0,0.0,0.0,0.0,0.0,0.0,0.0,0.0,0.0,0.0,0.0,0.0,0.0,0.0,0.0,0.0,0.0,0.0,0.0,0.0,0.0,0.0,0.0,0.0,0.0,0.0,0.0,0.0,0.0,0.0,0.0,0.0,0.0,0.0,0.0,0.0,0.0,0.0,-0.1112,-0.1818,-0.2527,0.0,0.0,0.0,0.0,0.0,0.0,0.0,0.0,0.0,0.0,0.0,0.0,0.0,0.0,0.0,0.0,0.0,0.0,0.0,0.0,0.0,0.0,0.0,0.0,0.0,0.0,0.0,0.0,0.0,0.0,0.0,0.0,0.0,0.0,0.0,0.0,0.0,0.0,0.0,0.0,0.0,0.0,0.0,0.0,0.0,0.0,0.0,0.0,0.0,0.0,0.0,0.0,0.0,0.0,0.0,0.0,0.0,0.0,0.0,0.0,0.0,0.0,0.0,0.0,0.0,0.0,0.0,0.0,0.0,0.0,0.0,0.0,0.0,0.0,0.0,0.0,0.0,0.0,0.0,0.0,0.0,0.0,0.0,0.0,0.0,0.0,0.0,0.0,0.0,0.0,0.0,0.0,0.0,0.0,0.0,0.0,0.0,0.0,0.0,0.0,0.0,0.0,0.0,0.0,0.0,0.0,0.0,0.0,0.0,0.0,-0.1594,-0.2339,-0.2953,0.0,-0.4866,0.0,0.0,0.0,0.0,0.0,0.0,0.0,0.0,0.0,0.0,0.0,0.0,0.0,0.0,0.0,0.0,0.0,0.0,0.0,0.0,0.0,0.0,0.0,0.0,0.0,0.0,0.0,0.0,0.0,0.0,0.0,0.0,0.0,0.0,0.0,0.0,0.0,0.0,0.0,0.0,0.0,0.0,0.0,0.0,0.0,0.0,0.0,0.0,0.0,0.0,0.0,0.0,0.0,0.0,0.0,0.0,0.0,0.0,0.0,0.0,0.0,0.0,0.0,0.0,0.0,0.0,0.0,0.0,0.0,0.0,0.0,0.0,0.0,0.0,0.0,0.0,0.0,0.0,0.0,0.0,0.0,0.0,0.0,0.0,0.0,0.0,0.0,0.0,0.0,0.0,0.0,0.0,0.0,0.0,0.0,0.0,0.0,0.0,0.0,0.0,0.0,0.0,0.0,0.0,0.0,0.0,0.0,0.0,0.0,0.0,-0.4384,-0.4564,-0.5607,-0.6483,0.0,0.0,0.0,0.0,0.0,0.0,0.0,0.0,0.0,0.0,0.0,0.0,0.0,0.0,0.0,0.0,0.0,0.0,0.0,0.0,0.0,0.0,0.0,0.0,0.0,0.0,0.0,0.0,0.0,0.0,0.0,0.0,0.0,0.0,0.0,0.0,0.0,0.0,0.0,0.0,0.0,0.0,0.0,0.0,0.0,0.0,0.0,0.0,0.0,0.0,0.0,0.0,0.0,0.0,0.0,0.0,0.0,0.0,0.0,0.0,0.0,0.0,0.0,0.0,0.0,0.0,0.0,0.0,0.0,0.0,0.0,0.0,0.0,0.0,0.0,0.0,0.0,0.0,0.0,0.0,0.0,0.0,0.0,0.0,0.0,0.0,0.0,0.0,0.0,0.0,0.0,0.0,0.0,0.0,0.0,0.0,0.0,0.0,0.0,0.0,0.0,0.0,0.0,0.0,0.0,0.0,0.0,0.0,0.0,0.0,-0.591,-0.7073,-0.7393,-0.8504,-0.9258,-0.9544,0.0,0.0,0.0,0.0,0.0,0.0,0.0,0.0,0.0,0.0,0.0,0.0,0.0,0.0,0.0,0.0,0.0,0.0,0.0,0.0,0.0,0.0,0.0,0.0,0.0,0.0,0.0,0.0,0.0,0.0,0.0,0.0,0.0,0.0,0.0,0.0,0.0,0.0,0.0,0.0,0.0,0.0,0.0,0.0,0.0,0.0,0.0,0.0,0.0,0.0,0.0,0.0,0.0,0.0,0.0,0.0,0.0,0.0,0.0,0.0,0.0,0.0,0.0,0.0,0.0,0.0,0.0,0.0,0.0,0.0,0.0,0.0,0.0,0.0,0.0,0.0,0.0,0.0,0.0,0.0,0.0,0.0,0.0,0.0,0.0,0.0,0.0,0.0,0.0,0.0,0.0,0.0,0.0,0.0,0.0,0.0,0.0,0.0,0.0,0.0,0.0,0.0,0.0,0.0,0.0,0.0,0.0,0.0,-0.6438,-0.7824,-0.9316,-1.0888,-1.1594,-1.2046,0.0,0.0,0.0,0.0,0.0,0.0,0.0,0.0,0.0,0.0,0.0,0.0,0.0,0.0,0.0,0.0,0.0,0.0,0.0,0.0,0.0,0.0,0.0,0.0,0.0,0.0,0.0,0.0,0.0,0.0,0.0,0.0,0.0,0.0,0.0,0.0,0.0,0.0,0.0,0.0,0.0,0.0,0.0,0.0,0.0,0.0,0.0,0.0,0.0,0.0,0.0,0.0,0.0,0.0,0.0,0.0,0.0,0.0,0.0,0.0,0.0,0.0,0.0,0.0,0.0,0.0,0.0,0.0,0.0,0.0,0.0,0.0,0.0,0.0,0.0,0.0,0.0,0.0,0.0,0.0,0.0,0.0,0.0,0.0,0.0,0.0,0.0,0.0,0.0,0.0,0.0,0.0,0.0,0.0,0.0,0.0,0.0,0.0,0.0,0.0,0.0,0.0,0.0,0.0,0.0,0.0,0.0,0.0,0.0,-0.9206,-1.1159,-1.2679,-1.3712,-1.4183,-1.4501,0.0,0.0,0.0,0.0,0.0,0.0,0.0,0.0,0.0,0.0,0.0,0.0,0.0,0.0,0.0,0.0,0.0,0.0,0.0,0.0,0.0,0.0,0.0,0.0,0.0,0.0,0.0,0.0,0.0,0.0,0.0,0.0,0.0,0.0,0.0,0.0,0.0,0.0,0.0,0.0,0.0,0.0,0.0,0.0,0.0,0.0,0.0,0.0,0.0,0.0,0.0,0.0,0.0,0.0,0.0,0.0,0.0,0.0,0.0,0.0,0.0,0.0,0.0,0.0,0.0,0.0,0.0,0.0,0.0,0.0,0.0,0.0,0.0,0.0,0.0,0.0,0.0,0.0,0.0,0.0,0.0,0.0,0.0,0.0,0.0,0.0,0.0,0.0,0.0,0.0,0.0,0.0,0.0,0.0,0.0,0.0,0.0,0.0,0.0,0.0,0.0,0.0,0.0,0.0,0.0,0.0,0.0,0.0,0.0,-1.2481,0.0,-1.5546,-1.6091,-1.6442,-1.6659,0.0,0.0,0.0,0.0,0.0,0.0,0.0,0.0,0.0,0.0,0.0,0.0,0.0,0.0,0.0,0.0,0.0,0.0,0.0,0.0,0.0,0.0,0.0,0.0,0.0,0.0,0.0,0.0,0.0,0.0,0.0,0.0,0.0,0.0,0.0,0.0,0.0,0.0,0.0,0.0,0.0,0.0,0.0,0.0,0.0,0.0,0.0,0.0,0.0,0.0,0.0,0.0,0.0,0.0,0.0,0.0,0.0,0.0,0.0,0.0,0.0,0.0,0.0,0.0,0.0,0.0,0.0,0.0,0.0,0.0,0.0,0.0,0.0,0.0,0.0,0.0,0.0,0.0,0.0,0.0,0.0,0.0,0.0,0.0,0.0,0.0,0.0,0.0,0.0,0.0,0.0,0.0,0.0,0.0,0.0,0.0,0.0,0.0,0.0,0.0,0.0,0.0,0.0,0.0,0.0,0.0,0.0,0.0,-1.3395,-1.6159,-1.7043,-1.7647,-1.8079,-1.8324,-1.8485,0.0,0.0,0.0,0.0,0.0,0.0,0.0,0.0,0.0,0.0,0.0,0.0,0.0,0.0,0.0,0.0,0.0,0.0,0.0,0.0,0.0,0.0,0.0,0.0,0.0,0.0,0.0,0.0,0.0,0.0,0.0,0.0,0.0,0.0,0.0,0.0,0.0,0.0,0.0,0.0,0.0,0.0,0.0,0.0,0.0,0.0,0.0,0.0,0.0,0.0,0.0,0.0,0.0,0.0,0.0,0.0,0.0,0.0,0.0,0.0,0.0,0.0,0.0,0.0,0.0,0.0,0.0,0.0,0.0,0.0,0.0,0.0,0.0,0.0,0.0,0.0,0.0,0.0,0.0,0.0,0.0,0.0,0.0,0.0,0.0,0.0,0.0,0.0,0.0,0.0,0.0,0.0,0.0,0.0,0.0,0.0,0.0,0.0,0.0,0.0,0.0,0.0,0.0,0.0,0.0,0.0,0.0,0.0,0.0,-1.7995,-1.8461,-1.8824,-1.913,-1.9246,-1.9349,0.0,0.0,0.0,0.0,0.0,0.0,0.0,0.0,0.0,0.0,0.0,0.0,0.0,0.0,0.0,0.0,0.0,0.0,0.0,0.0,0.0,0.0,0.0,0.0,0.0,0.0,0.0,0.0,0.0,0.0,0.0,0.0,0.0,0.0,0.0,0.0,0.0,0.0,0.0,0.0,0.0,0.0,0.0,0.0,0.0,0.0,0.0,0.0,0.0,0.0,0.0,0.0,0.0,0.0,0.0,0.0,0.0,0.0,0.0,0.0,0.0,0.0,0.0,0.0,0.0,0.0,0.0,0.0,0.0,0.0,0.0,0.0,0.0,0.0,0.0,0.0,0.0,0.0,0.0,0.0,0.0,0.0,0.0,0.0,0.0,0.0,0.0,0.0,0.0,0.0,0.0,0.0,0.0,0.0,0.0,0.0,0.0,0.0,0.0,0.0,0.0,0.0,0.0,0.0,0.0,0.0,0.0,0.0,0.0,-1.8514,-1.8984,-1.9335,-1.9534,-1.9594,-1.9681,-1.9805,0.0,0.0,0.0,0.0,0.0,0.0,0.0,0.0,0.0,0.0,0.0,0.0,0.0,0.0,0.0,0.0,0.0,0.0,0.0,0.0,0.0,0.0,0.0,0.0,0.0,0.0,0.0,0.0,0.0,0.0,0.0,0.0,0.0,0.0,0.0,0.0,0.0,0.0,0.0,0.0,0.0,0.0,0.0,0.0,0.0,0.0,0.0,0.0,0.0,0.0,0.0,0.0,0.0,0.0,0.0,0.0,0.0,0.0,0.0,0.0,0.0,0.0,0.0,0.0,0.0,0.0,0.0,0.0,0.0,0.0,0.0,0.0,0.0,0.0,0.0,0.0,0.0,0.0,0.0,0.0,0.0,0.0,0.0,0.0,0.0,0.0,0.0,0.0,0.0,0.0,0.0,0.0,0.0,0.0,0.0,0.0,0.0,0.0,0.0,0.0,0.0,0.0,0.0,0.0,0.0,0.0,0.0,0.0,-1.786,-1.8657,-1.9145,-1.9306,-1.9383,-1.9528,0.0,0.0,0.0,0.0,0.0,0.0,0.0,0.0,0.0,0.0,0.0,0.0,0.0,0.0,0.0,0.0,0.0,0.0,0.0,0.0,0.0,0.0,0.0,0.0,0.0,0.0,0.0,0.0,0.0,0.0,0.0,0.0,0.0,0.0,0.0,0.0,0.0,0.0,0.0,0.0,0.0,0.0,0.0,0.0,0.0,0.0,0.0,0.0,0.0,0.0,0.0,0.0,0.0,0.0,0.0,0.0,0.0,0.0,0.0,0.0,0.0,0.0,0.0,0.0,0.0,0.0,0.0,0.0,0.0,0.0,0.0,0.0,0.0,0.0,0.0,0.0,0.0,0.0,0.0,0.0,0.0,0.0,0.0,0.0,0.0,0.0,0.0,0.0,0.0,0.0,0.0,0.0,0.0,0.0,0.0,0.0,0.0,0.0,0.0,0.0,0.0,0.0,0.0,0.0,0.0,0.0,0.0,0.0,0.0,-1.6185,-1.6373,-1.7075,-1.8321,-1.859,-1.8853,0.0,0.0,0.0,0.0,0.0,0.0,0.0,0.0,0.0,0.0,0.0,0.0,0.0,0.0,0.0,0.0,0.0,0.0,0.0,0.0,0.0,0.0,0.0,0.0,0.0,0.0,0.0,0.0,0.0,0.0,0.0,0.0,0.0,0.0,0.0,0.0,0.0,0.0,0.0,0.0,0.0,0.0,0.0,0.0,0.0,0.0,0.0,0.0,0.0,0.0,0.0,0.0,0.0,0.0,0.0,0.0,0.0,0.0,0.0,0.0,0.0,0.0,0.0,0.0,0.0,0.0,0.0,0.0,0.0,0.0,0.0,0.0,0.0,0.0,0.0,0.0,0.0,0.0,0.0,0.0,0.0,0.0,0.0,0.0,0.0,0.0,0.0,0.0,0.0,0.0,0.0,0.0,0.0,0.0,0.0,0.0,0.0,0.0,0.0,0.0,0.0,0.0,0.0,0.0,0.0,0.0,0.0,0.0,-1.4212,-1.4331,-1.4459,-1.5138,-1.6426,-1.7288,-1.7984,0.0,0.0,0.0,0.0,0.0,0.0,0.0,0.0,0.0,0.0,0.0,0.0,0.0,0.0,0.0,0.0,0.0,0.0,0.0,0.0,0.0,0.0,0.0,0.0,0.0,0.0,0.0,0.0,0.0,0.0,0.0,0.0,0.0,0.0,0.0,0.0,0.0,0.0,0.0,0.0,0.0,0.0,0.0,0.0,0.0,0.0,0.0,0.0,0.0,0.0,0.0,0.0,0.0,0.0,0.0,0.0,0.0,0.0,0.0,0.0,0.0,0.0,0.0,0.0,0.0,0.0,0.0,0.0,0.0,0.0,0.0,0.0,0.0,0.0,0.0,0.0,0.0,0.0,0.0,0.0,0.0,0.0,0.0,0.0,0.0,0.0,0.0,0.0,0.0,0.0,0.0,0.0,0.0,0.0,0.0,0.0,0.0,0.0,0.0,0.0,0.0,0.0,0.0,0.0,0.0,0.0,0.0,0.0,-1.2024,-1.2421,-1.2817,-1.3372,-1.4137,-1.5778,-1.7018,0.0,0.0,0.0,0.0,0.0,0.0,0.0,0.0,0.0,0.0,0.0,0.0,0.0,0.0,0.0,0.0,0.0,0.0,0.0,0.0,0.0,0.0,0.0,0.0,0.0,0.0,0.0,0.0,0.0,0.0,0.0,0.0,0.0,0.0,0.0,0.0,0.0,0.0,0.0,0.0,0.0,0.0,0.0,0.0,0.0,0.0,0.0,0.0,0.0,0.0,0.0,0.0,0.0,0.0,0.0,0.0,0.0,0.0,0.0,0.0,0.0,0.0,0.0,0.0,0.0,0.0,0.0,0.0,0.0,0.0,0.0,0.0,0.0,0.0,0.0,0.0,0.0,0.0,0.0,0.0,0.0,0.0,0.0,0.0,0.0,0.0,0.0,0.0,0.0,0.0,0.0,0.0,0.0,0.0,0.0,0.0,0.0,0.0,0.0,0.0,0.0,0.0,0.0,0.0,0.0,0.0,0.0,0.0,-0.9801,-1.0545,-1.1296,-1.2153,-1.3039,-1.4783,-1.6126,0.0,0.0,0.0,0.0,0.0,0.0,0.0,0.0,0.0,0.0,0.0,0.0,0.0,0.0,0.0,0.0,0.0,0.0,0.0,0.0,0.0,0.0,0.0,0.0,0.0,0.0,0.0,0.0,0.0,0.0,0.0,0.0,0.0,0.0,0.0,0.0,0.0,0.0,0.0,0.0,0.0,0.0,0.0,0.0,0.0,0.0,0.0,0.0,-2.4834,0.0,0.0,0.0,0.0,0.0,0.0,0.0,0.0,0.0,0.0,0.0,0.0,0.0,0.0,0.0,0.0,0.0,0.0,0.0,0.0,0.0,0.0,0.0,0.0,0.0,0.0,0.0,0.0,0.0,0.0,0.0,0.0,0.0,0.0,0.0,0.0,0.0,0.0,0.0,0.0,0.0,0.0,0.0,0.0,0.0,0.0,0.0,0.0,0.0,0.0,0.0,0.0,0.0,0.0,0.0,0.0,0.0,0.0,0.0,-0.8092,-0.916,-1.0157,-1.118,-1.2319,-1.3723,-1.5036,0.0,0.0,0.0,0.0,0.0,0.0,0.0,0.0,0.0,0.0,0.0,0.0,0.0,0.0,0.0,0.0,0.0,0.0,0.0,0.0,0.0,0.0,0.0,0.0,0.0,0.0,0.0,0.0,0.0,0.0,0.0,0.0,0.0,0.0,0.0,0.0,0.0,0.0,0.0,0.0,0.0,0.0,0.0,0.0,0.0,0.0,0.0,0.0,0.0,0.0,0.0,0.0,0.0,0.0,0.0,0.0,0.0,0.0,0.0,0.0,0.0,0.0,0.0,0.0,0.0,0.0,0.0,0.0,0.0,0.0,0.0,0.0,0.0,0.0,0.0,0.0,0.0,0.0,0.0,0.0,0.0,0.0,0.0,0.0,0.0,0.0,0.0,0.0,0.0,0.0,0.0,0.0,0.0,0.0,0.0,0.0,0.0,0.0,0.0,0.0,0.0,0.0,0.0,0.0,0.0,0.0,0.0,-0.5177,-0.6765,-0.8113,-0.9235,-1.0436,-1.1754,-1.2798,-1.406,-1.559,0.0,0.0,0.0,0.0,0.0,0.0,0.0,0.0,0.0,0.0,0.0,0.0,0.0,0.0,0.0,0.0,0.0,0.0,0.0,0.0,0.0,0.0,0.0,0.0,0.0,0.0,0.0,0.0,0.0,0.0,0.0,0.0,0.0,0.0,0.0,0.0,0.0,0.0,-2.4392,-2.4155,0.0,0.0,0.0,0.0,0.0,0.0,0.0,0.0,-2.3627,0.0,0.0,0.0,0.0,0.0,0.0,0.0,0.0,0.0,0.0,0.0,0.0,0.0,0.0,0.0,0.0,0.0,0.0,0.0,0.0,0.0,0.0,0.0,0.0,0.0,0.0,0.0,0.0,0.0,0.0,0.0,0.0,0.0,0.0,0.0,0.0,0.0,0.0,0.0,0.0,0.0,0.0,0.0,0.0,0.0,0.0,0.0,0.0,0.0,0.0,0.0,0.0,0.0,0.0,0.0,0.0,-0.2478,-0.4362,-0.601,-0.7453,-0.8747,-0.9982,-1.1212,-1.2483,-1.3684,-1.4866,0.0,0.0,0.0,0.0,0.0,0.0,0.0,0.0,0.0,0.0,0.0,0.0,0.0,0.0,0.0,0.0,0.0,0.0,0.0,0.0,0.0,0.0,0.0,0.0,0.0,0.0,0.0,0.0,0.0,0.0,0.0,0.0,0.0,0.0,0.0,0.0,0.0,0.0,0.0,-2.3104,-2.2988,0.0,0.0,0.0,0.0,0.0,0.0,0.0,0.0,-2.283,0.0,0.0,0.0,0.0,0.0,0.0,0.0,0.0,0.0,0.0,0.0,0.0,0.0,0.0,0.0,0.0,0.0,0.0,0.0,0.0,0.0,0.0,0.0,0.0,0.0,0.0,0.0,0.0,0.0,0.0,0.0,0.0,0.0,0.0,0.0,0.0,0.0,0.0,0.0,0.0,0.0,0.0,0.0,0.0,0.0,0.0,0.0,0.0,0.0,0.0,0.0,0.0,0.0,0.0,0.0,-0.2262,-0.4069,-0.5674,-0.7113,-0.8431,-0.9748,-1.1025,-1.2236,-1.3411,0.0,0.0,0.0,0.0,0.0,0.0,0.0,0.0,0.0,0.0,0.0,0.0,0.0,0.0,0.0,0.0,0.0,0.0,0.0,0.0,0.0,0.0,0.0,0.0,0.0,0.0,0.0,0.0,0.0,0.0,0.0,0.0,0.0,0.0,0.0,0.0,0.0,0.0,0.0,0.0,-2.1955,-2.1849,-2.1826,0.0,0.0,0.0,0.0,0.0,0.0,-2.191,-2.1955,0.0,0.0,0.0,0.0,0.0,0.0,0.0,0.0,0.0,0.0,0.0,0.0,0.0,0.0,0.0,0.0,0.0,0.0,0.0,0.0,0.0,0.0,0.0,0.0,0.0,0.0,0.0,0.0,0.0,0.0,0.0,0.0,0.0,0.0,0.0,0.0,0.0,0.0,0.0,0.0,0.0,0.0,0.0,0.0,0.0,0.0,0.0,0.0,0.0,0.0,0.0,0.0,0.0,0.0,0.0,-0.2313,-0.3942,-0.5503,-0.6994,-0.8317,-0.963,-1.0939,-1.2105,-1.3255,0.0,0.0,0.0,0.0,0.0,0.0,0.0,0.0,0.0,0.0,0.0,0.0,0.0,0.0,0.0,0.0,0.0,0.0,0.0,0.0,0.0,0.0,0.0,0.0,0.0,0.0,0.0,0.0,0.0,0.0,0.0,0.0,0.0,0.0,0.0,0.0,0.0,0.0,0.0,0.0,0.0,-2.0621,-2.0654,-2.0685,0.0,0.0,0.0,0.0,-2.1022,-2.1054,0.0,0.0,0.0,0.0,0.0,0.0,0.0,0.0,0.0,0.0,0.0,0.0,0.0,0.0,0.0,0.0,0.0,0.0,0.0,0.0,0.0,0.0,0.0,0.0,0.0,0.0,0.0,0.0,0.0,0.0,0.0,0.0,0.0,0.0,0.0,0.0,0.0,0.0,0.0,0.0,0.0,0.0,0.0,0.0,0.0,0.0,0.0,0.0,0.0,0.0,0.0,0.0,0.0,0.0,0.0,0.0,-0.2448,-0.4029,-0.5497,-0.6987,-0.8317,-0.957,-1.0809,-1.2033,-1.3209,0.0,0.0,0.0,0.0,0.0,0.0,0.0,0.0,0.0,0.0,0.0,0.0,0.0,0.0,0.0,0.0,0.0,0.0,0.0,0.0,0.0,0.0,0.0,0.0,0.0,0.0,0.0,0.0,0.0,0.0,0.0,0.0,0.0,0.0,0.0,0.0,0.0,0.0,0.0,0.0,0.0,-1.936,-1.9462,-1.9456,-1.9522,0.0,0.0,-1.9849,-2.0058,-2.0158,0.0,0.0,0.0,0.0,0.0,0.0,0.0,0.0,0.0,0.0,0.0,0.0,0.0,0.0,0.0,0.0,0.0,0.0,0.0,0.0,0.0,0.0,0.0,0.0,0.0,0.0,0.0,0.0,0.0,0.0,0.0,0.0,0.0,0.0,0.0,0.0,0.0,0.0,0.0,0.0,0.0,0.0,0.0,0.0,0.0,0.0,0.0,0.0,0.0,0.0,0.0,0.0,0.0,0.0,0.0,-0.1335,-0.2672,-0.4208,-0.5631,-0.6987,-0.8317,-0.957,-1.0781,-1.2008,-1.3132,0.0,0.0,0.0,0.0,0.0,0.0,0.0,0.0,0.0,0.0,0.0,0.0,0.0,0.0,0.0,0.0,0.0,0.0,0.0,0.0,0.0,0.0,0.0,0.0,0.0,0.0,0.0,0.0,0.0,0.0,0.0,0.0,0.0,0.0,0.0,0.0,0.0,0.0,0.0,0.0,0.0,0.0,-1.838,-1.8419,0.0,0.0,0.0,-1.8968,-1.9244,0.0,0.0,0.0,0.0,0.0,0.0,0.0,0.0,0.0,0.0,0.0,0.0,0.0,0.0,0.0,0.0,0.0,0.0,0.0,0.0,0.0,0.0,0.0,0.0,0.0,0.0,0.0,0.0,0.0,0.0,0.0,0.0,0.0,0.0,0.0,0.0,0.0,0.0,0.0,0.0,0.0,0.0,0.0,0.0,0.0,0.0,0.0,0.0,0.0,0.0,0.0,0.0,0.0,0.0,0.0,0.0,0.0,-0.2937,-0.4378,-0.576,-0.7036,-0.8358,-0.96,-1.0771,-1.1972,0.0,0.0,0.0,0.0,0.0,0.0,0.0,0.0,0.0,0.0,0.0,0.0,0.0,0.0,0.0,0.0,0.0,0.0,0.0,0.0,0.0,0.0,0.0,0.0,0.0,0.0,0.0,-1.6144,0.0,0.0,0.0,0.0,0.0,0.0,0.0,0.0,0.0,0.0,0.0,0.0,0.0,0.0,-1.7146,-1.7284,-1.7394,-1.7558,0.0,0.0,-1.8163,-1.8593,-1.8739,-1.8874,0.0,0.0,0.0,0.0,0.0,0.0,0.0,0.0,0.0,0.0,0.0,0.0,0.0,0.0,0.0,0.0,0.0,0.0,0.0,0.0,0.0,0.0,0.0,0.0,0.0,0.0,0.0,0.0,0.0,0.0,0.0,0.0,0.0,0.0,0.0,0.0,0.0,0.0,0.0,0.0,0.0,0.0,0.0,0.0,0.0,0.0,0.0,0.0,0.0,0.0,0.0,0.0,0.0,0.0,0.0,-0.3337,-0.4648,-0.5899,-0.7175,-0.844,-0.963,-1.0771,-1.1972,-1.3076,0.0,0.0,0.0,0.0,0.0,0.0,0.0,0.0,0.0,0.0,0.0,0.0,0.0,0.0,0.0,0.0,0.0,0.0,0.0,0.0,0.0,0.0,0.0,0.0,0.0,0.0,0.0,0.0,0.0,0.0,0.0,0.0,0.0,0.0,0.0,0.0,0.0,0.0,0.0,0.0,0.0,-1.6107,-1.6201,-1.6441,-1.671,0.0,0.0,-1.7508,-1.8249,-1.8528,-1.8888,-1.9388,0.0,0.0,0.0,0.0,0.0,0.0,0.0,0.0,0.0,0.0,0.0,0.0,0.0,0.0,0.0,0.0,0.0,0.0,0.0,0.0,0.0,0.0,0.0,0.0,0.0,0.0,0.0,0.0,0.0,0.0,0.0,0.0,0.0,0.0,0.0,0.0,0.0,0.0,0.0,0.0,0.0,0.0,0.0,0.0,0.0,0.0,0.0,0.0,0.0,0.0,0.0,0.0,0.0,-0.2408,-0.3517,-0.4826,-0.607,-0.7252,-0.8472,-0.9661,-1.0895,-1.1995,-1.3007,0.0,0.0,0.0,0.0,0.0,0.0,0.0,0.0,0.0,0.0,0.0,0.0,0.0,0.0,0.0,0.0,0.0,0.0,0.0,0.0,0.0,0.0,0.0,0.0,0.0,0.0,0.0,0.0,-1.4675,-1.4767,-1.4937,0.0,0.0,0.0,0.0,0.0,0.0,0.0,0.0,0.0,0.0,-1.5254,-1.5478,-1.5724,0.0,0.0,-1.6979,-1.7371,-1.819,-1.8449,-1.8695,-1.8937,-1.9001,0.0,0.0,0.0,0.0,0.0,0.0,0.0,0.0,0.0,0.0,0.0,0.0,0.0,0.0,0.0,0.0,0.0,0.0,0.0,0.0,0.0,0.0,0.0,0.0,0.0,0.0,0.0,0.0,0.0,0.0,0.0,0.0,0.0,0.0,0.0,0.0,0.0,0.0,0.0,0.0,0.0,0.0,0.0,0.0,0.0,0.0,0.0,0.0,0.0,0.0,0.0,0.0,-0.2674,-0.3778,-0.5038,-0.6234,-0.7419,-0.8602,-0.9806,-1.0971,-1.1995,-1.2998,0.0,0.0,0.0,0.0,0.0,0.0,0.0,0.0,0.0,0.0,0.0,0.0,0.0,0.0,0.0,0.0,0.0,0.0,0.0,0.0,0.0,0.0,0.0,0.0,0.0,0.0,0.0,0.0,-1.3663,-1.3675,-1.3585,0.0,0.0,0.0,0.0,0.0,0.0,0.0,0.0,0.0,0.0,-1.4536,-1.4846,-1.5234,-1.5787,-1.6453,-1.6785,-1.7276,-1.8163,-1.843,-1.8624,-1.8846,0.0,0.0,0.0,0.0,0.0,0.0,0.0,0.0,0.0,0.0,0.0,0.0,0.0,0.0,0.0,0.0,0.0,0.0,0.0,0.0,0.0,0.0,0.0,0.0,0.0,0.0,0.0,0.0,0.0,0.0,0.7139,0.0,0.0,0.0,0.0,0.0,0.0,0.0,0.0,0.0,0.0,0.0,0.0,0.0,0.0,0.0,0.0,0.0,0.0,0.0,0.0,0.0,0.0,-0.2804,-0.4295,-0.5288,-0.6404,-0.7675,-0.8861,-0.9981,-1.0981,-1.2043,-1.301,-1.3888,0.0,0.0,0.0,0.0,0.0,0.0,0.0,0.0,0.0,0.0,0.0,0.0,0.0,0.0,0.0,0.0,0.0,0.0,0.0,0.0,0.0,0.0,0.0,0.0,0.0,0.0,-1.322,-1.3067,-1.289,0.0,0.0,0.0,0.0,0.0,0.0,0.0,0.0,0.0,0.0,-1.3641,-1.3962,-1.437,-1.5037,-1.5604,-1.5961,-1.6559,-1.7272,-1.8234,-1.8509,-1.8819,0.0,0.0,0.0,0.0,0.0,0.0,0.0,0.0,0.0,0.0,0.0,0.0,0.0,0.0,0.0,0.0,0.0,0.0,0.0,0.0,0.0,0.0,0.0,0.0,0.0,0.0,0.0,0.5011,0.5336,0.0,0.0,0.0,0.0,0.0,0.0,0.0,0.0,0.0,0.0,0.0,0.6404,0.613,0.0,0.0,0.0,0.0,0.0,0.0,0.0,0.0,0.0,0.0,0.0,0.0,-0.3111,-0.4295,-0.5465,-0.6615,-0.7743,-0.8933,-1.005,-1.1094,-1.2054,-1.3113,-1.4342,0.0,0.0,0.0,0.0,0.0,0.0,0.0,0.0,0.0,0.0,0.0,0.0,0.0,0.0,0.0,0.0,0.0,0.0,0.0,0.0,0.0,0.0,0.0,0.0,0.0,-1.2787,0.0,0.0,0.0,0.0,0.0,0.0,0.0,0.0,0.0,0.0,0.0,-1.2618,-1.292,-1.3142,-1.342,-1.3821,-1.4596,-1.5361,0.0,0.0,0.0,0.0,0.0,0.0,0.0,0.0,0.0,0.0,0.0,0.0,0.0,0.0,-1.9747,-2.0042,-2.0105,-2.0003,-1.9926,0.0,0.0,0.0,0.0,0.0,0.0,0.0,0.0,0.0,0.0,0.0,0.0,0.0,0.0,0.4463,0.0,0.5014,0.0,0.0,0.0,0.0,0.0,0.0,0.0,0.0,0.6612,0.6466,0.6329,0.5975,0.5626,0.0,0.4741,0.4268,0.0,0.0,0.0,0.0,0.0,0.0,0.0,0.0,-0.329,-0.4387,-0.5594,-0.6784,-0.7915,-0.9053,-1.0157,-1.1207,-1.2342,-1.3441,-1.4578,-1.5149,-1.5551,0.0,0.0,0.0,0.0,0.0,0.0,0.0,0.0,0.0,0.0,0.0,0.0,0.0,0.0,0.0,0.0,0.0,0.0,0.0,0.0,0.0,0.0,0.0,-1.212,0.0,0.0,0.0,0.0,0.0,0.0,0.0,0.0,0.0,-1.1828,-1.2026,-1.2234,-1.2471,-1.2706,-1.3095,-1.3772,0.0,0.0,0.0,0.0,0.0,0.0,0.0,-1.8572,-1.8679,-1.8839,-1.8893,-1.8881,-1.8881,-1.8893,-1.8893,0.0,0.0,-1.9448,-1.95,-1.9448,-1.9356,-1.9198,-1.917,-1.9283,-1.8994,-1.8744,0.0,0.0,0.0,0.0,0.0,0.0,0.0,0.0,0.3965,0.4187,0.0,0.4791,0.0,0.0,0.0,0.0,0.0,0.6539,0.0,0.0,0.6386,0.6263,0.619,0.5746,0.5399,0.5088,0.4589,0.4024,0.3407,0.3081,0.0,0.0,0.0,0.0,0.0,0.0,-0.347,-0.4618,-0.5728,-0.6917,-0.8177,-0.9253,-1.0283,-1.1345,-1.2847,-1.3954,-1.4564,-1.5041,-1.5462,-1.577,-1.5827,0.0,0.0,0.0,0.0,0.0,0.0,0.0,0.0,0.0,0.0,0.0,0.0,0.0,0.0,0.0,0.0,0.0,0.0,0.0,0.0,-1.1838,0.0,0.0,0.0,0.0,0.0,0.0,0.0,0.0,0.0,0.0,-1.1453,-1.1737,-1.1927,-1.2104,0.0,0.0,0.0,0.0,-1.5374,-1.6331,-1.695,-1.749,-1.7975,-1.8084,-1.8193,-1.8506,0.0,0.0,-1.8614,-1.856,-1.8572,-1.8614,-1.856,-1.8679,-1.8946,-1.8893,-1.8798,-1.8798,-1.8732,-1.8614,-1.8703,-1.8637,-1.856,0.4242,0.0,0.0,0.0,0.0,0.3585,0.3691,0.3796,0.3965,0.4135,0.4304,0.4736,0.0,0.0,0.0,0.0,0.0,0.0,0.6455,0.645,0.6556,0.6487,0.6273,0.6021,0.571,0.5307,0.4785,0.4191,0.3582,0.2943,0.219,0.1389,0.0,0.0,0.0,0.0,-0.3602,-0.4874,-0.5899,-0.7036,-0.8252,-0.9323,-1.0636,-1.2198,-1.3148,-1.3881,-1.4433,-1.4873,-1.5179,-1.5433,-1.5551,0.0,0.0,0.0,0.0,0.0,0.0,0.0,0.0,0.0,0.0,0.0,0.0,0.0,0.0,0.0,0.0,0.0,0.0,0.0,-1.1746,-1.1408,-1.1175,0.0,0.0,0.0,0.0,0.0,0.0,0.0,0.0,0.0,-1.1375,-1.1541,-1.1835,0.0,0.0,-1.3323,-1.4178,-1.4928,-1.5579,-1.6138,-1.6841,0.0,0.0,-1.792,-1.8018,-1.8193,-1.8247,-1.8247,-1.8247,-1.8247,-1.8247,-1.8247,-1.8247,-1.8247,-1.8356,-1.8518,-1.8625,-1.8667,-1.8572,-1.8487,-1.8576,-1.8433,-1.8247,0.4353,0.4079,0.3802,0.3638,0.3583,0.3638,0.3744,0.3796,0.3965,0.4135,0.4245,0.468,0.4901,0.4956,0.5454,0.0,0.0,0.0,0.6332,0.6386,0.6436,0.6474,0.6345,0.6058,0.5747,0.5412,0.4832,0.4234,0.3607,0.2827,0.1999,0.112,0.0,0.0,-0.1604,-0.2674,-0.3822,-0.4966,-0.6118,-0.7245,-0.8366,-0.9787,-1.1212,-1.2555,-1.3263,-1.3848,-1.4383,-1.4718,-1.5041,-1.5253,-1.5328,-1.546,0.0,0.0,0.0,0.0,0.0,0.0,0.0,0.0,0.0,0.0,0.0,-1.4323,-1.4392,0.0,0.0,0.0,-1.2665,-1.2049,-1.1469,-1.1116,0.0,0.0,0.0,0.0,0.0,0.0,0.0,-1.047,-1.0797,-1.1116,-1.1383,-1.172,-1.2114,-1.2556,-1.3007,-1.3633,-1.439,0.0,-1.5622,-1.6295,-1.6794,-1.7211,-1.7656,-1.7755,-1.792,-1.8084,-1.8084,-1.8084,-1.8084,-1.8084,-1.8084,-1.8084,-1.8084,-1.8084,-1.8084,-1.8247,-1.8398,-1.8398,-1.8356,-1.8313,-1.8402,-1.8271,-1.8084,0.4408,0.4193,0.3965,0.3744,0.3638,0.3744,0.3796,0.3852,0.4079,0.4193,0.4249,0.468,0.4901,0.4956,0.5572,0.0,0.5791,0.6069,0.6282,0.6381,0.6282,0.6282,0.6372,0.5928,0.5632,0.5514,0.4766,0.4112,0.3506,0.2716,0.1819,0.09,0.0134,-0.0715,-0.165,-0.2937,-0.4045,-0.5005,-0.6337,-0.7509,-0.8642,-1.0494,-1.1836,-1.2567,-1.3229,-1.3848,-1.4351,-1.4637,-1.4902,-1.5147,-1.5235,-1.5523,-1.602,0.0,0.0,0.0,0.0,0.0,0.0,0.0,0.0,0.0,0.0,0.0,0.0,0.0,0.0,0.0,-1.1981,0.0,-1.1276,-1.0922,0.0,0.0,0.0,-1.0332,-1.0355,-1.0363,-1.0423,-1.0601,0.0,0.0,-1.1506,-1.2172,-1.2718,-1.2919,-1.3442,-1.401,-1.4785,-1.5179,-1.571,-1.6666,-1.6807,-1.7043,-1.7601,-1.7711,-1.7877,-1.8084,-1.8084,-1.8084,-1.8084,-1.8139,-1.8139,-1.8139,-1.8139,-1.8139,-1.8139,-1.8205,-1.8139,-1.8193,-1.8139,-1.8084,-1.8139,-1.815,-1.8139,0.468,0.4408,0.419,0.4024,0.3913,0.3968,0.4021,0.4135,0.4193,0.4356,0.4581,0.4794,0.5014,0.5242,0.5626,0.5791,0.5791,0.6069,0.6232,0.6228,0.6232,0.6232,0.6228,0.6013,0.5774,0.5541,0.4947,0.4271,0.361,0.2735,0.1846,0.0984,0.0045,-0.0939,-0.1919,-0.3028,-0.4128,-0.5221,-0.638,-0.7874,-0.9667,-1.0867,-1.1836,-1.2603,-1.3195,-1.3782,-1.4287,-1.4588,-1.4794,-1.4978,-1.5513,-1.5809,-1.5788,-1.6117,0.0,0.0,0.0,0.0,0.0,0.0,0.0,0.0,0.0,-1.4484,-1.4128,0.0,-1.3085,0.0,-1.1731,-1.1124,-1.0879,-1.0667,0.0,0.0,-1.0316,-1.0426,-1.0631,-1.0654,-1.0917,-1.1445,-1.1668,-1.1991,-1.2558,-1.2928,-1.3429,-1.4014,-1.4166,-1.4524,-1.533,-1.5733,-1.6105,-1.6673,-1.692,-1.7134,-1.759,-1.7877,-1.803,-1.8084,-1.8084,-1.8084,-1.8084,-1.8259,-1.8313,-1.8313,-1.841,-1.8464,-1.8452,-1.8506,-1.8452,-1.8452,-1.8302,-1.8084,-1.8084,-1.8205,-1.8379,0.4904,0.4625,0.4522,0.4359,0.4301,0.4135,0.4135,0.4193,0.4301,0.4467,0.4691,0.4904,0.5128,0.5301,0.5686,0.5791,0.5795,0.6069,0.6173,0.6173,0.6173,0.6173,0.6114,0.595,0.5736,0.5458,0.4869,0.4304,0.3699,0.2707,0.1789,0.0952,-0.0091,-0.1117,-0.2144,-0.3205,-0.4303,-0.5432,-0.6994,-0.861,-1.0186,-1.1067,-1.1884,-1.265,-1.3195,-1.3749,-1.4222,-1.4479,-1.478,-1.5202,-1.5604,-1.6008,-1.6425,-1.6587,-1.6831,0.0,0.0,0.0,0.0,0.0,0.0,0.0,0.0,0.0,0.0,0.0,-1.2725,-1.2109,-1.1411,-1.0922,-1.0726,-1.0573,-1.047,-1.0324,-1.0457,-1.0576,-1.0763,-1.0966,-1.1289,-1.176,-1.2149,-1.256,-1.2954,-1.3508,-1.4037,-1.456,-1.4762,-1.5051,-1.5613,-1.6009,-1.6363,-1.6751,-1.6976,-1.7312,-1.77,-1.8041,-1.8247,-1.8259,-1.8302,-1.8302,-1.8356,-1.841,-1.8464,-1.8476,-1.856,-1.8614,-1.8614,-1.8614,-1.8614,-1.856,-1.8452,-1.8278,-1.8124,-1.8333,-1.8541,0.5183,0.4956,0.4798,0.4746,0.4688,0.4415,0.4249,0.4249,0.4411,0.4632,0.4746,0.5018,0.5187,0.5352,0.5686,0.5791,0.585,0.6069,0.6173,0.6173,0.6173,0.6119,0.6,0.5845,0.5631,0.5242,0.4739,0.4232,0.3682,0.2615,0.1683,0.0911,-0.0183,-0.1251,-0.2322,-0.3422,-0.4557,-0.5813,-0.7818,-0.9332,-1.038,-1.1132,-1.192,-1.2768,-1.3242,-1.3715,-1.4203,-1.4388,-1.4823,-1.5547,-1.5658,-1.618,-1.7255,-1.7142,-1.7142,0.0,-1.7073,0.0,0.0,0.0,0.0,0.0,0.0,0.0,0.0,-1.2842,-1.2283,-1.1578,-1.1124,-1.082,-1.0726,-1.0565,-1.047,-1.0324,-1.059,-1.0786,-1.0841,-1.1202,-1.1576,-1.1897,-1.2594,-1.3046,-1.3241,-1.3974,-1.4529,-1.4824,-1.5167,-1.5507,-1.5788,-1.6144,-1.6545,-1.6828,-1.7155,-1.7545,-1.7854,-1.8193,-1.8422,-1.8422,-1.8518,-1.8614,-1.8614,-1.8625,-1.8667,-1.8667,-1.8721,-1.8721,-1.8721,-1.8721,-1.8721,-1.8721,-1.8721,-1.8578,-1.8293,-1.8436,-1.8744,0.5242,0.5187,0.4959,0.4846,0.4846,0.4791,0.4625,0.4463,0.4577,0.4798,0.5018,0.5187,0.5352,0.5567,0.574,0.5845,0.595,0.6119,0.6173,0.6173,0.6173,0.6119,0.6005,0.5845,0.5576,0.5128,0.4684,0.4177,0.36,0.2598,0.1707,0.0946,-0.0232,-0.1385,-0.245,0.0,0.0,0.0,-0.8277,-0.9421,-1.038,-1.1169,-1.1945,-1.2768,-1.3242,0.0,-1.417,-1.4351,-1.4722,-1.5393,-1.5937,0.0,0.0,0.0,0.0,0.0,0.0,0.0,0.0,0.0,0.0,0.0,-1.3999,-1.3525,-1.319,-1.2499,-1.1872,-1.1528,-1.1124,-1.082,-1.0718,-1.0565,-1.047,-1.0324,-1.0423,-1.0677,-1.0909,-1.1166,-1.1628,-1.262,-1.2928,-1.3325,-1.4033,-1.4373,-1.4697,-1.5157,-1.5584,-1.5884,-1.6202,-1.641,-1.6761,-1.7155,-1.7601,-1.792,-1.803,-1.8344,-1.8572,-1.856,-1.856,-1.8667,-1.8732,-1.8881,-1.8987,-1.9028,-1.9198,-1.9263,-1.9263,-1.9251,-1.9251,-1.9251,-1.9251,-1.9081,-1.8608,-1.8738,-1.9011,0.5677,0.0,0.5238,0.5066,0.0,0.4952,0.4842,0.468,0.4794,0.4904,0.5128,0.5348,0.5513,0.5618,0.5786,0.595,0.6,0.6119,0.6173,0.6173,0.6173,0.6123,0.59,0.585,0.5517,0.5014,0.4684,0.4132,0.3461,0.2548,0.164,0.0806,-0.038,-0.155,-0.2719,-0.4422,-0.6016,-0.7502,-0.8537,-0.9558,-1.0524,-1.1234,-1.2018,-1.2826,0.0,0.0,0.0,0.0,0.0,0.0,0.0,0.0,0.0,0.0,0.0,-1.7002,-1.665,-1.6262,-1.5836,-1.5379,-1.488,-1.4419,-1.3716,-1.319,-1.2871,-1.2252,-1.1805,-1.1528,-1.1175,-1.0972,-1.0828,-1.0667,-1.0616,-1.0624,-1.0725,-1.0963,-1.1193,-1.1526,-1.2041,-1.2595,-1.2915,-1.3325,-1.3789,-1.4354,-1.4744,-1.5174,-1.5763,-1.6285,-1.6637,-1.6807,-1.7155,-1.7601,-1.7877,-1.8205,-1.841,-1.8625,-1.8827,-1.8869,-1.8934,-1.8999,-1.9105,-1.9146,-1.9198,-1.9303,-1.9408,-1.9512,-1.9512,-1.9565,-1.9565,-1.9617,-1.9617,-1.954,-1.9242,-1.9226,-1.9263,0.6109,0.585,0.5576,0.5403,0.5391,0.5117,0.5007,0.4956,0.0,0.0,0.0,0.5454,0.5618,0.5677,0.5891,0.6,0.6059,0.6119,0.6173,0.6173,0.6173,0.6064,0.5791,0.5791,0.5458,0.4901,0.4625,0.4132,0.3352,0.2487,0.1514,0.0554,-0.0582,-0.1859,-0.33,-0.5293,-0.6797,-0.7765,-0.8756,-0.9707,-1.0677,-1.1308,-1.2054,-1.2896,-1.331,-1.3669,-1.4,-1.4809,-1.5558,-1.6159,-1.6773,-1.731,-1.7801,-1.7556,-1.728,-1.7002,-1.6607,-1.6219,-1.5836,-1.5379,-1.488,-1.4326,-1.3525,-1.291,-1.2529,-1.2175,-1.1828,-1.1569,-1.1276,-1.1074,-1.0922,-1.082,-1.0769,-1.0871,-1.1031,-1.1264,-1.1386,-1.1888,-1.2229,-1.2434,-1.2842,-1.3195,-1.3414,-1.4179,-1.4779,-1.5059,-1.5817,-1.6631,-1.7056,-1.7368,-1.7601,-1.7975,-1.8193,-1.841,-1.8732,-1.8987,-1.9146,-1.9226,-1.9356,-1.946,-1.9525,-1.9525,-1.9525,-1.9565,-1.9668,-1.972,-1.972,-1.9811,-1.985,-1.9914,-1.9901,-1.9901,-1.9927,-1.9747,-1.9681,0.6282,0.6119,0.5955,0.5841,0.5732,0.5567,0.5403,0.5242,0.5128,0.5238,0.5513,0.5567,0.5732,0.595,0.6,0.6059,0.6173,0.6173,0.6173,0.0,0.6173,0.6064,0.5791,0.5791,0.5517,0.4897,0.4625,0.4132,0.3342,0.2433,0.1514,0.0554,-0.0726,-0.2454,-0.4622,-0.5771,-0.6923,-0.8095,-0.903,-0.9864,-1.0687,-1.1468,-1.2198,-1.2861,-1.3344,-1.3715,-1.4,-1.4789,-1.5488,-1.6078,-1.6674,-1.7166,-1.7517,-1.7461,-1.728,-1.6918,-1.6565,-1.6231,-1.5836,-1.539,-1.4731,-1.3962,-1.342,-1.2987,-1.2529,-1.2224,-1.1977,-1.1669,-1.1427,-1.1175,-1.1015,-1.0913,-1.0863,-1.0804,-1.0955,-1.115,-1.1319,-1.1532,-1.1946,-1.2552,-1.2702,-1.3103,-1.3792,-1.416,-1.456,-1.4993,-1.5807,-1.6656,-1.751,-1.7975,-1.8041,-1.815,-1.8572,-1.8881,-1.904,-1.9303,-1.95,-1.9565,-1.9668,-1.9811,-1.9875,-1.9939,-1.9926,-2.008,-2.008,-2.0131,-2.0131,-2.0131,-2.022,-2.0321,-2.0321,-2.0372,-2.0446,-2.0409,-2.0385,0.6712,0.6554,0.6332,0.6114,0.6009,0.5786,0.5677,0.5576,0.5517,0.5517,0.5618,0.5727,0.5896,0.6,0.6059,0.6173,0.6173,0.6173,0.6173,0.6173,0.6173,0.6064,0.5791,0.5791,0.5517,0.4897,0.4512,0.3959,0.3181,0.2256,0.1277,0.0201,-0.1608,-0.3392,-0.4966,-0.6124,-0.7168,-0.8252,-0.9102,-0.9972,-1.0802,-1.1579,-1.2282,-1.2896,-1.3378,-1.3749,-1.4,-1.5113,-1.582,-1.6055,-1.6987,-1.7504,-1.7489,-1.7365,-1.7183,-1.6918,-1.6534,-1.6144,-1.5836,-1.521,-1.4512,-1.3858,-1.3563,-1.3228,-1.2735,-1.2431,-1.2135,-1.1927,-1.1669,-1.1469,-1.1368,-1.1267,-1.1217,-1.1259,-1.1326,-1.1427,-1.1569,-1.1728,-1.205,-1.2516,-1.2704,-1.3032,-1.355,-1.3992,-1.4461,-1.4961,-1.5785,-1.671,-1.7301,-1.7594,-1.7949,-1.8496,-1.8946,-1.9251,-1.9384,-1.9668,-1.9823,-1.9926,-2.0029,-2.0169,-2.0233,-2.0283,-2.0372,-2.0409,-2.0472,-2.0523,-2.0523,-2.0586,-2.0686,-2.0686,-2.0736,-2.0785,-2.0871,-2.097,-2.0934,0.7139,0.6982,0.6707,0.6445,0.6232,0.5996,0.5887,0.5845,0.585,0.5791,0.5732,0.5896,0.6,0.6059,0.6173,0.6232,0.6232,0.6232,0.6232,0.6232,0.6232,0.6064,0.585,0.5791,0.5517,0.4956,0.4457,0.3849,0.3019,0.2068,0.081,-0.0554,-0.2618,-0.4128,-0.513,-0.6422,-0.7467,-0.8399,-0.9293,-1.0167,-1.0954,-1.1737,-1.2389,-1.2943,-1.3378,-1.3814,-1.4239,-1.5416,-1.6172,-1.6349,-1.7312,-1.7774,-1.7516,-1.7323,-1.717,-1.6876,-1.6504,-1.6057,-1.5659,-1.5028,-1.4395,-1.3952,-1.3716,-1.343,-1.3113,-1.2676,-1.2372,-1.2175,-1.1977,-1.1828,-1.1719,-1.1678,-1.1678,-1.1778,-1.1728,-1.1778,-1.1977,-1.2126,-1.2332,-1.2578,-1.2813,-1.3065,-1.3337,-1.3872,-1.4475,-1.5148,-1.5966,-1.6573,-1.6898,-1.7265,-1.7896,-1.858,-1.9052,-1.9131,-1.9485,-1.9623,-1.976,-1.9898,-2.0137,-2.0263,-2.0364,-2.0542,-2.0709,-2.0759,-2.0858,-2.0908,-2.0957,-2.1019,-2.1082,-2.1131,-2.1131,-2.1166,-2.1286,-2.1396,-2.141,0.7568,0.7413,0.7139,0.6815,0.6381,0.6209,0.6105,0.6,0.6005,0.6,0.6005,0.6,0.6059,0.6173,0.6228,0.6282,0.6386,0.6228,0.6282,0.6386,0.6228,0.6119,0.595,0.5845,0.5517,0.5069,0.4457,0.3793,0.3019,0.1842,0.0162,-0.1868,-0.3128,-0.4335,-0.5555,-0.6641,-0.7724,-0.874,-0.9815,-1.0611,-1.1169,-1.1847,-1.2484,-1.306,-1.3539,-1.4091,-1.4772,-1.5631,-1.6362,-1.6905,-1.7516,-1.7788,-1.7529,-1.7419,-1.7225,-1.6931,-1.6565,-1.61,-1.539,-1.4891,-1.4523,-1.4337,-1.3894,-1.3621,-1.3525,-1.3152,-1.2764,-1.2421,-1.2274,-1.2116,-1.1859,-1.1909,-1.2026,-1.2054,-1.2144,-1.2234,-1.2332,-1.248,-1.2725,-1.2832,-1.3094,-1.3266,-1.3573,-1.4026,-1.466,-1.5538,-1.5997,-1.6492,-1.7099,-1.7471,-1.784,-1.8314,-1.8377,-1.8402,-1.869,-1.884,-1.9157,-1.9331,-1.98,-2.0159,-2.0367,-2.0735,-2.1118,-2.1153,-2.1229,-2.1313,-2.1361,-2.1361,-2.1423,-2.152,-2.1554,-2.1589,-2.1663,-2.1785,-2.1779,0.8103,0.7996,0.7622,0.7187,0.6815,0.6707,0.6544,0.6431,0.6436,0.6436,0.6436,0.6436,0.6386,0.6332,0.644,0.6544,0.6598,0.6495,0.644,0.6381,0.6332,0.6173,0.59,0.585,0.5462,0.4853,0.4353,0.3624,0.267,0.0985,-0.08,-0.2487,-0.3735,-0.5017,-0.6292,-0.7567,-0.8589,-0.9399,-1.0495,-1.1214,-1.1612,-1.2162,-1.265,-1.3107,-1.3573,-1.4185,-1.4892,-1.573,-1.6436,-1.6973,-1.7622,-1.7855,-1.7625,-1.7487,-1.7267,-1.696,-1.6466,-1.5957,-1.5468,-1.5074,-1.4754,-1.443,-1.4186,-1.3999,-1.3716,-1.3478,-1.3238,-1.2987,-1.2715,-1.2421,-1.2274,-1.2274,-1.2382,-1.244,-1.249,-1.2578,-1.2715,-1.291,-1.3094,-1.3286,-1.3536,-1.3752,-1.4046,-1.4455,-1.4959,-1.5568,-1.5877,-1.6339,-1.6769,-1.7097,-1.7422,-1.7756,-1.7774,-1.813,-1.8689,-1.9061,-1.9243,-1.9418,-1.9701,-2.0007,-2.0441,-2.0724,-2.1117,-2.1472,-2.1589,-2.1712,-2.1759,-2.1759,-2.1807,-2.1902,-2.203,-2.2063,-2.2114,-2.2267,-2.2342,0.8626,0.8527,0.8043,0.7622,0.7252,0.7036,0.6874,0.6815,0.6756,0.6707,0.6707,0.6707,0.6657,0.6549,0.6652,0.6707,0.6761,0.6707,0.6593,0.649,0.6436,0.6223,0.59,0.5791,0.5403,0.4739,0.4132,0.3236,0.2004,0.0109,-0.1606,-0.2956,-0.431,-0.5716,-0.7074,-0.844,-0.9473,-1.027,-1.1346,-1.2092,-1.2487,-1.2998,-1.3261,-1.3283,-1.383,-1.4491,-1.5202,-1.5996,-1.6705,-1.7295,-1.7783,-1.7922,-1.776,-1.7556,-1.7363,-1.696,-1.6423,-1.5944,-1.5603,-1.5379,-1.5017,-1.4651,-1.4512,-1.4326,-1.4046,-1.3858,-1.3705,-1.3573,-1.319,-1.291,-1.2676,-1.2666,-1.2706,-1.2813,-1.2861,-1.2958,-1.3152,-1.3324,-1.3515,-1.3716,-1.401,-1.4337,-1.4651,-1.5017,-1.5345,-1.5683,-1.6013,-1.625,-1.6497,-1.6859,-1.7209,-1.7487,-1.7638,-1.7987,-1.8739,-1.8876,-1.9128,-1.9312,-1.9427,-1.9869,-2.0505,-2.0761,-2.1254,-2.1782,-2.1913,-2.203,-2.2123,-2.2184,-2.2263,-2.2356,-2.2449,-2.2526,-2.2498,-2.2694,-2.2844,0.9256,0.9047,0.848,0.8008,0.7639,0.7252,0.7085,0.7031,0.6815,0.6707,0.6707,0.6825,0.6879,0.6825,0.6761,0.6766,0.6879,0.6761,0.6707,0.6647,0.649,0.6273,0.6,0.5732,0.5344,0.4736,0.3959,0.2567,0.0616,-0.0669,-0.2025,-0.3498,-0.4936,-0.6312,-0.7771,-0.9059,-1.0185,-1.1373,-1.2404,-1.3227,-1.3839,-1.4585,-1.4445,-1.3771,-1.4345,-1.5181,-1.5996,-1.6705,-1.7369,-1.812,-1.8068,-1.7962,-1.7882,-1.776,-1.7474,-1.696,-1.6497,-1.6151,-1.5836,-1.5603,-1.5379,-1.5051,-1.4834,-1.4662,-1.4523,-1.4326,-1.414,-1.3973,-1.3821,-1.3525,-1.3142,-1.3132,-1.317,-1.3218,-1.3266,-1.342,-1.3563,-1.381,-1.3973,-1.4057,-1.443,-1.488,-1.5322,-1.5513,-1.578,-1.6088,-1.6466,-1.6723,-1.6934,-1.7269,-1.757,-1.7828,-1.7989,-1.8137,-1.8111,-1.8453,-1.8465,-1.8669,-1.9251,-1.9684,-2.0274,-2.0879,-2.1575,-2.2144,-2.2377,-2.2509,-2.2555,-2.2646,-2.2723,-2.2814,-2.2904,-2.2934,-2.2905,-2.3024,-2.3172,0.9829,0.9309,0.8903,0.844,0.8026,0.7628,0.7413,0.7203,0.6928,0.6825,0.682,0.6766,0.6766,0.6766,0.6707,0.6766,0.6879,0.6766,0.6652,0.649,0.6337,0.6059,0.5727,0.5403,0.4959,0.4294,0.363,0.2176,0.0056,-0.1395,-0.2881,-0.4426,-0.5961,-0.7436,-0.8948,-1.0311,-1.1462,-1.2288,-1.3368,-1.4122,-1.4432,-1.5031,-1.5238,-1.515,-1.5452,-1.6001,-1.6783,-1.718,-1.7644,-1.8161,-1.8175,-1.8161,-1.8069,-1.7868,-1.7529,-1.7115,-1.6765,-1.6411,-1.6163,-1.5944,-1.568,-1.5367,-1.5289,-1.5108,-1.4937,-1.4789,-1.4605,-1.4466,-1.4384,-1.414,-1.3905,-1.3658,-1.3515,-1.3668,-1.3763,-1.3858,-1.4093,-1.4326,-1.443,-1.4512,-1.488,-1.5379,-1.5792,-1.5969,-1.6144,-1.6577,-1.6863,-1.706,-1.731,-1.7639,-1.7975,-1.8175,-1.8397,-1.8606,-1.8673,-1.8581,-1.862,-1.8778,-1.9155,-1.9864,-2.0493,-2.0953,-2.1557,-2.2478,-2.2799,-2.2859,-2.2904,-2.3083,-2.3172,-2.326,-2.3304,-2.3363,-2.3348,-2.3465,-2.3625,1.0403,0.9688,0.9323,0.8811,0.8306,0.7848,0.7461,0.7203,0.6879,0.6766,0.6712,0.6593,0.6485,0.6485,0.6431,0.6431,0.6495,0.6544,0.6431,0.6218,0.6114,0.5786,0.5289,0.4959,0.4405,0.3574,0.2567,0.1115,-0.0669,-0.2228,-0.3776,-0.5311,-0.6929,-0.8521,-1.0026,-1.1499,-1.2579,-1.3384,-1.4469,-1.5205,-1.5457,-1.5996,-1.6469,-1.6783,-1.6932,-1.7052,-1.7329,-1.7712,-1.803,-1.8355,-1.8411,-1.8372,-1.8214,-1.7962,-1.7666,-1.7352,-1.7073,-1.6808,-1.6539,-1.6337,-1.6088,-1.578,-1.5691,-1.5614,-1.5334,-1.5187,-1.5096,-1.5017,-1.4926,-1.4846,-1.4743,-1.4408,-1.4233,-1.4244,-1.4244,-1.4384,-1.4616,-1.4834,-1.5028,-1.5255,-1.5513,-1.5913,-1.6318,-1.6405,-1.662,-1.7031,-1.7269,-1.7475,-1.7733,-1.8095,-1.8411,-1.8461,-1.8798,-1.8988,-1.9078,-1.9101,-1.9049,-1.9168,-1.9473,-2.0118,-2.0783,-2.1193,-2.1794,-2.2717,-2.3157,-2.3201,-2.3348,-2.3538,-2.3625,-2.3668,-2.3754,-2.3809,-2.3852,-2.3867,-2.4009,1.0989,1.0355,0.9695,0.9068,0.8519,0.7794,0.7359,0.7031,0.6603,0.6327,0.6268,0.6213,0.5991,0.5941,0.5778,0.5723,0.5668,0.5941,0.5996,0.5773,0.5719,0.5336,0.4684,0.4291,0.3566,0.2625,0.0893,-0.0613,-0.1892,-0.3329,-0.4812,-0.6279,-0.7929,-0.9555,-1.1015,-1.2473,-1.3679,-1.4665,-1.5692,-1.6536,-1.716,-1.7612,-1.8021,-1.8426,-1.8565,-1.8375,-1.7757,-1.8318,-1.8679,-1.8784,-1.8736,-1.8581,-1.8358,-1.8121,-1.7922,-1.772,-1.7515,-1.7267,-1.6973,-1.6803,-1.6534,-1.6275,-1.6188,-1.61,-1.5881,-1.5724,-1.5635,-1.5591,-1.5558,-1.5513,-1.5468,-1.5412,-1.5232,-1.4789,-1.4823,-1.4949,-1.5108,-1.5334,-1.5647,-1.6013,-1.6188,-1.6405,-1.6748,-1.6918,-1.7086,-1.7447,-1.772,-1.7922,-1.8175,-1.8528,-1.8745,-1.886,-1.9139,-1.9413,-1.9508,-1.9581,-1.9545,-1.9582,-2.0012,-2.0516,-2.1332,-2.1894,-2.2547,-2.337,-2.3595,-2.3638,-2.3739,-2.3882,-2.4009,-2.4094,-2.4177,-2.4245,-2.4343,-2.4343,-2.4385,1.1877,1.1014,1.0146,0.9368,0.8553,0.7729,0.7079,0.6593,0.6055,0.5719,0.5496,0.5277,0.5113,0.4956,0.4783,0.4618,0.4508,0.4508,0.4728,0.5007,0.4838,0.4398,0.3904,0.3289,0.2228,0.0781,-0.0557,-0.1947,-0.3327,-0.4696,-0.6215,-0.7811,-0.9379,-1.0864,-1.222,-1.3611,-1.4744,-1.5564,-1.6502,-1.7242,-1.776,-1.8266,-1.8669,-1.8936,-1.9161,-1.9141,-1.8958,-1.8962,-1.8988,-1.9026,-1.8988,-1.8874,-1.8655,-1.8436,-1.8268,-1.8069,-1.7828,-1.7625,-1.7365,-1.724,-1.7073,-1.6808,-1.6693,-1.6607,-1.6423,-1.6293,-1.6194,-1.6107,-1.6064,-1.6032,-1.6001,-1.6032,-1.5844,-1.5355,-1.5367,-1.549,-1.5724,-1.5932,-1.625,-1.6577,-1.6663,-1.6863,-1.7199,-1.7365,-1.7611,-1.7935,-1.8201,-1.8436,-1.863,-1.8936,-1.9176,-1.925,-1.956,-1.9812,-1.9869,-2.0005,-2.0071,-2.0131,-2.0466,-2.0986,-2.1773,-2.2741,-2.3366,-2.3758,-2.3987,-2.412,-2.4177,-2.4261,-2.4385,-2.4482,-2.4564,-2.4645,-2.4751,-2.4791,-2.4831,1.2842,1.179,1.0643,0.9451,0.8281,0.7289,0.6362,0.5605,0.5003,0.4615,0.4333,0.4058,0.384,0.3677,0.3511,0.334,0.3118,0.2785,0.2892,0.3277,0.3619,0.3231,0.2563,0.1447,0.0222,-0.1223,-0.2388,-0.3652,-0.507,-0.6362,-0.7799,-0.9401,-1.0831,-1.2231,-1.3543,-1.4756,-1.576,-1.6506,-1.7327,-1.8001,-1.8447,-1.8884,-1.9221,-1.9457,-1.966,-1.9767,-1.9797,-1.9654,-1.9493,-1.9362,-1.925,-1.9139,-1.9026,-1.8836,-1.862,-1.8425,-1.8268,-1.8055,-1.7774,-1.7679,-1.7516,-1.7297,-1.7227,-1.7157,-1.7018,-1.6879,-1.6837,-1.674,-1.674,-1.674,-1.6723,-1.6723,-1.6625,-1.6367,-1.6151,-1.6163,-1.6367,-1.6539,-1.6765,-1.7031,-1.7186,-1.7406,-1.7693,-1.7922,-1.8121,-1.8372,-1.8669,-1.8898,-1.9049,-1.9362,-1.9508,-1.9705,-1.994,-2.0131,-2.02,-2.0385,-2.0615,-2.074,-2.0901,-2.1458,-2.2163,-2.3343,-2.4203,-2.4362,-2.4533,-2.4549,-2.4605,-2.467,-2.4751,-2.4846,-2.4926,-2.4989,-2.5107,-2.5185,-2.5224,1.3956,1.2605,1.1023,0.937,0.7687,0.6362,0.5206,0.422,0.3448,0.3058,0.2834,0.2556,0.228,0.2062,0.1893,0.167,0.1391,0.1001,0.0555,0.0666,0.1166,0.1277,0.0501,-0.0889,-0.2161,-0.3319,-0.4522,-0.5716,-0.7046,-0.8306,-0.9607,-1.1105,-1.2426,-1.3642,-1.4902,-1.5966,-1.6873,-1.7558,-1.8277,-1.8869,-1.9244,-1.9551,-1.9854,-2.0135,-2.0224,-2.0292,-2.0308,-2.0326,-2.017,-1.9797,-1.956,-1.9472,-1.9413,-1.9265,-1.9049,-1.886,-1.8707,-1.8514,-1.8254,-1.8161,-1.8002,-1.7841,-1.7747,-1.772,-1.7585,-1.7516,-1.7475,-1.7475,-1.7475,-1.7516,-1.7475,-1.7516,-1.7503,-1.7462,-1.7047,-1.6879,-1.6993,-1.7186,-1.7365,-1.7557,-1.772,-1.7962,-1.8228,-1.8436,-1.863,-1.886,-1.9109,-1.931,-1.9472,-1.9726,-1.997,-2.0131,-2.0289,-2.046,-2.0561,-2.1072,-2.1302,-2.1553,-2.1753,-2.2394,-2.2848,-2.3927,-2.4768,-2.4902,-2.4989,-2.5045,-2.5045,-2.5068,-2.5091,-2.5169,-2.5246,-2.5362,-2.5492,-2.5567,-2.5659,1.511,1.3236,1.112,0.8916,0.6801,0.4965,0.3487,0.2441,0.1663,0.1052,0.0721,0.05,0.0222,-0.0111,-0.0278,-0.0555,-0.0831,-0.1274,-0.1771,-0.2154,-0.2373,-0.2096,-0.2211,-0.3147,-0.4297,-0.5487,-0.6658,-0.7887,-0.924,-1.0338,-1.1639,-1.2962,-1.4063,-1.5147,-1.62,-1.7206,-1.7997,-1.8569,-1.9177,-1.9666,-1.9969,-2.0243,-2.0447,-2.0663,-2.0747,-2.0812,-2.0812,-2.0845,-2.063,-2.0185,-2.001,-1.9904,-1.9812,-1.9669,-1.9472,-1.9288,-1.9109,-1.8945,-1.8784,-1.8707,-1.8616,-1.85,-1.8344,-1.8279,-1.8226,-1.8095,-1.8016,-1.8029,-1.8043,-1.8029,-1.8016,-1.8082,-1.8147,-1.8226,-1.7854,-1.7571,-1.7625,-1.7814,-1.8029,-1.8201,-1.8279,-1.8514,-1.8745,-1.8959,-1.9147,-1.9384,-1.9603,-1.9833,-1.994,-2.0135,-2.0392,-2.046,-2.0579,-2.0778,-2.1052,-2.1615,-2.2001,-2.2341,-2.2833,-2.359,-2.4005,-2.4557,-2.5102,-2.541,-2.5416,-2.5454,-2.5416,-2.5454,-2.5476,-2.5513,-2.5626,-2.5754,-2.5864,-2.5954,-2.6026,1.6331,1.3861,1.0967,0.8037,0.5222,0.2848,0.1156,-0.0055,-0.0826,-0.1432,-0.1818,-0.2041,-0.2208,-0.2432,-0.2705,-0.2925,-0.3254,-0.3744,-0.4229,-0.4873,-0.5672,-0.5511,-0.5093,-0.5586,-0.6653,-0.781,-0.8954,-1.0187,-1.1384,-1.2445,-1.359,-1.4767,-1.5837,-1.6712,-1.7558,-1.8373,-1.9082,-1.9585,-2.0054,-2.0431,-2.0748,-2.0894,-2.1071,-2.1245,-2.1323,-2.1354,-2.1354,-2.1308,-2.1055,-2.0646,-2.0444,-2.0357,-2.027,-2.0115,-1.9925,-1.9747,-1.9624,-1.9515,-1.9332,-1.9273,-1.9199,-1.9087,-1.8936,-1.8898,-1.886,-1.8774,-1.8697,-1.8721,-1.8683,-1.8683,-1.8697,-1.876,-1.8822,-1.8921,-1.8755,-1.8486,-1.8279,-1.8436,-1.8606,-1.8745,-1.8936,-1.9087,-1.9347,-1.9479,-1.963,-1.9793,-2.0,-2.0204,-2.0392,-2.0595,-2.0793,-2.0939,-2.1101,-2.1344,-2.1762,-2.2346,-2.3194,-2.3489,-2.4012,-2.4805,-2.4956,-2.526,-2.548,-2.577,-2.5791,-2.5848,-2.5811,-2.5828,-2.5864,-2.5901,-2.6026,-2.6082,-2.6189,-2.6295,-2.6347,1.7413,1.4075,1.0458,0.6665,0.2846,0.0108,-0.1904,-0.3115,-0.3932,-0.4372,-0.4642,-0.4811,-0.4919,-0.5043,-0.5247,-0.5479,-0.5914,-0.6328,-0.6903,-0.7681,-0.8566,-0.8714,-0.7924,-0.8268,-0.9197,-1.0264,-1.1335,-1.2445,-1.3533,-1.4553,-1.554,-1.6519,-1.7464,-1.8204,-1.8867,-1.9519,-2.0078,-2.055,-2.0862,-2.1165,-2.1444,-2.1582,-2.1702,-2.1882,-2.1911,-2.1924,-2.1882,-2.1827,-2.157,-2.1071,-2.0926,-2.0827,-2.0744,-2.0595,-2.0444,-2.0292,-2.0189,-2.0085,-1.9894,-1.9818,-1.9747,-1.9624,-1.9581,-1.9523,-1.9523,-1.9487,-1.9435,-1.942,-1.9472,-1.9472,-1.9472,-1.9523,-1.9545,-1.9588,-1.9696,-1.9515,-1.9199,-1.9139,-1.9228,-1.925,-1.9566,-1.9711,-1.9869,-1.9995,-2.0174,-2.028,-2.0481,-2.0646,-2.0827,-2.099,-2.1295,-2.1553,-2.1729,-2.1985,-2.2521,-2.3093,-2.4067,-2.483,-2.5344,-2.5855,-2.5782,-2.5944,-2.5961,-2.6082,-2.6154,-2.6208,-2.6208,-2.6225,-2.6225,-2.626,-2.633,-2.64,-2.6469,-2.6607,-2.6674,1.7239,1.221,0.8649,0.3811,-0.131,-0.4033,-0.5658,-0.6644,-0.7158,-0.7483,-0.7663,-0.7663,-0.7733,-0.7856,-0.8053,-0.828,-0.854,-0.9057,-0.9687,-1.0573,-1.1425,-1.2059,-1.1722,-1.1496,-1.1661,-1.2627,-1.3558,-1.4586,-1.5596,-1.6452,-1.7316,-1.8085,-1.8786,-1.9432,-1.9958,-2.0503,-2.0975,-2.1352,-2.1612,-2.1907,-2.2102,-2.2203,-2.2303,-2.2456,-2.2473,-2.2463,-2.2436,-2.2371,-2.2215,-2.1936,-2.1552,-2.1308,-2.1166,-2.1087,-2.0942,-2.0795,-2.0712,-2.0579,-2.0462,-2.0361,-2.0323,-2.0273,-2.0224,-2.0189,-2.017,-2.01,-2.005,-2.0035,-2.005,-2.0085,-2.017,-2.0204,-2.0239,-2.0273,-2.0361,-2.0345,-2.0224,-1.996,-1.9869,-1.9945,-2.005,-2.0189,-2.0426,-2.0545,-2.0663,-2.0812,-2.099,-2.1135,-2.1407,-2.1694,-2.2,-2.2439,-2.2584,-2.2955,-2.3712,-2.4292,-2.511,-2.5781,-2.627,-2.659,-2.6521,-2.6503,-2.6469,-2.6504,-2.6555,-2.6572,-2.659,-2.659,-2.659,-2.664,-2.6674,-2.6742,-2.6808,-2.6908,-2.7006,1.2717,0.776,0.2697,-0.2195,-0.6393,-0.8483,-0.9663,-1.023,-1.0475,-1.0623,-1.0656,-1.0623,-1.059,-1.0615,-1.0773,-1.0971,-1.1326,-1.1826,-1.2464,-1.3179,-1.39,-1.453,-1.5056,-1.4743,-1.472,-1.4989,-1.5615,-1.6548,-1.7424,-1.8149,-1.8846,-1.9495,-2.0085,-2.0538,-2.0975,-2.1428,-2.177,-2.2046,-2.2303,-2.2537,-2.2721,-2.2807,-2.2865,-2.3,-2.2993,-2.2985,-2.2917,-2.285,-2.2782,-2.2616,-2.2303,-2.1953,-2.1705,-2.1587,-2.1448,-2.1339,-2.1261,-2.1166,-2.1055,-2.0942,-2.0926,-2.0909,-2.0861,-2.0812,-2.0812,-2.0747,-2.0747,-2.0714,-2.0747,-2.0747,-2.0828,-2.0828,-2.0861,-2.0909,-2.0958,-2.0991,-2.0942,-2.0663,-2.0444,-2.053,-2.0597,-2.0761,-2.0925,-2.1167,-2.1601,-2.1923,-2.2068,-2.2276,-2.332,-2.3546,-2.3329,-2.3541,-2.3591,-2.4003,-2.4915,-2.5603,-2.6209,-2.6599,-2.6785,-2.6923,-2.6891,-2.6908,-2.6908,-2.6908,-2.6875,-2.694,-2.6923,-2.6923,-2.6923,-2.6956,-2.7006,-2.707,-2.7117,-2.7164,-2.7293,0.6814,0.2209,-0.4167,-0.8689,-1.1637,-1.2967,-1.3565,-1.3749,-1.3766,-1.3581,-1.3527,-1.3419,-1.3211,-1.3216,-1.332,-1.3528,-1.3889,-1.4359,-1.4834,-1.5313,-1.5837,-1.6448,-1.699,-1.733,-1.741,-1.7018,-1.7504,-1.8254,-1.8972,-1.9652,-2.0122,-2.0717,-2.1194,-2.1546,-2.1874,-2.2214,-2.2495,-2.2695,-2.2865,-2.3074,-2.3259,-2.3353,-2.3427,-2.35,-2.3491,-2.3445,-2.3399,-2.3324,-2.3253,-2.3212,-2.3091,-2.2773,-2.2439,-2.2096,-2.2015,-2.1928,-2.184,-2.1735,-2.1628,-2.1538,-2.1524,-2.1524,-2.1477,-2.1446,-2.143,-2.143,-2.1446,-2.143,-2.143,-2.143,-2.1446,-2.1446,-2.1477,-2.1507,-2.1524,-2.1617,-2.1716,-2.1485,-2.1423,-2.1087,-2.1408,-2.1697,-2.1824,-2.2064,-2.2566,-2.3005,-2.3148,-2.3539,-2.4546,-2.5043,-2.4622,-2.4605,-2.4703,-2.5152,-2.5994,-2.6371,-2.7037,-2.7172,-2.7276,-2.7276,-2.7307,-2.7369,-2.7355,-2.7198,-2.7166,-2.7261,-2.7276,-2.7276,-2.7276,-2.7276,-2.7307,-2.7321,-2.7382,-2.7426,-2.7604,0.3074,-0.3283,-0.74,-1.1896,-1.6019,-1.7051,-1.715,-1.697,-1.6593,-1.6283,-1.6008,-1.5788,-1.5497,-1.5389,-1.5533,-1.5794,-1.6052,-1.6376,-1.6683,-1.7085,-1.7558,-1.8048,-1.8484,-1.9023,-1.9367,-1.9602,-1.9551,-1.9708,-2.0206,-2.0766,-2.1209,-2.1681,-2.2029,-2.2324,-2.2548,-2.2822,-2.3052,-2.3236,-2.3392,-2.3584,-2.3714,-2.3816,-2.3899,-2.3943,-2.3919,-2.3878,-2.3837,-2.3753,-2.3689,-2.3671,-2.3544,-2.3455,-2.3236,-2.284,-2.259,-2.2473,-2.2375,-2.2275,-2.2175,-2.2108,-2.2079,-2.2051,-2.2051,-2.2051,-2.2051,-2.2034,-2.2051,-2.2051,-2.2051,-2.2051,-2.2034,-2.2106,-2.2084,-2.2113,-2.2293,-2.2519,-2.2958,-2.3059,-2.2744,-2.2255,-2.2471,-2.2737,-2.2929,-2.3157,-2.3681,-2.4107,-2.4347,-2.4577,-2.524,-2.5506,-2.5347,-2.5502,-2.5837,-2.6411,-2.7109,-2.726,-2.7577,-2.756,-2.7612,-2.7612,-2.7672,-2.7806,-2.7795,-2.763,-2.7569,-2.76,-2.7612,-2.7612,-2.7612,-2.7612,-2.7624,-2.7624,-2.7648,-2.7707,-2.8076,-0.4714,-0.9893,-1.4335,-1.7838,-2.0171,-2.0355,-2.0004,-1.9478,-1.895,-1.8469,-1.8093,-1.7796,-1.7505,-1.7289,-1.7302,-1.7518,-1.7732,-1.8062,-1.8296,-1.8641,-1.8979,-1.9396,-1.9773,-2.0234,-2.0619,-2.0943,-2.1022,-2.1053,-2.1303,-2.1694,-2.213,-2.2483,-2.2798,-2.2989,-2.3159,-2.3369,-2.357,-2.3699,-2.3881,-2.4019,-2.4117,-2.4211,-2.4284,-2.4319,-2.4301,-2.4265,-2.4247,-2.4174,-2.4099,-2.4098,-2.4039,-2.3979,-2.3842,-2.3635,-2.3277,-2.3056,-2.2908,-2.2815,-2.2738,-2.2686,-2.2652,-2.2652,-2.2652,-2.2669,-2.2669,-2.2669,-2.2643,-2.2634,-2.2607,-2.2607,-2.2554,-2.2924,-2.3148,-2.3278,-2.3495,-2.3902,-2.4257,-2.4462,-2.4143,-2.3671,-2.3925,-2.4105,-2.4088,-2.4403,-2.4851,-2.5227,-2.5488,-2.5784,-2.6068,-2.6196,-2.6243,-2.6481,-2.6789,-2.7087,-2.7613,-2.7765,-2.7904,-2.7933,-2.7933,-2.7933,-2.8007,-2.8109,-2.8136,-2.8081,-2.8035,-2.8007,-2.7979,-2.7979,-2.7979,-2.7961,-2.7961,-2.7943,-2.7918,-2.8017,-2.8503,-1.2412,-1.6098,-2.0689,-2.3044,-2.3502,-2.288,-2.2117,-2.142,-2.0735,-2.0144,-1.9758,-1.9447,-1.9119,-1.8896,-1.8858,-1.8948,-1.9096,-1.9441,-1.9641,-1.9873,-2.015,-2.0536,-2.0911,-2.1243,-2.1502,-2.1811,-2.2169,-2.2358,-2.2203,-2.2449,-2.2824,-2.3074,-2.3376,-2.358,-2.3692,-2.3862,-2.402,-2.4155,-2.4284,-2.4391,-2.4456,-2.4538,-2.4636,-2.4666,-2.4636,-2.4601,-2.4601,-2.4538,-2.4489,-2.4474,-2.4424,-2.4391,-2.4374,-2.4284,-2.4023,-2.366,-2.35,-2.3382,-2.3294,-2.3224,-2.32,-2.32,-2.3218,-2.3236,-2.3194,-2.3153,-2.3146,-2.3133,-2.3379,-2.3425,-2.3541,-2.405,-2.4418,-2.4602,-2.4989,-2.5428,-2.5578,-2.5755,-2.5985,-2.5717,-2.561,-2.5472,-2.5449,-2.5802,-2.6289,-2.644,-2.6731,-2.6847,-2.7144,-2.7331,-2.743,-2.7536,-2.7706,-2.7773,-2.7971,-2.8055,-2.8174,-2.8228,-2.8255,-2.8255,-2.8282,-2.8353,-2.8398,-2.8442,-2.8406,-2.8362,-2.8327,-2.8318,-2.8255,-2.8255,-2.8282,-2.8237,-2.8174,-2.8604,-2.9233,-1.677,-2.0213,-2.2666,-2.4081,-2.4466,-2.3992,-2.3336,-2.2607,-2.1945,-2.1439,-2.0895,-2.0618,-2.0265,-2.0024,-1.9954,-2.0108,-2.033,-2.0467,-2.0667,-2.0879,-2.1133,-2.1428,-2.1744,-2.2034,-2.2224,-2.2512,-2.2865,-2.29,-2.2857,-2.3056,-2.3312,-2.354,-2.3774,-2.3959,-2.4079,-2.4247,-2.4388,-2.4526,-2.4604,-2.4746,-2.4861,-2.491,-2.4968,-2.4981,-2.4949,-2.4923,-2.4923,-2.485,-2.4828,-2.4828,-2.478,-2.4737,-2.4727,-2.4685,-2.4639,-2.4424,-2.4192,-2.3896,-2.3798,-2.3735,-2.3714,-2.3714,-2.3692,-2.3671,-2.3646,-2.3674,-2.3688,-2.3576,-2.4185,-2.4615,-2.4735,-2.5392,-2.5733,-2.5913,-2.6079,-2.6509,-2.6785,-2.6939,-2.7161,-2.7402,-2.7184,-2.6943,-2.6783,-2.7242,-2.7674,-2.7819,-2.7901,-2.7974,-2.802,-2.8101,-2.8119,-2.8146,-2.8128,-2.8201,-2.8237,-2.8362,-2.8414,-2.8484,-2.851,-2.8536,-2.8587,-2.863,-2.8728,-2.8753,-2.8778,-2.896,-2.9152,-2.9065,-2.8732,-2.8815,-2.9166,-2.8853,-2.837,-2.907,-2.9997,-2.0778,-2.2282,-2.3818,-2.4648,-2.49,-2.4506,-2.3952,-2.333,-2.2702,-2.2207,-2.1782,-2.1444,-2.1166,-2.091,-2.091,-2.0991,-2.1134,-2.1306,-2.1535,-2.1698,-2.1931,-2.2175,-2.2439,-2.2634,-2.2822,-2.3093,-2.3364,-2.3566,-2.3544,-2.3628,-2.3792,-2.3941,-2.4154,-2.432,-2.4424,-2.4554,-2.4697,-2.4818,-2.4923,-2.5043,-2.5096,-2.5152,-2.5203,-2.5214,-2.5184,-2.5154,-2.5163,-2.5149,-2.5126,-2.5115,-2.5061,-2.5037,-2.5,-2.4962,-2.491,-2.4893,-2.4712,-2.447,-2.4264,-2.4192,-2.4155,-2.4154,-2.4117,-2.4079,-2.413,-2.4438,-2.4655,-2.4655,-2.5382,-2.5779,-2.594,-2.6513,-2.6799,-2.7017,-2.7222,-2.7543,-2.7907,-2.8094,-2.8294,-2.853,-2.8658,-2.8214,-2.7861,-2.8018,-2.821,-2.8219,-2.8281,-2.8326,-2.837,-2.8414,-2.8432,-2.8414,-2.844,-2.8466,-2.8518,-2.8569,-2.8644,-2.8712,-2.8743,-2.8785,-2.881,-2.8876,-2.9161,-2.946,-2.9703,-2.9868,-3.0045,-2.9905,-2.9648,-2.9867,-3.0184,-2.9701,-2.9315,-3.0115,-3.102,-2.3686,-2.379,-2.4632,-2.5027,-2.5047,-2.4727,-2.4261,-2.3744,-2.3212,-2.2746,-2.2351,-2.201,-2.1781,-2.1691,-2.1658,-2.1672,-2.1807,-2.2084,-2.2237,-2.2412,-2.2599,-2.2789,-2.2989,-2.3159,-2.3351,-2.357,-2.3842,-2.4002,-2.4155,-2.4211,-2.4247,-2.4302,-2.4474,-2.4623,-2.4712,-2.4804,-2.4943,-2.5084,-2.5194,-2.5265,-2.5283,-2.5337,-2.5363,-2.5382,-2.5382,-2.5363,-2.5363,-2.5337,-2.5348,-2.533,-2.5303,-2.5265,-2.5254,-2.5205,-2.5163,-2.5149,-2.5041,-2.4943,-2.4747,-2.4598,-2.4538,-2.4566,-2.4737,-2.4835,-2.4855,-2.5394,-2.5875,-2.5838,-2.6539,-2.6907,-2.7106,-2.7632,-2.7978,-2.8231,-2.8448,-2.8737,-2.892,-2.8833,-2.8801,-2.8915,-2.8989,-2.903,-2.875,-2.873,-2.8725,-2.8644,-2.8662,-2.8705,-2.8705,-2.8687,-2.8687,-2.8687,-2.8694,-2.8694,-2.8743,-2.8791,-2.8881,-2.9002,-2.9049,-2.926,-2.943,-2.9642,-2.9886,-3.0226,-3.0618,-3.1043,-3.137,-3.0962,-3.0595,-3.0742,-3.0797,-3.0564,-3.0564,-3.1323,-3.1992,-2.483,-2.5077,-2.5152,-2.5148,-2.5062,-2.4676,-2.4299,-2.3899,-2.3463,-2.306,-2.2677,-2.2337,-2.2186,-2.226,-2.2209,-2.2275,-2.25,-2.2668,-2.2807,-2.2985,-2.3206,-2.3335,-2.3518,-2.3674,-2.3862,-2.4041,-2.4229,-2.4405,-2.4556,-2.4644,-2.4632,-2.4604,-2.4737,-2.485,-2.4956,-2.5046,-2.5175,-2.5312,-2.5398,-2.5452,-2.546,-2.5505,-2.5549,-2.5568,-2.5568,-2.5587,-2.5568,-2.5525,-2.5493,-2.5479,-2.5453,-2.5452,-2.5449,-2.5398,-2.5354,-2.5329,-2.5293,-2.5274,-2.5305,-2.5032,-2.4912,-2.5068,-2.5442,-2.585,-2.5855,-2.6533,-2.6928,-2.7044,-2.7718,-2.8073,-2.8371,-2.8742,-2.8979,-2.9052,-2.9084,-2.9138,-2.923,-2.923,-2.9214,-2.9254,-2.9251,-2.9249,-2.9249,-2.9119,-2.9007,-2.8934,-2.8881,-2.8905,-2.8947,-2.8947,-2.8929,-2.8929,-2.8952,-2.8952,-2.8975,-2.904,-2.914,-2.9392,-2.9529,-2.9924,-3.0339,-3.0528,-3.0717,-3.1281,-3.1727,-3.221,-3.2581,-3.2252,-3.1945,-3.1639,-3.1542,-3.1727,-3.1998,-3.2637,-3.3179,-2.5137,-2.5187,-2.5077,-2.4985,-2.495,-2.4633,-2.4301,-2.3958,-2.3576,-2.3175,-2.2816,-2.2615,-2.2588,-2.2615,-2.2703,-2.2764,-2.2935,-2.3151,-2.3277,-2.3422,-2.3602,-2.3774,-2.3941,-2.4098,-2.4284,-2.4424,-2.457,-2.4708,-2.4842,-2.4956,-2.5049,-2.5049,-2.503,-2.5088,-2.5194,-2.5274,-2.5379,-2.5456,-2.5531,-2.5554,-2.5576,-2.5578,-2.56,-2.56,-2.5601,-2.5598,-2.5613,-2.5619,-2.5615,-2.561,-2.5586,-2.5576,-2.5604,-2.5562,-2.5583,-2.5576,-2.5556,-2.5805,-2.6009,-2.5629,-2.5302,-2.5946,-2.654,-2.7025,-2.6982,-2.7657,-2.8001,-2.8312,-2.8753,-2.9115,-2.9229,-2.9401,-2.9514,-2.9551,-2.9551,-2.9532,-2.9493,-2.9493,-2.9474,-2.9454,-2.9434,-2.9433,-2.9433,-2.9412,-2.9289,-2.92,-2.9156,-2.9112,-2.9152,-2.9152,-2.9134,-2.9134,-2.9156,-2.9285,-2.9304,-2.9388,-2.945,-2.9789,-3.0111,-3.0677,-3.1222,-3.139,-3.1672,-3.2254,-3.2783,-3.3134,-3.3396,-3.3463,-3.3287,-3.2934,-3.3069,-3.3371,-3.3724,-3.3905,-3.403,-2.5189,-2.5091,-2.4905,-2.4788,-2.4769,-2.45,-2.4211,-2.3901,-2.3598,-2.3271,-2.2893,-2.285,-2.2893,-2.297,-2.307,-2.3182,-2.3324,-2.3513,-2.3667,-2.3816,-2.3941,-2.4135,-2.4302,-2.4459,-2.4588,-2.4727,-2.4836,-2.4975,-2.5091,-2.5222,-2.5264,-2.5303,-2.535,-2.5357,-2.5363,-2.5453,-2.5543,-2.5565,-2.56,-2.5629,-2.5642,-2.5627,-2.5638,-2.5638,-2.5633,-2.5648,-2.5646,-2.5661,-2.5676,-2.5671,-2.5645,-2.5642,-2.571,-2.5816,-2.5955,-2.6038,-2.6218,-2.659,-2.678,-2.6663,-2.6304,-2.6894,-2.7668,-2.8007,-2.823,-2.8725,-2.9131,-2.9189,-2.9661,-2.9956,-2.9826,-2.9817,-2.9805,-2.9787,-2.9755,-2.9719,-2.9701,-2.9664,-2.9645,-2.9626,-2.9626,-2.9608,-2.9626,-2.9645,-2.9603,-2.9465,-2.9349,-2.9307,-2.9307,-2.9328,-2.9307,-2.9328,-2.9328,-2.9514,-2.9702,-2.993,-3.0253,-3.0852,-3.1231,-3.1665,-3.2079,-3.2287,-3.2739,-3.3438,-3.3851,-3.4057,-3.4132,-3.413,-3.4192,-3.4209,-3.4232,-3.4143,-3.4134,-3.4186,-3.4265,-2.5022,-2.4891,-2.4671,-2.4596,-2.4542,-2.4264,-2.4002,-2.3803,-2.3531,-2.3289,-2.3077,-2.3045,-2.3119,-2.3265,-2.336,-2.3486,-2.3685,-2.3876,-2.4018,-2.4135,-2.4265,-2.4424,-2.4556,-2.4697,-2.4861,-2.5013,-2.5103,-2.5192,-2.5303,-2.5367,-2.5434,-2.5473,-2.5499,-2.5511,-2.5486,-2.5565,-2.5644,-2.5701,-2.5696,-2.57,-2.5683,-2.5683,-2.5682,-2.5661,-2.5682,-2.5683,-2.5937,-2.5957,-2.6035,-2.619,-2.6168,-2.6164,-2.614,-2.6696,-2.6919,-2.6958,-2.7581,-2.7978,-2.8136,-2.8002,-2.8004,-2.8019,-2.8673,-2.9071,-2.9236,-2.9675,-3.0061,-2.9883,-3.0103,-3.0157,-3.0109,-3.0064,-3.0019,-2.9972,-2.9926,-2.9895,-2.9876,-2.9825,-2.979,-3.0074,-2.9979,-2.9828,-2.9848,-2.985,-2.9889,-2.9776,-2.9587,-2.9548,-2.964,-2.9752,-2.9826,-3.0144,-3.02,-3.037,-3.0652,-3.073,-3.1069,-3.1727,-3.2274,-3.2632,-3.3029,-3.3312,-3.3879,-3.4542,-3.4598,-3.4502,-3.4617,-3.4732,-3.4645,-3.4536,-3.451,-3.4473,-3.4446,-3.4446,-3.4491,-2.4766,-2.4572,-2.4465,-2.4321,-2.421,-2.4079,-2.3937,-2.3768,-2.3544,-2.336,-2.3313,-2.3265,-2.3383,-2.3544,-2.366,-2.3771,-2.3976,-2.4172,-2.4303,-2.4389,-2.4559,-2.4719,-2.4832,-2.4936,-2.5068,-2.519,-2.5303,-2.5369,-2.5448,-2.5568,-2.5564,-2.5571,-2.587,-2.5655,-2.5636,-2.5657,-2.5696,-2.5702,-2.5703,-2.5697,-2.5718,-2.5752,-2.5768,-2.5759,-2.581,-2.6071,-2.652,-2.6561,-2.6741,-2.7118,-2.7183,-2.7225,-2.7265,-2.7772,-2.7845,-2.786,-2.8279,-2.8541,-2.9055,-2.9348,-2.9486,-2.9396,-2.9524,-2.9989,-3.0105,-3.0211,-3.0372,-3.0375,-3.0323,-3.0286,-3.0228,-3.0174,-3.0138,-3.0128,-3.0083,-3.0038,-3.0007,-2.9926,-2.9952,-3.054,-3.0691,-3.1013,-3.1128,-3.0956,-3.0865,-3.0659,-3.049,-3.0377,-3.0433,-3.0583,-3.0694,-3.1239,-3.1503,-3.1541,-3.1636,-3.1693,-3.2089,-3.2806,-3.3201,-3.3485,-3.3863,-3.4187,-3.4413,-3.4773,-3.483,-3.4886,-3.4887,-3.4868,-3.4788,-3.4706,-3.4703,-3.4682,-3.4623,-3.4623,-3.4623,-2.4526,-2.4302,-2.4229,-2.4115,-2.3978,-2.3935,-2.3828,-2.3674,-2.3517,-2.3453,-2.3499,-2.3499,-2.3611,-2.3768,-2.3896,-2.4019,-2.421,-2.441,-2.4564,-2.4636,-2.4808,-2.4934,-2.505,-2.5118,-2.5224,-2.5341,-2.5393,-2.5456,-2.5564,-2.5898,-2.6301,-2.6617,-2.6546,-2.6771,-2.6637,-2.6504,-2.6209,-2.6301,-2.6442,-2.676,-2.672,-2.6669,-2.6641,-2.6636,-2.6704,-2.6872,-2.7266,-2.7503,-2.7667,-2.8161,-2.833,-2.834,-2.8367,-2.8589,-2.8691,-2.8749,-2.9135,-2.9439,-2.9994,-3.0297,-3.0234,-2.9959,-3.0411,-3.0568,-3.0574,-3.0537,-3.051,-3.0501,-3.0439,-3.0394,-3.0359,-3.0299,-3.0279,-3.0259,-3.0261,-3.0233,-3.0575,-3.0532,-3.0772,-3.1324,-3.1762,-3.2123,-3.2334,-3.2237,-3.2048,-3.1766,-3.1485,-3.1411,-3.1337,-3.1412,-3.1581,-3.2071,-3.2391,-3.2354,-3.2448,-3.2656,-3.3166,-3.3885,-3.4093,-3.4187,-3.4453,-3.4737,-3.487,-3.4965,-3.4984,-3.4984,-3.4965,-3.4927,-3.4907,-3.4888,-3.4888,-3.483,-3.479,-3.4749,-3.4747,-2.4266,-2.4097,-2.4018,-2.3976,-2.3896,-2.385,-2.37,-2.3522,-2.3517,-2.3589,-2.37,-2.3682,-2.381,-2.3996,-2.4096,-2.4229,-2.4425,-2.461,-2.4764,-2.4893,-2.5,-2.5118,-2.5201,-2.5274,-2.5339,-2.5426,-2.5601,-2.5867,-2.58,-2.6567,-2.7384,-2.7881,-2.7812,-2.7811,-2.7651,-2.7526,-2.7145,-2.7186,-2.7379,-2.7639,-2.762,-2.7829,-2.7721,-2.7696,-2.776,-2.7926,-2.8165,-2.8277,-2.8368,-2.8532,-2.854,-2.8499,-2.8706,-2.9199,-2.9482,-2.9822,-3.0371,-3.0541,-3.0652,-3.0784,-3.0749,-3.0516,-3.0623,-3.071,-3.069,-3.0642,-3.061,-3.0576,-3.0521,-3.051,-3.0499,-3.0444,-3.0417,-3.0433,-3.0477,-3.0767,-3.1312,-3.1558,-3.1854,-3.2295,-3.2697,-3.3004,-3.3101,-3.3044,-3.3159,-3.3121,-3.2897,-3.2842,-3.2693,-3.2354,-3.2543,-3.2826,-3.3034,-3.3034,-3.3204,-3.3564,-3.3847,-3.4453,-3.4642,-3.4756,-3.502,-3.5076,-3.5058,-3.5039,-3.5075,-3.5075,-3.5039,-3.5039,-3.5057,-3.5039,-3.5002,-3.4946,-3.4869,-3.4829,-3.4807,-2.4113,-2.3958,-2.3937,-2.3896,-2.3816,-2.3813,-2.3747,-2.3656,-2.3696,-2.3765,-2.3852,-2.3894,-2.4036,-2.421,-2.4284,-2.4442,-2.4607,-2.4741,-2.4915,-2.505,-2.5157,-2.5262,-2.5341,-2.5412,-2.5449,-2.5719,-2.6054,-2.6461,-2.6727,-2.744,-2.7938,-2.8222,-2.8552,-2.8483,-2.8544,-2.8606,-2.8299,-2.8106,-2.8301,-2.8357,-2.8339,-2.8346,-2.8333,-2.8365,-2.8379,-2.8586,-2.8968,-2.9088,-2.9294,-2.9805,-2.9981,-3.0057,-3.0135,-3.0333,-3.0448,-3.0456,-3.0721,-3.0859,-3.0877,-3.0888,-3.0858,-3.081,-3.0774,-3.0769,-3.0753,-3.0717,-3.0683,-3.0626,-3.0613,-3.0577,-3.0637,-3.0625,-3.0783,-3.0956,-3.1117,-3.1596,-3.2091,-3.2416,-3.2752,-3.3296,-3.3699,-3.3946,-3.4006,-3.412,-3.4217,-3.4312,-3.4293,-3.4144,-3.3938,-3.3561,-3.3448,-3.3694,-3.3846,-3.3884,-3.4206,-3.4546,-3.4716,-3.4962,-3.5056,-3.5075,-3.5092,-3.5092,-3.5092,-3.511,-3.5127,-3.511,-3.5092,-3.511,-3.5127,-3.5111,-3.5076,-3.502,-3.4983,-3.5059,-3.5114,-2.3976,-2.3896,-2.3894,-2.3912,-2.3915,-2.3935,-2.3894,-2.3891,-2.3891,-2.3935,-2.4036,-2.4096,-2.4247,-2.4392,-2.4512,-2.4642,-2.4775,-2.4929,-2.5056,-2.519,-2.5274,-2.5359,-2.5445,-2.5575,-2.5816,-2.6149,-2.6607,-2.7059,-2.7573,-2.833,-2.8906,-2.9386,-2.9301,-2.9266,-2.9457,-2.9713,-2.9679,-2.9405,-2.9246,-2.9143,-2.9057,-2.9016,-2.9078,-2.9001,-2.9024,-2.938,-2.977,-2.9914,-3.0257,-3.0633,-3.0739,-3.0769,-3.0765,-3.0771,-3.0771,-3.0743,-3.0792,-3.0878,-3.0879,-3.0916,-3.0889,-3.0843,-3.0819,-3.0785,-3.0798,-3.0764,-3.073,-3.0678,-3.0661,-3.0649,-3.0741,-3.0878,-3.1242,-3.16,-3.2045,-3.2487,-3.2837,-3.3183,-3.3697,-3.4298,-3.4664,-3.4914,-3.5049,-3.5145,-3.5107,-3.4933,-3.4838,-3.4819,-3.4689,-3.4466,-3.4391,-3.4526,-3.4715,-3.4846,-3.5092,-3.511,-3.5091,-3.5091,-3.511,-3.5147,-3.5127,-3.5126,-3.5143,-3.5143,-3.5162,-3.5164,-3.5221,-3.5145,-3.5143,-3.5259,-3.5547,-3.5757,-3.5779,-3.5742,-3.5761,-2.3896,-2.3896,-2.391,-2.3992,-2.411,-2.4094,-2.4133,-2.4209,-2.4095,-2.4134,-2.4229,-2.4358,-2.4462,-2.4596,-2.4723,-2.4823,-2.4929,-2.5049,-2.5201,-2.5322,-2.5357,-2.5422,-2.5518,-2.5685,-2.6184,-2.6714,-2.7363,-2.8083,-2.8654,-2.9315,-3.0033,-3.0781,-3.0609,-3.0443,-3.0419,-3.0477,-3.0397,-3.0277,-3.0224,-3.0222,-3.0327,-3.0485,-3.0621,-3.0477,-3.0447,-3.0532,-3.0595,-3.0656,-3.0697,-3.0691,-3.071,-3.0753,-3.0779,-3.0802,-3.0801,-3.0794,-3.0801,-3.0831,-3.0877,-3.0898,-3.0915,-3.0889,-3.086,-3.0816,-3.0801,-3.0789,-3.0753,-3.0847,-3.0859,-3.1057,-3.118,-3.168,-3.2135,-3.2535,-3.2952,-3.3481,-3.3972,-3.4184,-3.4378,-3.4827,-3.4964,-3.5176,-3.5176,-3.516,-3.516,-3.5193,-3.5193,-3.5193,-3.5138,-3.5011,-3.5032,-3.5072,-3.5108,-3.5126,-3.5127,-3.5145,-3.5145,-3.5145,-3.5181,-3.5198,-3.516,-3.5176,-3.5174,-3.5193,-3.5176,-3.5329,-3.5403,-3.5463,-3.5692,-3.5959,-3.6247,-3.659,-3.665,-3.6634,-3.673,-2.3917,-2.3996,-2.4034,-2.4112,-2.417,-2.4228,-2.4284,-2.4358,-2.4446,-2.4391,-2.4391,-2.4493,-2.4626,-2.4768,-2.4884,-2.4987,-2.5049,-2.5182,-2.5293,-2.5385,-2.5437,-2.5602,-2.5749,-2.6213,-2.6708,-2.7289,-2.8129,-2.9279,-2.99,-3.0389,-3.0577,-3.0768,-3.0785,-3.079,-3.0779,-3.0759,-3.073,-3.0695,-3.0653,-3.0618,-3.0613,-3.0606,-3.0616,-3.0606,-3.0615,-3.0604,-3.0649,-3.0692,-3.0688,-3.0703,-3.0704,-3.0736,-3.0789,-3.0784,-3.0798,-3.0794,-3.0791,-3.0804,-3.0831,-3.0877,-3.0918,-3.0915,-3.0891,-3.0843,-3.081,-3.0802,-3.0872,-3.1031,-3.1203,-3.1442,-3.1833,-3.2452,-3.3006,-3.342,-3.3848,-3.4462,-3.5032,-3.5038,-3.5044,-3.5124,-3.5207,-3.5226,-3.519,-3.519,-3.519,-3.519,-3.519,-3.5174,-3.5174,-3.5119,-3.5119,-3.5141,-3.5157,-3.5176,-3.516,-3.516,-3.516,-3.5176,-3.5176,-3.5193,-3.519,-3.519,-3.519,-3.519,-3.5212,-3.5534,-3.5878,-3.6167,-3.6396,-3.6642,-3.7063,-3.741,-3.7734,-3.7793,-3.7928,-2.4016,-2.4094,-2.419,-2.4266,-2.4339,-2.4411,-2.4481,-2.4551,-2.4629,-2.4657,-2.4639,-2.47,-2.4794,-2.4907,-2.5013,-2.5111,-2.5192,-2.5303,-2.5385,-2.5437,-2.5609,-2.5871,-2.6238,-2.6775,-2.7589,-2.8226,-2.9381,-3.0428,-3.0857,-3.0891,-3.0821,-3.0804,-3.0798,-3.0782,-3.075,-3.0728,-3.0672,-3.0645,-3.061,-3.0613,-3.0606,-3.0607,-3.0617,-3.0607,-3.0616,-3.0606,-3.0623,-3.0649,-3.0665,-3.0688,-3.0697,-3.0698,-3.0748,-3.0764,-3.0779,-3.0798,-3.0798,-3.0794,-3.0804,-3.0889,-3.0955,-3.0976,-3.0953,-3.0927,-3.1482,-3.1519,-3.1514,-3.1637,-3.1623,-3.1845,-3.2625,-3.3283,-3.3664,-3.403,-3.4535,-3.5091,-3.5276,-3.5264,-3.5224,-3.5212,-3.5254,-3.5254,-3.5235,-3.5254,-3.5254,-3.5261,-3.5242,-3.5209,-3.5209,-3.519,-3.519,-3.519,-3.519,-3.519,-3.5193,-3.5193,-3.5193,-3.5174,-3.519,-3.519,-3.519,-3.519,-3.519,-3.5343,-3.5592,-3.5993,-3.6356,-3.6814,-3.7063,-3.7273,-3.7769,-3.8285,-3.8554,-3.884,-3.8995,-2.4152,-2.4247,-2.4376,-2.4464,-2.4528,-2.4599,-2.4647,-2.4714,-2.4783,-2.487,-2.4912,-2.4926,-2.4974,-2.505,-2.5157,-2.5252,-2.5332,-2.5393,-2.5444,-2.557,-2.5768,-2.6174,-2.6712,-2.7319,-2.8402,-2.9396,-3.0366,-3.0683,-3.0903,-3.0899,-3.0855,-3.0817,-3.0786,-3.0759,-3.072,-3.0697,-3.0672,-3.0634,-3.0621,-3.0604,-3.0616,-3.0617,-3.0617,-3.0617,-3.0617,-3.0616,-3.0615,-3.0613,-3.0629,-3.0661,-3.069,-3.0711,-3.0704,-3.0748,-3.0784,-3.0784,-3.0786,-3.0785,-3.0855,-3.1075,-3.1107,-3.1132,-3.1092,-3.1477,-3.2112,-3.2274,-3.2257,-3.245,-3.2439,-3.2694,-3.3483,-3.4057,-3.442,-3.4631,-3.5156,-3.5489,-3.5463,-3.5412,-3.5364,-3.5335,-3.5315,-3.5296,-3.5281,-3.53,-3.532,-3.5308,-3.5296,-3.5261,-3.5245,-3.5209,-3.519,-3.519,-3.519,-3.519,-3.519,-3.519,-3.5209,-3.519,-3.519,-3.519,-3.5267,-3.5496,-3.5649,-3.5687,-3.5993,-3.6642,-3.7139,-3.7617,-3.7808,-3.8075,-3.8629,-3.9164,-3.9279,-3.9547,-3.9891,-2.4284,-2.4447,-2.4462,-2.4564,-2.466,-2.4657,-2.4723,-2.4798,-2.4922,-2.4985,-2.5044,-2.5118,-2.5134,-2.5145,-2.5302,-2.5379,-2.5385,-2.5456,-2.5544,-2.5621,-2.6213,-2.6654,-2.7355,-2.8427,-2.9623,-3.0339,-3.076,-3.0857,-3.0901,-3.0897,-3.0852,-3.0798,-3.0798,-3.0759,-3.0714,-3.0691,-3.0672,-3.0634,-3.0621,-3.0604,-3.0616,-3.0617,-3.0617,-3.0617,-3.0617,-3.0598,-3.0616,-3.0606,-3.0613,-3.0637,-3.0676,-3.0697,-3.0717,-3.0736,-3.0753,-3.0867,-3.0852,-3.0989,-3.1116,-3.1597,-3.1788,-3.1951,-3.2129,-3.2687,-3.307,-3.3138,-3.3395,-3.4003,-3.4038,-3.4004,-3.4574,-3.5033,-3.5369,-3.5301,-3.5566,-3.5546,-3.5502,-3.5455,-3.5412,-3.5364,-3.535,-3.533,-3.533,-3.5315,-3.5335,-3.5339,-3.5308,-3.5293,-3.5261,-3.5226,-3.5248,-3.5324,-3.5362,-3.519,-3.519,-3.5209,-3.5209,-3.5209,-3.5343,-3.5611,-3.5823,-3.6014,-3.6129,-3.6317,-3.691,-3.7636,-3.8094,-3.8381,-3.8935,-3.9279,-3.9699,-4.0081,-4.0081,-4.0062,-4.0215]}]]